[[{"header":{"parameterUnit":"m.s-1","parameterCategory":1,"la1":31.0,"la2":29.5877,"lo1":-88.7671,"lo2":-86.6584,"dy":0.0162,"dx":0.0185,"nx":115,"ny":88,"refTime":"2023-11-07T06:00:00:Z","depth":0,"parameterNumber":2,"parameterNumberName":"U-component_of_WINDS"},"data":[0.0,0.0,0.0,0.0,0.0,0.0,0.0,0.0,0.0,0.0,0.0,0.0,0.0,0.0,0.0,0.0,0.0,0.0,0.0,0.0,0.0,0.0,0.0,0.0,0.0,0.0,0.0,0.0,0.0,0.0,0.0,0.0,0.0,0.0,0.0,0.0,0.0,0.0,0.0,0.0,0.0,0.0,0.0,0.0,0.0,0.0,0.0,0.0,0.0,0.0,0.0,0.0,0.0,0.0,0.0,0.0,0.0,0.0,0.0,0.0,0.0,0.0,0.0,0.0,0.0,0.0,0.0,0.0,0.0,0.0,0.0,0.0,0.0,0.0,0.0,0.0,0.0,0.0,0.0,0.0,0.0,0.0,0.0,0.0,0.0,0.0,0.0,0.0,0.0,0.0,0.0,0.0,0.0,0.0,0.0,0.0,0.0,0.0,0.0,0.0,0.0,0.0,0.0,0.0,0.0,0.0,0.0,0.0,0.0,0.0,0.0,0.0,0.0,0.0,0.0,0.0,0.0,0.0,0.0,0.0,0.0,0.0,0.0,0.0,0.0,0.0,0.0,0.0,0.0,0.0,0.0,0.0,0.0,0.0,0.0,0.0,0.0,0.0,0.0,0.0,0.0,0.0,0.0,0.0,0.0,0.0,0.0,0.0,0.0,0.0,0.0,0.0,0.0,0.0,0.0,0.0,0.0,0.0,0.0,0.0,0.0,0.0,0.0,0.0,0.0,0.0,0.0,0.0,0.0,0.0,0.0,0.0,0.0,0.0,0.0,0.0,0.0,0.0,0.0,0.0,0.0,0.0,0.0,0.0,0.0,0.0,0.0,0.0,0.0,0.0,0.0,0.0,0.0,0.0,0.0,0.0,0.0,0.0,0.0,0.0,0.0,0.0,0.0,0.0,0.0,0.0,0.0,0.0,0.0,0.0,0.0,0.0,0.0,0.0,0.0,0.0,0.0,0.0,0.0,0.0,0.0,0.0,0.0,0.0,0.0,0.0,0.0,0.0,0.0,0.0,0.0,0.0,0.0,0.0,0.0,0.0,0.0,0.0,0.0,0.0,0.0,0.0,0.0,0.0,0.0,0.0,0.0,0.0,0.0,0.0,0.0,0.0,0.0,0.0,0.0,0.0,0.0,0.0,0.0,0.0,0.0,0.0,0.0,0.0,0.0,0.0,0.0,0.0,0.0,0.0,0.0,0.0,0.0,0.0,0.0,0.0,0.0,0.0,0.0,0.0,0.0,0.0,0.0,0.0,0.0,0.0,0.0,0.0,0.0,0.0,0.0,0.0,0.0,0.0,0.0,0.0,0.0,0.0,0.0,0.0,0.0,0.0,0.0,0.0,0.0,0.0,0.0,0.0,0.0,0.0,0.0,0.0,0.0,0.0,0.0,0.0,0.0,0.0,0.0,0.0,0.0,0.0,0.0,0.0,0.0,0.0,0.0,0.0,0.0,0.0,0.0,0.0,0.0,0.0,0.0,0.0,0.0,0.0,0.0,0.0,0.0,0.0,0.0,0.0,0.0,0.0,0.0,0.0,0.0,0.0,0.0,0.0,0.0,0.0,0.0,0.0,0.0,0.0,0.0,0.0,0.0,0.0,0.0,0.0,0.0,0.0,0.0,0.0,0.0,0.0,0.0,0.0,0.0,0.0,0.0,0.0,0.0,0.0,0.0,0.0,0.0,0.0,0.0,0.0,0.0,0.0,0.0,0.0,0.0,0.0,0.0,0.0,0.0,0.0,0.0,0.0,0.0,0.0,0.0,0.0,0.0,0.0,0.0,0.0,0.0,0.0,0.0,0.0,0.0,0.0,0.0,0.0,0.0,0.0,0.0,0.0,0.0,0.0,0.0,0.0,0.0,0.0,0.0,0.0,0.0,0.0,0.0,0.0,0.0,0.0,0.0,0.0,0.0,0.0,0.0,0.0,0.0,0.0,0.0,0.0,0.0,0.0,0.0,0.0,0.0,0.0,0.0,0.0,0.0,0.0,0.0,0.0,0.0,0.0,0.0,0.0,0.0,0.0,0.0,0.0,0.0,0.0,0.0,0.0,0.0,0.0,0.0,0.0,0.0,0.0,0.0,0.0,0.0,0.0,0.0,0.0,0.0,0.0,0.0,0.0,0.0,0.0,0.0,0.0,0.0,0.0,0.0,0.0,0.0,0.0,0.0,0.0,0.0,0.0,0.0,0.0,0.0,0.0,0.0,0.0,0.0,0.0,0.0,0.0,0.0,0.0,0.0,0.0,0.0,0.0,0.0,0.0,0.0,0.0,0.0,0.0,0.0,0.0,0.0,0.0,0.0,0.0,0.0,0.0,0.0,0.0,0.0,0.0,0.0,0.0,0.0,0.0,0.0,0.0,0.0,0.0,0.0,0.0,0.0,0.0,0.0,0.0,0.0,0.0,0.0,0.0,0.0,0.0,0.0,0.0,0.0,0.0,0.0,0.0,0.0,0.0,0.0,0.0,0.0,0.0,0.0,0.0,0.0,0.0,0.0,0.0,0.0,0.0,0.0,0.0,0.0,0.0,0.0,0.0,0.0,0.0,0.0,0.0,0.0,0.0,0.0,0.0,0.0,0.0,0.0,0.0,0.0,0.0,0.0,0.0,0.0,0.0,0.0,0.0,0.0,0.0,0.0,0.0,0.0,0.0,0.0,0.0,0.0,0.0,0.0,0.0,0.0,0.0,0.0,0.0,0.0,0.0,0.0,0.0,0.0,0.0,0.0,0.0,0.0,0.0,0.0,0.0,0.0,0.0,0.0,0.0,0.0,0.0,0.0,0.0,0.0,0.0,0.0,0.0,0.0,0.0,0.0,0.0,0.0,0.0,0.0,0.0,0.0,0.0,0.0,0.0,0.0,0.0,0.0,0.0,0.0,0.0,0.0,0.0,0.0,0.0,0.0,0.0,0.0,0.0,0.0,0.0,0.0,0.0,0.0,0.0,0.0,0.0,0.0,0.0,0.0,0.0,0.0,0.0,0.0,0.0,0.0,0.0,0.0,0.0,0.0,0.0,0.0,0.0,0.0,0.0,0.0,0.0,0.0,0.0,0.0,0.0,0.0,0.0,0.0,0.0,0.0,0.0,0.0,0.0,0.0,0.0,0.0,0.0,0.0,0.0,0.0,0.0,0.0,0.0,0.0,0.0,0.0,0.0,0.0,0.0,0.0,0.0,0.0,0.0,0.0,0.0,0.0,0.0,0.0,0.0,0.0,0.0,0.0,0.0,0.0,0.0,0.0,0.0,0.0,0.0,0.0,0.0,0.0,0.0,0.0,0.0,0.0,0.0,0.0,0.0,0.0,0.0,0.0,0.0,0.0,0.0,0.0,0.0,0.0,0.0,0.0,0.0,0.0,0.0,0.0,0.0,0.0,0.0,0.0,0.0,0.0,0.0,0.0,0.0,0.0,0.0,0.0,0.0,0.0,0.0,0.0,0.0,0.0,0.0,0.0,0.0,0.0,0.0,0.0,0.0,0.0,0.0,0.0,0.0,0.0,0.0,0.0,0.0,0.0,0.0,0.0,0.0,0.0,0.0,0.0,0.0,0.0,0.0,0.0,0.0,0.0,0.0,0.0,0.0,0.0,0.0,0.0,0.0,0.0,0.0,0.0,0.0,0.0,0.0,0.0,0.0,0.0,0.0,0.0,0.0,0.0,0.0,0.0,0.0,0.0,0.0,0.0,0.0,0.0,0.0,0.0,0.0,0.0,0.0,0.0,0.0,0.0,0.0,0.0,0.0,0.0,0.0,0.0,0.0,0.0,0.0,0.0,0.0,0.0,0.0,0.0,0.0,0.0,0.0,0.0,0.0,0.0,0.0,0.0,0.0,0.0,0.0,0.0,0.0,0.0,0.0,0.0,0.0,0.0,0.0,0.0,0.0,0.0,0.0,0.0,0.0,0.0,0.0,0.0,0.0,0.0,0.0,0.0,0.0,0.0,0.0,0.0,0.0,0.0,0.0,0.0,0.0,0.0,0.0,0.0,0.0,0.0,0.0,0.0,0.0,0.0,0.0,0.0,0.0,0.0,0.0,0.0,0.0,0.0,0.0,0.0,0.0,0.0,0.0,0.0,0.0,0.0,0.0,0.0,0.0,0.0,0.0,0.0,0.0,0.0,0.0,0.0,0.0,0.0,0.0,0.0,0.0,0.0,0.0,0.0,0.0,0.0,0.0,0.0,0.0,0.0,0.0,0.0,0.0,0.0,0.0,0.0,0.0,0.0,0.0,0.0,0.0,0.0,0.0,0.0,0.0,0.0,0.0,0.0,0.0,2.6669,0.0,0.0,0.0,0.0,0.0,0.0,0.0,0.0,0.0,0.0,0.0,0.0,0.0,0.0,0.0,0.0,0.0,0.0,0.0,0.0,0.0,0.0,0.0,0.0,0.0,0.0,0.0,0.0,0.0,0.0,0.0,0.0,0.0,0.0,0.0,0.0,0.0,0.0,0.0,0.0,0.0,0.0,0.0,0.0,0.0,0.0,0.0,0.0,0.0,0.0,0.0,0.0,0.0,0.0,0.0,0.0,0.0,0.0,0.0,0.0,0.0,0.0,0.0,0.0,0.0,0.0,0.0,0.0,0.0,0.0,0.0,0.0,0.0,0.0,0.0,0.0,0.0,0.0,0.0,0.0,0.0,0.0,0.0,0.0,0.0,0.0,0.0,0.0,0.0,0.0,0.0,0.0,0.0,0.0,0.0,0.0,0.0,0.0,0.0,0.0,0.0,0.0,0.0,0.0,0.0,0.0,0.0,0.0,0.0,0.0,2.7585,2.7572,2.7201,2.6854,2.6497,0.0,0.0,0.0,0.0,0.0,0.0,0.0,0.0,0.0,0.0,0.0,0.0,0.0,0.0,0.0,0.0,0.0,0.0,0.0,0.0,0.0,0.0,0.0,0.0,0.0,0.0,0.0,0.0,0.0,0.0,0.0,0.0,0.0,0.0,0.0,0.0,0.0,0.0,0.0,0.0,0.0,0.0,0.0,0.0,0.0,0.0,0.0,0.0,0.0,0.0,0.0,0.0,0.0,0.0,0.0,0.0,0.0,0.0,0.0,0.0,0.0,0.0,0.0,0.0,0.0,0.0,0.0,0.0,0.0,0.0,0.0,0.0,0.0,0.0,0.0,0.0,0.0,0.0,0.0,0.0,0.0,0.0,0.0,0.0,0.0,0.0,0.0,0.0,0.0,0.0,0.0,0.0,0.0,0.0,0.0,0.0,0.0,0.0,0.0,0.0,0.0,0.0,0.0,0.0,0.0,0.0,0.0,0.0,0.0,0.0,0.0,0.0,2.68,2.6336,2.5973,0.0,0.0,0.0,0.0,0.0,0.0,0.0,0.0,0.0,0.0,0.0,0.0,0.0,0.0,0.0,0.0,0.0,0.0,0.0,0.0,0.0,0.0,0.0,0.0,0.0,0.0,0.0,0.0,0.0,0.0,0.0,0.0,0.0,0.0,0.0,0.0,0.0,0.0,0.0,0.0,0.0,0.0,0.0,0.0,0.0,0.0,0.0,0.0,0.0,0.0,0.0,0.0,0.0,0.0,0.0,0.0,0.0,0.0,0.0,0.0,0.0,0.0,0.0,0.0,0.0,0.0,0.0,0.0,0.0,0.0,0.0,0.0,0.0,0.0,0.0,0.0,0.0,0.0,0.0,0.0,0.0,0.0,0.0,0.0,0.0,0.0,0.0,0.0,0.0,0.0,0.0,0.0,0.0,0.0,0.0,0.0,0.0,0.0,0.0,0.0,0.0,0.0,0.0,0.0,0.0,0.0,0.0,0.0,0.0,0.0,2.728,2.6616,2.6537,0.0,2.4567,0.0,0.0,0.0,0.0,0.0,0.0,0.0,0.0,0.0,0.0,0.0,0.0,0.0,0.0,0.0,0.0,0.0,0.0,0.0,0.0,0.0,0.0,0.0,0.0,0.0,0.0,0.0,0.0,0.0,0.0,0.0,0.0,0.0,0.0,0.0,0.0,0.0,0.0,0.0,0.0,0.0,0.0,0.0,0.0,0.0,0.0,0.0,0.0,0.0,0.0,0.0,0.0,0.0,0.0,0.0,0.0,0.0,0.0,0.0,0.0,0.0,0.0,0.0,0.0,0.0,0.0,0.0,0.0,0.0,0.0,0.0,0.0,0.0,0.0,0.0,0.0,0.0,0.0,0.0,0.0,0.0,0.0,0.0,0.0,0.0,0.0,0.0,0.0,0.0,0.0,0.0,0.0,0.0,0.0,0.0,0.0,0.0,0.0,0.0,0.0,0.0,0.0,0.0,0.0,0.0,0.0,0.0,0.0,0.0,0.0,2.7255,2.6496,2.5646,2.4682,0.0,0.0,0.0,0.0,0.0,0.0,0.0,0.0,0.0,0.0,0.0,0.0,0.0,0.0,0.0,0.0,0.0,0.0,0.0,0.0,0.0,0.0,0.0,0.0,0.0,0.0,0.0,0.0,0.0,0.0,0.0,0.0,0.0,0.0,0.0,0.0,0.0,0.0,0.0,0.0,0.0,0.0,0.0,0.0,0.0,0.0,0.0,0.0,0.0,0.0,0.0,0.0,0.0,0.0,0.0,0.0,0.0,0.0,0.0,0.0,0.0,0.0,0.0,0.0,0.0,0.0,0.0,0.0,0.0,0.0,0.0,0.0,0.0,0.0,0.0,0.0,0.0,0.0,0.0,0.0,0.0,0.0,0.0,0.0,0.0,0.0,0.0,0.0,0.0,0.0,0.0,0.0,0.0,0.0,0.0,0.0,0.0,0.0,0.0,0.0,0.0,0.0,0.0,0.0,0.0,0.0,0.0,0.0,0.0,0.0,2.7098,2.6641,2.5878,2.4653,2.3693,2.311,0.0,0.0,0.0,0.0,0.0,0.0,0.0,0.0,0.0,0.0,0.0,0.0,0.0,0.0,0.0,0.0,0.0,0.0,0.0,0.0,0.0,0.0,0.0,0.0,0.0,0.0,0.0,0.0,0.0,0.0,0.0,0.0,0.0,0.0,0.0,0.0,0.0,0.0,0.0,0.0,0.0,0.0,0.0,0.0,0.0,0.0,0.0,0.0,0.0,0.0,0.0,0.0,0.0,0.0,0.0,0.0,0.0,0.0,0.0,0.0,0.0,0.0,0.0,0.0,0.0,0.0,0.0,0.0,0.0,0.0,0.0,0.0,0.0,0.0,0.0,0.0,0.0,0.0,0.0,0.0,0.0,0.0,0.0,0.0,0.0,0.0,0.0,0.0,0.0,0.0,0.0,0.0,0.0,0.0,0.0,0.0,0.0,0.0,0.0,0.0,0.0,0.0,0.0,0.0,0.0,0.0,0.0,0.0,2.655,2.5864,2.5147,2.4452,2.3603,2.3138,0.0,0.0,0.0,0.0,0.0,0.0,0.0,0.0,0.0,0.0,0.0,0.0,0.0,0.0,0.0,0.0,0.0,0.0,0.0,0.0,0.0,0.0,0.0,0.0,0.0,0.0,0.0,0.0,0.0,0.0,0.0,0.0,0.0,0.0,0.0,0.0,0.0,0.0,0.0,0.0,0.0,0.0,0.0,0.0,0.0,0.0,0.0,0.0,0.0,0.0,0.0,0.0,0.0,0.0,0.0,0.0,0.0,0.0,0.0,0.0,0.0,0.0,0.0,0.0,0.0,0.0,0.0,0.0,0.0,0.0,0.0,0.0,0.0,0.0,0.0,0.0,0.0,0.0,0.0,0.0,0.0,0.0,0.0,0.0,0.0,0.0,0.0,0.0,0.0,0.0,0.0,0.0,0.0,0.0,0.0,0.0,0.0,0.0,0.0,0.0,0.0,0.0,0.0,0.0,0.0,0.0,0.0,0.0,0.0,2.6444,2.5328,2.4567,2.4279,2.3529,2.3095,0.0,0.0,0.0,0.0,0.0,0.0,0.0,0.0,0.0,0.0,0.0,0.0,0.0,0.0,0.0,0.0,0.0,0.0,0.0,0.0,0.0,0.0,0.0,0.0,0.0,0.0,0.0,0.0,0.0,0.0,0.0,0.0,0.0,0.0,0.0,0.0,0.0,0.0,0.0,0.0,0.0,0.0,0.0,0.0,0.0,0.0,0.0,0.0,0.0,0.0,0.0,0.0,0.0,0.0,0.0,0.0,0.0,0.0,0.0,0.0,0.0,0.0,0.0,0.0,0.0,0.0,0.0,0.0,0.0,0.0,0.0,0.0,0.0,0.0,0.0,0.0,0.0,0.0,0.0,0.0,0.0,0.0,0.0,0.0,0.0,0.0,0.0,0.0,0.0,0.0,0.0,0.0,0.0,0.0,0.0,0.0,0.0,0.0,0.0,0.0,0.0,0.0,0.0,0.0,0.0,0.0,0.0,0.0,0.0,2.5384,0.0,2.3899,2.3899,2.338,2.3095,0.0,0.0,0.0,0.0,0.0,0.0,0.0,0.0,0.0,0.0,0.0,0.0,0.0,0.0,0.0,0.0,0.0,0.0,0.0,0.0,0.0,0.0,0.0,0.0,0.0,0.0,0.0,0.0,0.0,0.0,0.0,0.0,0.0,0.0,0.0,0.0,0.0,0.0,0.0,0.0,0.0,0.0,0.0,0.0,0.0,0.0,0.0,0.0,0.0,0.0,0.0,0.0,0.0,0.0,0.0,0.0,0.0,0.0,0.0,0.0,0.0,0.0,0.0,0.0,0.0,0.0,0.0,0.0,0.0,0.0,0.0,0.0,0.0,0.0,0.0,0.0,0.0,0.0,0.0,0.0,0.0,0.0,0.0,0.0,0.0,0.0,0.0,0.0,0.0,0.0,0.0,0.0,0.0,0.0,0.0,0.0,0.0,0.0,0.0,0.0,0.0,0.0,0.0,0.0,0.0,0.0,0.0,0.0,2.4653,2.3215,2.314,2.3155,2.3095,2.311,2.3095,0.0,0.0,0.0,0.0,0.0,0.0,0.0,0.0,0.0,0.0,0.0,0.0,0.0,0.0,0.0,0.0,0.0,0.0,0.0,0.0,0.0,0.0,0.0,0.0,0.0,0.0,0.0,0.0,0.0,0.0,0.0,0.0,0.0,0.0,0.0,0.0,0.0,0.0,0.0,0.0,0.0,0.0,0.0,0.0,0.0,0.0,0.0,0.0,0.0,0.0,0.0,0.0,0.0,0.0,0.0,0.0,0.0,0.0,0.0,0.0,0.0,0.0,0.0,0.0,0.0,0.0,0.0,0.0,0.0,0.0,0.0,0.0,0.0,0.0,0.0,0.0,0.0,0.0,0.0,0.0,0.0,0.0,0.0,0.0,0.0,0.0,0.0,0.0,0.0,0.0,0.0,0.0,0.0,0.0,0.0,0.0,0.0,0.0,0.0,0.0,0.0,0.0,0.0,0.0,0.0,0.0,0.0,0.0,0.0,2.3138,2.3095,2.3095,2.3095,2.3095,2.3095,0.0,0.0,0.0,0.0,0.0,0.0,0.0,0.0,0.0,0.0,0.0,0.0,0.0,0.0,0.0,0.0,0.0,0.0,0.0,0.0,0.0,0.0,0.0,0.0,0.0,0.0,0.0,0.0,0.0,0.0,0.0,0.0,0.0,0.0,0.0,0.0,0.0,0.0,0.0,0.0,0.0,0.0,0.0,0.0,0.0,0.0,0.0,0.0,0.0,0.0,0.0,0.0,0.0,0.0,0.0,0.0,0.0,0.0,0.0,0.0,0.0,0.0,0.0,0.0,0.0,0.0,0.0,0.0,0.0,0.0,0.0,0.0,0.0,0.0,0.0,0.0,0.0,0.0,0.0,0.0,0.0,0.0,0.0,0.0,0.0,0.0,0.0,0.0,0.0,0.0,0.0,0.0,0.0,0.0,0.0,0.0,0.0,0.0,0.0,0.0,0.0,0.0,0.0,0.0,0.0,0.0,0.0,0.0,0.0,2.3421,2.3221,2.3095,2.3095,2.3095,2.3095,2.3095,0.0,0.0,0.0,0.0,0.0,0.0,0.0,0.0,0.0,0.0,0.0,0.0,0.0,0.0,0.0,0.0,0.0,0.0,0.0,0.0,0.0,0.0,0.0,0.0,0.0,0.0,0.0,0.0,0.0,0.0,0.0,0.0,0.0,0.0,0.0,0.0,0.0,0.0,0.0,0.0,0.0,0.0,0.0,0.0,0.0,0.0,0.0,0.0,0.0,0.0,0.0,0.0,0.0,0.0,0.0,0.0,0.0,0.0,0.0,0.0,0.0,0.0,0.0,0.0,0.0,0.0,0.0,0.0,0.0,0.0,0.0,0.0,0.0,0.0,0.0,0.0,0.0,0.0,0.0,0.0,0.0,0.0,0.0,0.0,0.0,0.0,0.0,0.0,0.0,0.0,0.0,0.0,0.0,0.0,0.0,0.0,0.0,0.0,0.0,0.0,0.0,0.0,0.0,0.0,0.0,0.0,0.0,0.0,2.3851,2.3367,2.3092,2.3082,2.3128,2.3118,0.0,0.0,0.0,0.0,0.0,0.0,0.0,0.0,0.0,0.0,0.0,0.0,0.0,0.0,0.0,0.0,0.0,0.0,0.0,0.0,0.0,0.0,0.0,0.0,0.0,0.0,0.0,0.0,0.0,0.0,0.0,0.0,0.0,0.0,0.0,0.0,0.0,0.0,0.0,0.0,0.0,0.0,0.0,0.0,0.0,0.0,0.0,0.0,0.0,0.0,0.0,0.0,0.0,0.0,0.0,0.0,0.0,0.0,0.0,0.0,0.0,0.0,0.0,0.0,0.0,0.0,0.0,0.0,0.0,0.0,0.0,0.0,0.0,0.0,0.0,0.0,0.0,0.0,0.0,0.0,0.0,0.0,0.0,0.0,0.0,0.0,0.0,0.0,0.0,0.0,0.0,0.0,0.0,0.0,0.0,0.0,0.0,0.0,0.0,0.0,0.0,0.0,0.0,0.0,0.0,0.0,0.0,0.0,0.0,2.2038,2.2783,2.3115,2.2822,2.3427,2.326,0.0,0.0,0.0,0.0,0.0,0.0,0.0,0.0,0.0,0.0,0.0,0.0,0.0,0.0,0.0,0.0,0.0,0.0,0.0,0.0,0.0,0.0,0.0,0.0,0.0,0.0,0.0,0.0,0.0,0.0,0.0,0.0,0.0,0.0,0.0,0.0,0.0,0.0,0.0,0.0,0.0,0.0,0.0,0.0,0.0,0.0,0.0,0.0,0.0,0.0,0.0,0.0,0.0,0.0,0.0,0.0,0.0,0.0,0.0,0.0,0.0,0.0,0.0,0.0,0.0,0.0,0.0,0.0,0.0,0.0,0.0,0.0,0.0,0.0,0.0,0.0,0.0,0.0,0.0,0.0,0.0,0.0,0.0,0.0,0.0,0.0,0.0,0.0,0.0,0.0,0.0,0.0,0.0,0.0,0.0,0.0,0.0,0.0,0.0,0.0,0.0,0.0,0.0,0.0,0.0,0.0,0.0,0.0,2.3106,2.1883,2.2851,2.2995,2.2185,2.2587,2.2619,0.0,0.0,0.0,0.0,0.0,0.0,0.0,0.0,0.0,0.0,0.0,0.0,0.0,0.0,0.0,0.0,0.0,0.0,0.0,0.0,0.0,0.0,0.0,0.0,0.0,0.0,0.0,0.0,0.0,0.0,0.0,0.0,0.0,0.0,0.0,0.0,0.0,0.0,0.0,0.0,0.0,0.0,0.0,0.0,0.0,0.0,0.0,0.0,0.0,0.0,0.0,0.0,0.0,0.0,0.0,0.0,0.0,0.0,0.0,0.0,0.0,0.0,0.0,0.0,0.0,0.0,0.0,0.0,0.0,0.0,0.0,0.0,0.0,0.0,0.0,0.0,0.0,0.0,0.0,0.0,0.0,0.0,0.0,0.0,0.0,0.0,0.0,0.0,0.0,0.0,0.0,0.0,0.0,0.0,0.0,0.0,0.0,0.0,0.0,0.0,0.0,0.0,0.0,0.0,0.0,0.0,0.0,0.0,2.2977,2.2419,2.3021,2.271,2.1382,2.13,2.1579,0.0,0.0,0.0,0.0,0.0,0.0,0.0,0.0,0.0,0.0,0.0,0.0,0.0,0.0,0.0,0.0,0.0,0.0,0.0,0.0,0.0,0.0,0.0,0.0,0.0,0.0,0.0,0.0,0.0,0.0,0.0,0.0,0.0,0.0,0.0,0.0,0.0,0.0,0.0,0.0,0.0,0.0,0.0,0.0,0.0,0.0,0.0,0.0,0.0,0.0,0.0,0.0,0.0,0.0,0.0,0.0,0.0,0.0,0.0,0.0,0.0,0.0,0.0,0.0,0.0,0.0,0.0,0.0,0.0,0.0,0.0,0.0,0.0,0.0,0.0,0.0,0.0,0.0,0.0,0.0,0.0,0.0,0.0,0.0,0.0,0.0,0.0,0.0,0.0,0.0,0.0,0.0,0.0,0.0,0.0,0.0,0.0,0.0,0.0,0.0,0.0,0.0,0.0,0.0,0.0,0.0,0.0,0.0,2.207,2.0584,2.1684,2.1826,2.0804,2.1453,2.1411,0.0,0.0,0.0,0.0,0.0,0.0,0.0,0.0,0.0,0.0,0.0,0.0,0.0,0.0,0.0,0.0,0.0,0.0,0.0,0.0,0.0,0.0,0.0,0.0,0.0,0.0,0.0,0.0,0.0,0.0,0.0,0.0,0.0,0.0,0.0,0.0,0.0,0.0,0.0,0.0,0.0,0.0,0.0,0.0,0.0,0.0,0.0,0.0,1.5882,0.0,0.0,0.0,0.0,0.0,0.0,0.0,0.0,0.0,0.0,0.0,0.0,0.0,0.0,0.0,0.0,0.0,0.0,0.0,0.0,0.0,0.0,0.0,0.0,0.0,0.0,0.0,0.0,0.0,0.0,0.0,0.0,0.0,0.0,0.0,0.0,0.0,0.0,0.0,0.0,0.0,0.0,0.0,0.0,0.0,0.0,0.0,0.0,0.0,0.0,0.0,0.0,0.0,0.0,0.0,0.0,0.0,0.0,0.0,2.1424,2.0291,2.0958,2.1097,2.0624,2.0888,2.0768,0.0,0.0,0.0,0.0,0.0,0.0,0.0,0.0,0.0,0.0,0.0,0.0,0.0,0.0,0.0,0.0,0.0,0.0,0.0,0.0,0.0,0.0,0.0,0.0,0.0,0.0,0.0,0.0,0.0,0.0,0.0,0.0,0.0,0.0,0.0,0.0,0.0,0.0,0.0,0.0,0.0,0.0,0.0,0.0,0.0,0.0,0.0,0.0,0.0,0.0,0.0,0.0,0.0,0.0,0.0,0.0,0.0,0.0,0.0,0.0,0.0,0.0,0.0,0.0,0.0,0.0,0.0,0.0,0.0,0.0,0.0,0.0,0.0,0.0,0.0,0.0,0.0,0.0,0.0,0.0,0.0,0.0,0.0,0.0,0.0,0.0,0.0,0.0,0.0,0.0,0.0,0.0,0.0,0.0,0.0,0.0,0.0,0.0,0.0,0.0,0.0,0.0,0.0,0.0,0.0,0.0,0.0,2.1542,2.0951,2.0624,2.0596,2.0596,2.0595,2.0205,2.0149,2.046,0.0,0.0,0.0,0.0,0.0,0.0,0.0,0.0,0.0,0.0,0.0,0.0,0.0,0.0,0.0,0.0,0.0,0.0,0.0,0.0,0.0,0.0,0.0,0.0,0.0,0.0,0.0,0.0,0.0,0.0,0.0,0.0,0.0,0.0,0.0,0.0,0.0,0.0,1.4109,1.4122,0.0,0.0,0.0,0.0,0.0,0.0,0.0,0.0,1.7225,0.0,0.0,0.0,0.0,0.0,0.0,0.0,0.0,0.0,0.0,0.0,0.0,0.0,0.0,0.0,0.0,0.0,0.0,0.0,0.0,0.0,0.0,0.0,0.0,0.0,0.0,0.0,0.0,0.0,0.0,0.0,0.0,0.0,0.0,0.0,0.0,0.0,0.0,0.0,0.0,0.0,0.0,0.0,0.0,0.0,0.0,0.0,0.0,0.0,0.0,0.0,0.0,0.0,0.0,0.0,0.0,2.0929,2.0796,2.0662,2.0605,2.0596,2.0596,2.0605,2.0537,2.0321,2.001,0.0,0.0,0.0,0.0,0.0,0.0,0.0,0.0,0.0,0.0,0.0,0.0,0.0,0.0,0.0,0.0,0.0,0.0,0.0,0.0,0.0,0.0,0.0,0.0,0.0,0.0,0.0,0.0,0.0,0.0,0.0,0.0,0.0,0.0,0.0,0.0,0.0,0.0,0.0,1.4295,1.4427,0.0,0.0,0.0,0.0,0.0,0.0,0.0,0.0,1.6514,0.0,0.0,0.0,0.0,0.0,0.0,0.0,0.0,0.0,0.0,0.0,0.0,0.0,0.0,0.0,0.0,0.0,0.0,0.0,0.0,0.0,0.0,0.0,0.0,0.0,0.0,0.0,0.0,0.0,0.0,0.0,0.0,0.0,0.0,0.0,0.0,0.0,0.0,0.0,0.0,0.0,0.0,0.0,0.0,0.0,0.0,0.0,0.0,0.0,0.0,0.0,0.0,0.0,0.0,0.0,2.1307,2.0847,2.0693,2.0898,2.0154,1.986,2.0057,1.9295,1.9055,0.0,0.0,0.0,0.0,0.0,0.0,0.0,0.0,0.0,0.0,0.0,0.0,0.0,0.0,0.0,0.0,0.0,0.0,0.0,0.0,0.0,0.0,0.0,0.0,0.0,0.0,0.0,0.0,0.0,0.0,0.0,0.0,0.0,0.0,0.0,0.0,0.0,0.0,0.0,0.0,1.4436,1.4554,1.473,0.0,0.0,0.0,0.0,0.0,0.0,1.566,1.608,0.0,0.0,0.0,0.0,0.0,0.0,0.0,0.0,0.0,0.0,0.0,0.0,0.0,0.0,0.0,0.0,0.0,0.0,0.0,0.0,0.0,0.0,0.0,0.0,0.0,0.0,0.0,0.0,0.0,0.0,0.0,0.0,0.0,0.0,0.0,0.0,0.0,0.0,0.0,0.0,0.0,0.0,0.0,0.0,0.0,0.0,0.0,0.0,0.0,0.0,0.0,0.0,0.0,0.0,0.0,2.1697,2.0982,2.0673,2.078,1.9634,1.9086,1.92,1.7973,1.7727,0.0,0.0,0.0,0.0,0.0,0.0,0.0,0.0,0.0,0.0,0.0,0.0,0.0,0.0,0.0,0.0,0.0,0.0,0.0,0.0,0.0,0.0,0.0,0.0,0.0,0.0,0.0,0.0,0.0,0.0,0.0,0.0,0.0,0.0,0.0,0.0,0.0,0.0,0.0,0.0,0.0,1.4783,1.5039,1.5297,0.0,0.0,0.0,0.0,1.512,1.5809,0.0,0.0,0.0,0.0,0.0,0.0,0.0,0.0,0.0,0.0,0.0,0.0,0.0,0.0,0.0,0.0,0.0,0.0,0.0,0.0,0.0,0.0,0.0,0.0,0.0,0.0,0.0,0.0,0.0,0.0,0.0,0.0,0.0,0.0,0.0,0.0,0.0,0.0,0.0,0.0,0.0,0.0,0.0,0.0,0.0,0.0,0.0,0.0,0.0,0.0,0.0,0.0,0.0,0.0,0.0,0.0,2.075,2.0644,2.028,1.962,1.9195,1.8675,1.8017,1.7553,1.7362,0.0,0.0,0.0,0.0,0.0,0.0,0.0,0.0,0.0,0.0,0.0,0.0,0.0,0.0,0.0,0.0,0.0,0.0,0.0,0.0,0.0,0.0,0.0,0.0,0.0,0.0,0.0,0.0,0.0,0.0,0.0,0.0,0.0,0.0,0.0,0.0,0.0,0.0,0.0,0.0,0.0,1.5304,1.5344,1.5575,1.5741,0.0,0.0,1.5655,1.5391,1.5459,0.0,0.0,0.0,0.0,0.0,0.0,0.0,0.0,0.0,0.0,0.0,0.0,0.0,0.0,0.0,0.0,0.0,0.0,0.0,0.0,0.0,0.0,0.0,0.0,0.0,0.0,0.0,0.0,0.0,0.0,0.0,0.0,0.0,0.0,0.0,0.0,0.0,0.0,0.0,0.0,0.0,0.0,0.0,0.0,0.0,0.0,0.0,0.0,0.0,0.0,0.0,0.0,0.0,0.0,0.0,2.0304,1.9717,1.9697,1.9396,1.8811,1.7726,1.7152,1.722,1.6085,1.5773,0.0,0.0,0.0,0.0,0.0,0.0,0.0,0.0,0.0,0.0,0.0,0.0,0.0,0.0,0.0,0.0,0.0,0.0,0.0,0.0,0.0,0.0,0.0,0.0,0.0,0.0,0.0,0.0,0.0,0.0,0.0,0.0,0.0,0.0,0.0,0.0,0.0,0.0,0.0,0.0,0.0,0.0,1.5842,1.6005,0.0,0.0,0.0,1.6039,1.5936,0.0,0.0,0.0,0.0,0.0,0.0,0.0,0.0,0.0,0.0,0.0,0.0,0.0,0.0,0.0,0.0,0.0,0.0,0.0,0.0,0.0,0.0,0.0,0.0,0.0,0.0,0.0,0.0,0.0,0.0,0.0,0.0,0.0,0.0,0.0,0.0,0.0,0.0,0.0,0.0,0.0,0.0,0.0,0.0,0.0,0.0,0.0,0.0,0.0,0.0,0.0,0.0,0.0,0.0,0.0,0.0,0.0,1.9016,1.8796,1.8442,1.7935,1.6636,1.6075,1.6309,1.4967,0.0,0.0,0.0,0.0,0.0,0.0,0.0,0.0,0.0,0.0,0.0,0.0,0.0,0.0,0.0,0.0,0.0,0.0,0.0,0.0,0.0,0.0,0.0,0.0,0.0,0.0,0.0,1.433,0.0,0.0,0.0,0.0,0.0,0.0,0.0,0.0,0.0,0.0,0.0,0.0,0.0,0.0,1.5474,1.6197,1.6297,1.6397,0.0,0.0,1.6384,1.6286,1.6092,1.5815,0.0,0.0,0.0,0.0,0.0,0.0,0.0,0.0,0.0,0.0,0.0,0.0,0.0,0.0,0.0,0.0,0.0,0.0,0.0,0.0,0.0,0.0,0.0,0.0,0.0,0.0,0.0,0.0,0.0,0.0,0.0,0.0,0.0,0.0,0.0,0.0,0.0,0.0,0.0,0.0,0.0,0.0,0.0,0.0,0.0,0.0,0.0,0.0,0.0,0.0,0.0,0.0,0.0,0.0,0.0,1.8995,1.827,1.7498,1.6755,1.6608,1.6074,1.5151,1.47,1.4384,0.0,0.0,0.0,0.0,0.0,0.0,0.0,0.0,0.0,0.0,0.0,0.0,0.0,0.0,0.0,0.0,0.0,0.0,0.0,0.0,0.0,0.0,0.0,0.0,0.0,0.0,0.0,0.0,0.0,0.0,0.0,0.0,0.0,0.0,0.0,0.0,0.0,0.0,0.0,0.0,0.0,1.5885,1.6226,1.6297,1.6404,0.0,0.0,1.658,1.6344,1.6284,1.617,1.5828,0.0,0.0,0.0,0.0,0.0,0.0,0.0,0.0,0.0,0.0,0.0,0.0,0.0,0.0,0.0,0.0,0.0,0.0,0.0,0.0,0.0,0.0,0.0,0.0,0.0,0.0,0.0,0.0,0.0,0.0,0.0,0.0,0.0,0.0,0.0,0.0,0.0,0.0,0.0,0.0,0.0,0.0,0.0,0.0,0.0,0.0,0.0,0.0,0.0,0.0,0.0,0.0,0.0,1.8658,1.7957,1.7149,1.6375,1.5659,1.5613,1.5419,1.5008,1.4676,1.4389,0.0,0.0,0.0,0.0,0.0,0.0,0.0,0.0,0.0,0.0,0.0,0.0,0.0,0.0,0.0,0.0,0.0,0.0,0.0,0.0,0.0,0.0,0.0,0.0,0.0,0.0,0.0,0.0,1.5015,1.5015,1.5015,0.0,0.0,0.0,0.0,0.0,0.0,0.0,0.0,0.0,0.0,1.5981,1.6473,1.6718,0.0,0.0,1.7113,1.6966,1.6878,1.6685,1.65,1.6362,1.6219,0.0,0.0,0.0,0.0,0.0,0.0,0.0,0.0,0.0,0.0,0.0,0.0,0.0,0.0,0.0,0.0,0.0,0.0,0.0,0.0,0.0,0.0,0.0,0.0,0.0,0.0,0.0,0.0,0.0,0.0,0.0,0.0,0.0,0.0,0.0,0.0,0.0,0.0,0.0,0.0,0.0,0.0,0.0,0.0,0.0,0.0,0.0,0.0,0.0,0.0,0.0,0.0,1.7948,1.6825,1.6143,1.5514,1.5024,1.5153,1.52,1.512,1.481,1.4516,0.0,0.0,0.0,0.0,0.0,0.0,0.0,0.0,0.0,0.0,0.0,0.0,0.0,0.0,0.0,0.0,0.0,0.0,0.0,0.0,0.0,0.0,0.0,0.0,0.0,0.0,0.0,0.0,1.5224,1.5247,1.5247,0.0,0.0,0.0,0.0,0.0,0.0,0.0,0.0,0.0,0.0,1.6248,1.6792,1.7065,1.7306,1.7568,1.7434,1.73,1.7213,1.7006,1.6814,1.672,0.0,0.0,0.0,0.0,0.0,0.0,0.0,0.0,0.0,0.0,0.0,0.0,0.0,0.0,0.0,0.0,0.0,0.0,0.0,0.0,0.0,0.0,0.0,0.0,0.0,0.0,0.0,0.0,0.0,0.0,2.6327,0.0,0.0,0.0,0.0,0.0,0.0,0.0,0.0,0.0,0.0,0.0,0.0,0.0,0.0,0.0,0.0,0.0,0.0,0.0,0.0,0.0,0.0,1.6825,1.5773,1.5285,1.504,1.5028,1.5511,1.5641,1.5384,1.5126,1.4816,1.4522,0.0,0.0,0.0,0.0,0.0,0.0,0.0,0.0,0.0,0.0,0.0,0.0,0.0,0.0,0.0,0.0,0.0,0.0,0.0,0.0,0.0,0.0,0.0,0.0,0.0,0.0,1.5761,1.5781,1.5768,0.0,0.0,0.0,0.0,0.0,0.0,0.0,0.0,0.0,0.0,1.6513,1.6794,1.7146,1.7173,1.732,1.7568,1.7575,1.7501,1.7253,1.7199,1.7066,0.0,0.0,0.0,0.0,0.0,0.0,0.0,0.0,0.0,0.0,0.0,0.0,0.0,0.0,0.0,0.0,0.0,0.0,0.0,0.0,0.0,0.0,0.0,0.0,0.0,0.0,0.0,2.4252,2.4242,0.0,0.0,0.0,0.0,0.0,0.0,0.0,0.0,0.0,0.0,0.0,2.3113,2.2955,0.0,0.0,0.0,0.0,0.0,0.0,0.0,0.0,0.0,0.0,0.0,0.0,1.6855,1.599,1.5331,1.5079,1.5273,1.5625,1.5668,1.5427,1.5327,1.514,1.4852,0.0,0.0,0.0,0.0,0.0,0.0,0.0,0.0,0.0,0.0,0.0,0.0,0.0,0.0,0.0,0.0,0.0,0.0,0.0,0.0,0.0,0.0,0.0,0.0,0.0,1.5801,0.0,0.0,0.0,0.0,0.0,0.0,0.0,0.0,0.0,0.0,0.0,1.6233,1.6526,1.6839,1.706,1.7192,1.7341,1.7501,0.0,0.0,0.0,0.0,0.0,0.0,0.0,0.0,0.0,0.0,0.0,0.0,0.0,0.0,1.6262,1.5875,1.5801,1.5801,1.5801,0.0,0.0,0.0,0.0,0.0,0.0,0.0,0.0,0.0,0.0,0.0,0.0,0.0,0.0,2.3347,0.0,2.3181,0.0,0.0,0.0,0.0,0.0,0.0,0.0,0.0,2.3101,2.3101,2.3101,2.3101,2.2976,0.0,2.2557,2.2206,0.0,0.0,0.0,0.0,0.0,0.0,0.0,0.0,1.6488,1.5742,1.5353,1.5227,1.5398,1.5655,1.5715,1.5528,1.5444,1.5264,1.5015,1.5015,1.5015,0.0,0.0,0.0,0.0,0.0,0.0,0.0,0.0,0.0,0.0,0.0,0.0,0.0,0.0,0.0,0.0,0.0,0.0,0.0,0.0,0.0,0.0,0.0,1.5801,0.0,0.0,0.0,0.0,0.0,0.0,0.0,0.0,0.0,1.631,1.6502,1.6672,1.6859,1.714,1.7327,1.7327,0.0,0.0,0.0,0.0,0.0,0.0,0.0,1.7615,1.7615,1.7454,1.7327,1.7327,1.7167,1.6981,1.6874,0.0,0.0,1.6195,1.6108,1.6108,1.6108,1.5979,1.5885,1.5965,1.5838,1.5718,0.0,0.0,0.0,0.0,0.0,0.0,0.0,0.0,2.3984,2.3809,0.0,2.3367,0.0,0.0,0.0,0.0,0.0,2.3159,0.0,0.0,2.3159,2.313,2.3149,2.3162,2.312,2.3091,2.2713,2.2529,2.25,2.2119,0.0,0.0,0.0,0.0,0.0,0.0,1.5792,1.5082,1.5267,1.5404,1.5424,1.5685,1.5801,1.5771,1.5558,1.5291,1.5062,1.5055,1.5048,1.5042,1.5048,0.0,0.0,0.0,0.0,0.0,0.0,0.0,0.0,0.0,0.0,0.0,0.0,0.0,0.0,0.0,0.0,0.0,0.0,0.0,0.0,1.5815,0.0,0.0,0.0,0.0,0.0,0.0,0.0,0.0,0.0,0.0,1.6384,1.6837,1.7199,1.7213,0.0,0.0,0.0,0.0,1.7615,1.7615,1.7615,1.7615,1.7615,1.7615,1.7615,1.7615,0.0,0.0,1.7608,1.7608,1.7495,1.7266,1.7213,1.71,1.6794,1.6668,1.6673,1.6655,1.6653,1.6593,1.6384,1.6297,1.6217,2.5152,0.0,0.0,0.0,0.0,2.4424,2.4424,2.4391,2.4297,2.4215,2.4228,2.4079,0.0,0.0,0.0,0.0,0.0,0.0,2.403,2.403,2.403,2.403,2.401,2.374,2.3581,2.3584,2.3142,2.2947,2.2906,2.281,2.1937,2.0393,0.0,0.0,0.0,0.0,1.6925,1.5417,1.5357,1.5491,1.5675,1.5761,1.5801,1.5801,1.5728,1.5641,1.5555,1.5578,1.5578,1.5561,1.5585,0.0,0.0,0.0,0.0,0.0,0.0,0.0,0.0,0.0,0.0,0.0,0.0,0.0,0.0,0.0,0.0,0.0,0.0,0.0,1.5808,1.6019,1.617,0.0,0.0,0.0,0.0,0.0,0.0,0.0,0.0,0.0,1.6965,1.7066,1.7254,0.0,0.0,1.7615,1.7615,1.7615,1.7615,1.7615,1.7615,0.0,1.7615,1.7615,1.7615,1.7615,1.7615,1.7615,1.7615,1.7615,1.7555,1.7495,1.7481,1.7454,1.7361,1.6981,1.6734,1.6707,1.6707,1.668,1.6607,1.658,1.6553,2.5971,2.5581,2.5117,2.4918,2.4918,2.4908,2.4908,2.4898,2.4756,2.4678,2.4658,2.4469,2.4424,2.4424,2.4424,0.0,0.0,0.0,2.4424,2.4424,2.4424,2.4424,2.4394,2.416,2.4043,2.4014,2.3581,2.3367,2.3376,2.271,2.1495,1.9896,0.0,0.0,1.6825,1.7047,1.6674,1.5591,1.5548,1.5628,1.5801,1.5801,1.5801,1.5801,1.5801,1.5801,1.5801,1.5801,1.5801,1.5801,1.5801,1.5801,0.0,0.0,0.0,0.0,0.0,0.0,0.0,0.0,0.0,0.0,0.0,1.5801,1.5801,0.0,0.0,0.0,1.6088,1.6155,1.6155,1.6339,0.0,0.0,0.0,0.0,0.0,0.0,0.0,1.6906,1.7167,1.7347,1.7347,1.7347,1.7414,1.7588,1.7615,1.7615,1.7615,0.0,1.7615,1.7615,1.7615,1.7615,1.7615,1.7615,1.7615,1.7615,1.7615,1.7615,1.7615,1.7615,1.7615,1.7615,1.7615,1.7615,1.7615,1.7288,1.7054,1.7054,1.7054,1.7021,1.6939,1.6906,1.6854,2.6762,2.6396,2.5981,2.5752,2.5684,2.5708,2.5708,2.5679,2.5317,2.5141,2.5088,2.4697,2.4498,2.4498,2.4498,0.0,2.4498,2.4489,2.4508,2.4489,2.4498,2.4498,2.4489,2.4469,2.4449,2.444,2.4043,2.3838,2.3773,2.2274,2.0822,1.9567,1.9273,1.8391,1.6934,1.6033,1.5651,1.5801,1.5801,1.5801,1.5801,1.5801,1.5801,1.5801,1.5801,1.5801,1.5801,1.5801,1.5801,1.5801,1.5801,1.5801,1.5801,0.0,0.0,0.0,0.0,0.0,0.0,0.0,0.0,0.0,0.0,0.0,0.0,0.0,0.0,0.0,1.6571,0.0,1.6707,1.6727,0.0,0.0,0.0,1.6749,1.6749,1.704,1.7233,1.7233,0.0,0.0,1.7615,1.7615,1.7615,1.7615,1.7615,1.7615,1.7615,1.7615,1.7615,1.7615,1.7615,1.7615,1.7615,1.7615,1.7615,1.7615,1.7615,1.7615,1.7615,1.7615,1.7615,1.7615,1.7615,1.7615,1.7615,1.7588,1.7615,1.7582,1.7588,1.7515,1.7274,1.7207,1.7159,2.6928,2.6855,2.6732,2.6313,2.5708,2.5708,2.5708,2.5708,2.5601,2.5552,2.5552,2.5445,2.5396,2.5382,2.5372,2.5396,2.5406,2.5372,2.5372,2.5372,2.5396,2.5396,2.5386,2.5068,2.4936,2.4906,2.4473,2.4245,2.4225,2.3557,2.2089,2.0039,1.9583,1.8301,1.6198,1.6813,1.6708,1.5801,1.5801,1.5801,1.5801,1.5801,1.5801,1.5801,1.5801,1.5801,1.5801,1.5801,1.5801,1.5801,1.5801,1.5801,1.5801,1.5801,0.0,0.0,0.0,0.0,0.0,0.0,0.0,0.0,0.0,1.5895,1.6146,0.0,1.6293,0.0,1.6667,1.6707,1.6707,1.6933,0.0,0.0,1.726,1.7375,1.7408,1.7461,1.7501,1.7508,1.7568,1.7615,1.7615,1.7615,1.7615,1.7615,1.7615,1.7615,1.7615,1.7615,1.7615,1.7615,1.7615,1.7615,1.7635,1.7615,1.7628,1.7615,1.7615,1.7615,1.7615,1.7615,1.7615,1.7615,1.7615,1.7615,1.7615,1.7615,1.7615,1.7615,1.7615,1.7595,1.7515,1.7501,1.7481,2.7471,2.7305,2.7305,2.6898,2.6284,2.6274,2.6284,2.6284,2.6284,2.6176,2.6016,2.5796,2.5708,2.5708,2.5708,2.5708,2.5708,2.5708,2.5708,2.5708,2.5708,2.5708,2.5698,2.5454,2.5361,2.5352,2.4922,2.473,2.4608,2.3122,2.1669,2.0312,1.8941,1.756,1.6272,1.6643,1.6497,1.5825,1.5801,1.5801,1.5808,1.5935,1.6032,1.6032,1.6128,1.6195,1.6219,1.6195,1.6195,1.6195,1.6099,1.6086,1.6182,1.6075,1.6086,0.0,0.0,0.0,0.0,0.0,0.0,0.0,0.0,0.0,0.0,0.0,1.6611,1.6906,1.7046,1.7094,1.7094,1.7274,1.7367,1.7393,1.7508,1.7615,1.7615,1.7615,1.7615,1.7615,1.7615,1.7615,1.7615,1.7615,1.7615,1.7615,1.7702,1.7736,1.7635,1.7615,1.7615,1.7615,1.7695,1.7842,1.799,1.8016,1.8016,1.7969,1.7876,1.7789,1.7782,1.7669,1.7615,1.7615,1.7615,1.7615,1.7615,1.7615,1.7615,1.7615,1.7615,1.7615,1.7615,1.7615,1.7615,2.8076,2.778,2.777,2.7545,2.7178,2.7152,2.7119,2.7012,2.7012,2.6807,2.647,2.604,2.5845,2.5806,2.5796,2.5767,2.5684,2.5708,2.5708,2.5708,2.5708,2.5708,2.5708,2.5708,2.5708,2.5689,2.5342,2.518,2.5089,2.2476,2.1029,2.0596,1.8351,1.7043,1.6687,1.6175,1.5915,1.5915,1.5915,1.5915,1.5921,1.6192,1.6351,1.6364,1.6573,1.6707,1.6707,1.6707,1.6707,1.6693,1.6466,1.6471,1.668,1.6466,1.6446,0.0,1.6707,0.0,0.0,0.0,0.0,0.0,0.0,0.0,0.0,1.6794,1.6927,1.7233,1.7461,1.7615,1.7615,1.7615,1.7602,1.7635,1.7668,1.7682,1.7722,1.7722,1.7722,1.7722,1.7695,1.7729,1.7749,1.7722,1.7729,1.7749,1.7949,1.8009,1.7776,1.7762,1.7776,1.7729,1.7896,1.8156,1.8384,1.8464,1.8485,1.8444,1.8243,1.8055,1.8076,1.7829,1.7675,1.7675,1.7648,1.7615,1.7615,1.7615,1.7615,1.7615,1.7615,1.7615,1.7615,1.7615,1.7615,2.8242,2.821,2.8164,2.8125,2.8047,2.8057,2.7656,2.7012,2.7012,2.6973,2.6869,2.6807,2.6592,2.6279,2.626,2.6074,2.5708,2.5708,2.5708,2.5708,2.5708,2.5708,2.5708,2.5708,2.5708,2.5708,2.5606,2.5591,2.5581,2.4694,2.3162,2.1113,2.0249,1.8813,1.68,0.0,0.0,0.0,1.6515,1.654,1.654,1.6593,1.662,1.6627,1.668,0.0,1.6707,1.6707,1.6707,1.67,1.6653,0.0,0.0,0.0,0.0,0.0,0.0,0.0,0.0,0.0,0.0,0.0,1.7065,1.7058,1.7112,1.7307,1.7468,1.7521,1.7575,1.7615,1.7615,1.7615,1.7682,1.7902,1.7936,1.8029,1.8283,1.8317,1.8351,1.8317,1.8317,1.8317,1.829,1.8323,1.831,1.8317,1.837,1.8384,1.8323,1.8317,1.831,1.8323,1.837,1.843,1.8477,1.8517,1.8551,1.8477,1.8464,1.841,1.8384,1.8136,1.7936,1.7916,1.7756,1.7622,1.7615,1.7615,1.7615,1.7615,1.7615,1.7615,1.7615,1.7615,1.7615,2.8301,0.0,2.8301,2.8301,0.0,2.8301,2.8047,2.762,2.7646,2.7529,2.7324,2.7109,2.6904,2.668,2.6484,2.6279,2.603,2.5781,2.5708,2.5708,2.5708,2.5708,2.5708,2.5708,2.5708,2.5708,2.5708,2.5708,2.565,2.4826,2.34,2.1437,2.055,1.9101,1.7211,1.7134,1.7001,1.6707,1.6707,1.6707,1.6714,1.6847,1.6953,1.6959,1.7061,0.0,0.0,0.0,0.0,0.0,0.0,0.0,0.0,1.7007,0.0,1.7128,1.7134,1.7134,1.7134,1.7141,1.7201,1.7374,1.7394,1.7388,1.7388,1.7521,1.7615,1.7615,1.7722,1.7782,1.7816,1.7943,1.8117,1.8243,1.8236,1.8309,1.8464,1.8497,1.8497,1.8497,1.8497,1.8497,1.8497,1.8497,1.8497,1.8504,1.8624,1.8676,1.8684,1.8577,1.8531,1.8677,1.8704,1.8764,1.892,1.8953,1.8946,1.8911,1.8798,1.8711,1.8704,1.8464,1.8196,1.8029,1.7889,1.7776,1.7642,1.7615,1.7615,1.7615,1.7615,1.7615,1.7615,1.7615,1.7615,2.8301,2.8301,2.8301,2.8301,2.8301,2.8301,2.8301,2.8301,0.0,0.0,0.0,2.7393,2.7197,2.7084,2.6768,2.6597,2.6475,2.602,2.5825,2.5825,2.5747,2.5708,2.5708,2.5708,2.5708,2.5708,2.5708,2.5708,2.5659,2.4353,2.3026,2.1676,2.0315,1.8935,1.7687,1.7615,1.7374,1.6887,1.6854,1.686,1.6867,1.7127,1.728,1.7273,1.7481,1.7615,1.7615,1.7615,1.7615,1.7602,1.7407,1.7354,1.7582,1.7407,1.738,1.7582,1.7615,1.7615,1.7615,1.7615,1.7615,1.7615,1.7629,1.7642,1.7622,1.7635,1.7662,1.7689,1.7916,1.8096,1.8069,1.8343,1.851,1.8557,1.8571,1.8584,1.8637,1.8644,1.8677,1.8679,1.8705,1.8651,1.8677,1.8705,1.8644,1.8677,1.8871,1.8998,1.8978,1.8824,1.8771,1.8958,1.9005,1.9085,1.9285,1.9361,1.9395,1.9334,1.9138,1.9011,1.8958,1.8758,1.849,1.8269,1.8095,1.7922,1.7722,1.7629,1.7615,1.7615,1.7615,1.7615,1.7615,1.7615,1.7615,2.8301,2.8301,2.8301,2.8301,2.8301,2.8301,2.8301,2.8301,2.8301,2.8262,2.8203,2.8144,2.791,2.7604,2.7562,2.7275,2.6889,2.6494,2.6289,2.6279,2.5884,2.5708,2.5708,2.5708,2.5708,2.5708,2.5708,2.5708,2.5562,2.4344,2.3026,2.1702,2.029,1.8935,1.7714,1.7615,1.7568,1.7481,1.7462,1.7455,1.7488,1.7528,1.7548,1.7548,1.7582,1.7615,1.7615,1.7615,1.7615,1.7608,1.7568,1.7568,1.7608,1.7561,1.7561,1.7608,1.7615,1.7615,1.7615,1.7615,1.7615,1.7628,1.7802,1.7842,1.7615,1.7802,1.7929,1.7935,1.8257,1.8424,1.843,1.8477,1.8624,1.8796,1.8836,1.893,1.9207,1.9241,1.9234,1.9227,1.9267,1.9247,1.9221,1.9227,1.9221,1.9261,1.9247,1.9321,1.9301,1.9301,1.9287,1.9328,1.9334,1.9354,1.9381,1.9395,1.9395,1.9395,1.9354,1.9301,1.9294,1.9045,1.881,1.8763,1.8363,1.8022,1.7936,1.7756,1.7648,1.7615,1.7615,1.7615,1.7615,1.7615,1.7615,2.8769,2.8973,2.873,2.8633,2.8613,2.8389,2.8301,2.8301,2.8301,2.8301,2.8301,2.8301,2.8184,2.8015,2.779,2.7594,2.7344,2.6924,2.6602,2.6412,2.6191,2.5942,2.5718,2.5708,2.5708,2.5708,2.5708,2.5708,2.5635,2.5054,2.4097,2.2717,2.0674,1.9298,1.8681,1.797,1.7615,1.7615,1.7615,1.7615,1.7615,1.7615,1.7615,1.7615,1.7615,1.7615,1.7615,1.7615,1.7615,1.7615,1.7615,1.7615,1.7615,1.7615,1.7615,1.7615,1.7615,1.7615,1.7615,1.7742,1.7809,1.7816,1.8089,1.823,1.809,1.8203,1.8283,1.8297,1.8551,1.8724,1.8731,1.8871,1.9047,1.9152,1.9165,1.9219,1.9361,1.9395,1.9395,1.9395,1.9395,1.9395,1.9395,1.9395,1.9395,1.9395,1.9395,1.9395,1.9395,1.9395,1.9395,1.9395,1.9395,1.9395,1.9395,1.9395,1.9395,1.9395,1.9395,1.9395,1.9395,1.9225,1.9112,1.891,1.8536,1.8229,1.8069,1.7796,1.7655,1.7615,1.7615,1.7615,1.7615,1.7615,1.7615,2.9268,2.9569,2.9209,2.9035,2.9033,2.8721,2.8525,2.8437,2.8437,2.8379,2.8301,2.8301,2.8301,2.8262,2.7976,2.7829,2.777,2.7363,2.7008,2.6715,2.6572,2.6274,2.5893,2.5864,2.5815,2.5718,2.5708,2.5708,2.5659,2.5406,2.4584,2.3126,2.0794,1.9602,1.9557,1.8271,1.7615,1.7615,1.7615,1.7615,1.7615,1.7615,1.7615,1.7615,1.7615,1.7615,1.7615,1.7615,1.7615,1.7615,1.7615,1.7615,1.7615,1.7615,1.7615,1.7615,1.7615,1.7615,1.7702,1.7949,1.8116,1.8095,1.8424,1.8591,1.8591,1.8679,1.8679,1.8637,1.8851,1.8996,1.9045,1.9241,1.9395,1.9395,1.9395,1.9388,1.9395,1.9395,1.9395,1.9395,1.9395,1.9395,1.9395,1.9395,1.9395,1.9395,1.9395,1.9395,1.9395,1.9395,1.9395,1.9395,1.9395,1.9395,1.9395,1.9395,1.9395,1.9395,1.9395,1.9395,1.9388,1.9395,1.9321,1.9052,1.8724,1.843,1.8143,1.7836,1.7655,1.7615,1.7615,1.7615,1.7615,1.7615,1.7615,2.9569,2.9588,2.9559,2.954,2.952,2.9471,2.9209,2.8887,2.883,2.8643,2.833,2.8301,2.8301,2.8291,2.8242,2.8223,2.821,2.7819,2.7604,2.7497,2.7139,2.6738,2.6348,2.6353,2.6123,2.5767,2.5703,2.5737,2.5635,2.4559,2.3285,2.1879,2.0333,1.9672,1.9472,1.833,1.7635,1.7615,1.7615,1.7615,1.7615,1.7615,1.7615,1.7615,1.7615,1.7615,1.7615,1.7615,1.7615,1.7615,1.7615,1.7615,1.7615,1.7615,1.7615,1.7622,1.7622,1.7702,1.7962,1.8283,1.845,1.847,1.8689,1.8856,1.8863,1.9125,1.9165,1.8998,1.918,1.9328,1.9354,1.9381,1.9395,1.9395,1.9395,1.9395,1.9395,1.9395,1.9395,1.9395,1.9395,1.9395,1.9395,1.9395,1.9395,1.9395,1.9395,1.9395,1.9395,1.9395,1.9395,1.9395,1.9395,1.9395,1.9395,1.9395,1.9395,1.9395,1.9395,1.9395,1.9395,1.9395,1.9368,1.9261,1.8831,1.8484,1.833,1.8036,1.7628,1.7615,1.7615,1.7615,1.7615,1.7615,1.7615,3.0136,3.0322,3.0049,2.9813,2.9618,2.9608,2.9473,2.9307,2.9324,2.9062,2.8691,2.8662,2.8525,2.8301,2.8301,2.8301,2.8281,2.8142,2.7917,2.7692,2.7497,2.7168,2.6797,2.6758,2.6533,2.6118,2.6113,2.5962,2.565,2.5152,2.4609,2.3973,2.2692,2.1634,2.0812,1.9472,1.8408,1.7641,1.7615,1.7615,1.7615,1.7615,1.7615,1.7615,1.7615,1.7615,1.7615,1.7615,1.7615,1.7615,1.7615,1.7615,1.7615,1.7756,1.7856,1.7842,1.8023,1.817,1.8303,1.8556,1.8716,1.8751,1.9018,1.9185,1.9192,1.9299,1.9334,1.9261,1.9328,1.9395,1.9395,1.9395,1.9395,1.9395,1.9395,1.9395,1.9395,1.9395,1.9395,1.9395,1.9395,1.9395,1.9395,1.9395,1.9395,1.9395,1.9395,1.9395,1.9395,1.9395,1.9395,1.9395,1.9395,1.9395,1.9395,1.9395,1.9395,1.9395,1.9395,1.9395,1.9395,1.9395,1.9395,1.9395,1.8893,1.8524,1.8484,1.8043,1.7615,1.7615,1.7615,1.7615,1.7615,1.7615,1.7615,3.0576,3.084,3.0527,3.0215,2.997,2.996,2.9882,2.9774,2.9774,2.9492,2.9101,2.8975,2.8723,2.8476,2.835,2.8301,2.8301,2.8301,2.8135,2.7878,2.7868,2.7643,2.7226,2.7187,2.6963,2.6621,2.6562,2.6338,2.5913,2.5723,2.5708,2.5504,2.4353,2.3026,2.1693,2.0282,1.8959,1.7835,1.7709,1.7742,1.7849,1.7829,1.7756,1.7635,1.7662,1.7716,1.7709,1.7782,1.7856,1.7856,1.7856,1.7856,1.7842,1.8022,1.8115,1.8169,1.845,1.8611,1.8611,1.8878,1.9052,1.9065,1.9259,1.9395,1.9395,1.9395,1.9395,1.9388,1.9395,1.9395,1.9395,1.9395,1.9395,1.9395,1.9395,1.9395,1.9395,1.9395,1.9395,1.9395,1.9395,1.9395,1.9395,1.9395,1.9395,1.9395,1.9395,1.9395,1.9395,1.9395,1.9395,1.9395,1.9395,1.9395,1.9395,1.9395,1.9395,1.9395,1.9395,1.9395,1.9395,1.9395,1.9395,1.9341,1.8824,1.8517,1.8444,1.8029,1.7615,1.7615,1.7615,1.7615,1.7615,1.7615,1.7615,3.0869,3.0889,3.0898,3.082,3.081,3.0801,3.0566,3.0176,3.0176,2.9941,2.954,2.9141,2.8916,2.884,2.8506,2.8301,2.8301,2.8301,2.8271,2.8223,2.8242,2.8037,2.7673,2.7653,2.7438,2.7012,2.6992,2.6777,2.6357,2.5967,2.5708,2.563,2.4535,2.3136,2.1895,2.0634,1.9134,1.8286,1.8151,1.815,1.8384,1.8424,1.8143,1.7716,1.7842,1.7996,1.8029,1.829,1.843,1.8437,1.841,1.8424,1.8437,1.8485,1.847,1.8517,1.8744,1.8876,1.891,1.9165,1.9354,1.9368,1.9368,1.9395,1.9395,1.9395,1.9395,1.9395,1.9395,1.9395,1.9395,1.9395,1.9395,1.9395,1.9395,1.9395,1.9395,1.9395,1.9395,1.9395,1.9395,1.9395,1.9395,1.9395,1.9395,1.9395,1.9395,1.9395,1.9395,1.9395,1.9395,1.9395,1.9395,1.9395,1.9395,1.9395,1.9395,1.9395,1.9395,1.9395,1.9395,1.9395,1.9395,1.9274,1.8833,1.8517,1.839,1.8116,1.7742,1.7615,1.7615,1.7615,1.7615,1.7615,1.7615,3.0928,3.0928,3.0928,3.0928,3.0928,3.0928,3.082,3.0644,3.0644,3.0381,3.0,2.9805,2.959,2.9307,2.8887,2.8545,2.831,2.8301,2.8301,2.8301,2.8301,2.8213,2.8112,2.8093,2.7868,2.749,2.7432,2.7207,2.6826,2.6621,2.6528,2.6477,2.6081,2.5122,2.3943,2.3315,2.1998,1.9942,1.972,1.9336,1.8574,1.8497,1.8377,1.8217,1.827,1.8303,1.833,1.8437,1.8497,1.8497,1.8497,1.8497,1.851,1.8671,1.8858,1.9067,1.918,1.9234,1.9247,1.9334,1.9395,1.9395,1.9395,1.9395,1.9395,1.9395,1.9395,1.9395,1.9395,1.9395,1.9395,1.9395,1.9395,1.9395,1.9395,1.9395,1.9395,1.9395,1.9395,1.9395,1.9395,1.9395,1.9395,1.9395,1.9395,1.9395,1.9395,1.9395,1.9395,1.9395,1.9395,1.9395,1.9395,1.9395,1.9395,1.9395,1.9395,1.9395,1.9395,1.9395,1.9395,1.9368,1.9354,1.9098,1.8718,1.8384,1.8217,1.7956,1.7642,1.7615,1.7615,1.7615,1.7615,1.7615,1.7615,3.0928,3.0928,3.0928,3.0928,3.0928,3.0928,3.0928,3.0928,3.0918,3.0703,3.0439,3.0264,3.0029,2.9755,2.9326,2.8994,2.8709,2.8437,2.8301,2.8301,2.8301,2.8301,2.8301,2.8301,2.8144,2.7897,2.7741,2.7526,2.7236,2.708,2.7012,2.7002,2.7012,2.6343,2.5159,2.4525,2.3048,2.1162,2.0387,1.9632,1.8863,1.8799,1.8771,1.8799,1.8778,1.8718,1.8637,1.8718,1.8771,1.8799,1.8799,1.8806,1.8798,1.8965,1.9152,1.9368,1.9395,1.9395,1.9395,1.9395,1.9395,1.9395,1.9395,1.9395,1.9395,1.9395,1.9395,1.9395,1.9395,1.9395,1.9395,1.9395,1.9395,1.9395,1.9395,1.9395,1.9395,1.9395,1.9395,1.9395,1.9395,1.9395,1.9395,1.9395,1.9395,1.9395,1.9395,1.9395,1.9395,1.9395,1.9395,1.9395,1.9395,1.9395,1.9395,1.9388,1.9374,1.9374,1.9354,1.9368,1.9308,1.9287,1.9145,1.8911,1.8589,1.8249,1.7983,1.7736,1.7635,1.7622,1.7615,1.7615,1.7615,1.7615,1.7615,3.0928,3.0928,3.0928,3.0976,3.1083,3.0947,3.0928,3.1083,3.0947,3.0888,3.0752,3.042,3.0282,3.0117,2.9784,2.9588,2.9422,2.8769,2.8408,2.8359,2.831,2.8301,2.8301,2.8301,2.8291,2.8213,2.7897,2.7721,2.7682,2.7334,2.7148,2.708,2.7113,2.6618,2.5127,2.4122,2.2622,2.1487,2.0341,1.9437,1.9377,1.9379,1.9308,1.9334,1.9334,1.9178,1.891,1.9178,1.9321,1.9334,1.9348,1.9381,1.9321,1.9348,1.9381,1.9388,1.9395,1.9395,1.9395,1.9395,1.9395,1.9395,1.9395,1.9395,1.9395,1.9395,1.9395,1.9395,1.9395,1.9395,1.9395,1.9395,1.9395,1.9395,1.9395,1.9395,1.9395,1.9395,1.9395,1.9395,1.9395,1.9395,1.9395,1.9395,1.9395,1.9395,1.9395,1.9395,1.9395,1.9395,1.9395,1.9368,1.9314,1.9267,1.9328,1.9381,1.9361,1.9341,1.9314,1.9259,1.9134,1.9032,1.8871,1.8623,1.8269,1.7963,1.7829,1.7648,1.7642,1.7615,1.7615,1.7615,1.7615,1.7615,1.7615,3.0928,3.0928,3.0928,3.1517,3.2207,3.1325,3.1441,3.2236,3.1383,3.0928,3.0898,3.0742,3.0684,3.0566,3.0205,3.0,2.9979,2.9442,2.9051,2.873,2.8447,2.8301,2.8301,2.8301,2.8301,2.8281,2.8164,2.8096,2.8083,2.7939,2.7891,2.79,2.7881,2.7696,2.7189,2.6739,2.5901,2.4532,2.3046,2.1884,2.0923,1.9895,1.9424,1.9395,1.9395,1.9348,1.9267,1.9354,1.9395,1.9395,1.9395,1.9395,1.9395,1.9395,1.9395,1.9395,1.9395,1.9395,1.9395,1.9395,1.9395,1.9395,1.9395,1.9395,1.9395,1.9395,1.9395,1.9395,1.9395,1.9395,1.9395,1.9395,1.9482,1.9424,1.9395,1.9482,1.9533,1.9424,1.9395,1.9395,1.9395,1.9395,1.9395,1.9395,1.9395,1.9388,1.9388,1.9374,1.941,1.9341,1.9287,1.9118,1.9085,1.9011,1.8965,1.896,1.8933,1.8973,1.8985,1.9025,1.8898,1.8731,1.8577,1.8343,1.7989,1.7782,1.7668,1.7615,1.7615,1.7615,1.7615,1.7615,1.7615,1.7615,1.7615,3.171,3.1757,3.2303,3.3031,3.38,3.2871,3.2701,3.2964,3.215,3.1441,3.1005,3.0918,3.0928,3.083,3.0576,3.0459,3.041,3.0028,2.9658,2.9316,2.876,2.8457,2.832,2.8301,2.8301,2.8301,2.8291,2.8301,2.8301,2.8301,2.8291,2.8291,2.8301,2.8254,2.8211,2.7709,2.6943,2.5909,2.398,2.254,2.15,2.0141,1.9395,1.9395,1.9395,1.9395,1.9395,1.9395,1.9395,1.9395,1.9395,1.9395,1.9395,1.9395,1.9395,1.9395,1.9395,1.9395,1.9395,1.9395,1.9395,1.9395,1.9395,1.9395,1.9395,1.9395,1.9395,1.9395,1.9395,1.9395,1.9453,1.9982,2.0177,2.0227,2.0285,2.0199,2.0177,1.97,1.9424,1.9395,1.9395,1.9395,1.9395,1.9395,1.9395,1.9388,1.9301,1.9234,1.9207,1.9092,1.8938,1.8818,1.8784,1.8684,1.8557,1.8504,1.8464,1.8524,1.8604,1.8657,1.8637,1.843,1.8223,1.8029,1.7716,1.7702,1.7615,1.7615,1.7615,1.7615,1.7615,1.7615,1.7615,1.7615,1.7615,3.3219,3.3417,3.4692,3.5206,3.5371,3.5123,3.4487,3.3603,3.3275,3.2454,3.1363,3.1247,3.1054,3.0947,3.083,3.0849,3.083,3.0449,3.0176,2.9922,2.9357,2.8848,2.8447,2.834,2.8301,2.8301,2.8301,2.8301,2.8301,2.8301,2.8301,2.8301,2.8301,2.8301,2.8094,2.6933,2.6517,2.6127,2.3479,2.2004,2.1756,2.0177,1.9395,1.9395,1.9395,1.9395,1.9395,1.9395,1.9395,1.9395,1.9395,1.9395,1.9395,1.9395,1.9395,1.9395,1.9395,1.9395,1.9395,1.9395,1.9395,1.9395,1.9395,1.9395,1.9395,1.9395,1.9395,1.9395,1.9395,1.9395,1.9649,2.0594,2.1422,2.1862,2.1614,2.1394,2.128,2.0119,1.9504,1.9395,1.9395,1.9395,1.9388,1.9374,1.9334,1.9287,1.9078,1.8931,1.8871,1.8764,1.8578,1.8484,1.847,1.8343,1.8217,1.8156,1.8116,1.8116,1.819,1.8243,1.829,1.8116,1.7976,1.7749,1.7622,1.7622,1.7615,1.7615,1.7615,1.7615,1.7615,1.7615,1.7615,1.7615,1.7615,3.4709,3.4764,3.5162,3.5918,3.6676,3.5809,3.5781,3.6135,3.5112,3.3884,3.2758,3.253,3.193,3.0976,3.0947,3.0928,3.0879,3.0752,3.0488,3.0205,3.0,2.9424,2.8799,2.8428,2.831,2.832,2.831,2.8301,2.8301,2.8301,2.8301,2.8301,2.8301,2.8301,2.8147,2.7843,2.7736,2.7313,2.4737,2.3179,2.2766,2.0623,1.9453,1.9395,1.9395,1.9395,1.9395,1.9395,1.9395,1.9395,1.9395,1.9395,1.9395,1.9395,1.9395,1.9395,1.9395,1.9395,1.9395,1.9395,1.9395,1.9395,1.9395,1.9395,1.9395,1.9395,1.9395,1.9395,1.9395,1.9475,1.97,2.0866,2.2448,2.4239,2.3003,2.1365,2.0457,1.97,1.9395,1.9395,1.9395,1.9374,1.9334,1.9172,1.9052,1.8998,1.8811,1.8597,1.8571,1.8497,1.8323,1.8169,1.8109,1.8003,1.7889,1.7822,1.7776,1.7762,1.7789,1.7822,1.7856,1.7802,1.7729,1.7622,1.7628,1.7615,1.7615,1.7615,1.7615,1.7615,1.7615,1.7615,1.7615,1.7615,1.7615,3.6244,3.6271,3.6888,3.7648,3.8307,3.7489,3.7317,3.7305,3.6622,3.5398,3.4264,3.4024,3.3191,3.1901,3.1825,3.1441,3.0976,3.0928,3.0742,3.0508,3.0264,2.9805,2.9219,2.876,2.8555,2.8525,2.8379,2.8301,2.8301,2.8301,2.8301,2.8301,2.8301,2.8301,2.8301,2.8301,2.8291,2.7736,2.5407,2.3794,2.3571,2.0931,1.962,1.9395,1.9395,1.9395,1.9395,1.9395,1.9395,1.9395,1.9395,1.9395,1.9395,1.9395,1.9395,1.9395,1.9395,1.9395,1.9395,1.9395,1.9395,1.9395,1.9395,1.9758,2.0206,2.0342,2.0422,2.1266,2.0709,2.0702,2.138,2.2589,2.4175,2.5352,2.3953,2.2209,2.1287,2.0206,1.9533,1.9374,1.9294,1.9178,1.9207,1.8918,1.8784,1.8691,1.8456,1.8336,1.8263,1.8203,1.811,1.7949,1.7862,1.7796,1.7776,1.7729,1.7709,1.7648,1.7635,1.7615,1.7615,1.7615,1.7615,1.7615,1.7615,1.7615,1.7615,1.7615,1.7615,1.7615,1.7615,1.7615,1.7615,1.7615,1.7615,3.791,3.799,3.9303,3.9873,3.9846,3.9758,3.8965,3.7998,3.7805,3.6892,3.5754,3.5535,3.4487,3.3134,3.2804,3.2254,3.0918,3.0928,3.0918,3.0752,3.0498,3.0126,2.9813,2.9228,2.9014,2.8926,2.8564,2.8428,2.8398,2.8359,2.8301,2.8301,2.8301,2.8301,2.8301,2.8291,2.8211,2.7447,2.5215,2.3618,2.2983,2.0823,1.9511,1.9395,1.9395,1.9395,1.9395,1.9395,1.9395,1.9395,1.9395,1.9395,1.9395,1.9395,1.9395,1.9395,1.9395,1.9395,1.9482,1.962,1.9729,1.9844,1.9953,2.0342,2.1536,2.1841,2.223,2.3159,2.254,2.2456,2.3263,2.4875,2.5288,2.5462,2.4452,2.4119,2.3243,2.1137,1.9354,1.9328,1.9052,1.8905,1.8776,1.8644,1.8437,1.8417,1.8176,1.8016,1.7942,1.7896,1.7809,1.7716,1.7655,1.7648,1.7635,1.7628,1.7635,1.7615,1.7622,1.7615,1.7615,1.7615,1.7615,1.7615,1.7615,1.7615,1.7615,1.7615,1.7615,1.7615,1.7615,1.7615,1.7615,1.7615,1.7615,4.0471,4.0511,4.0805,4.0964,4.0888,4.0512,4.0141,3.9801,3.938,3.8344,3.7252,3.7011,3.5497,3.3162,3.3106,3.2283,3.1025,3.0928,3.0928,3.0879,3.081,3.0713,3.0458,2.9834,2.9491,2.9364,2.8994,2.8799,2.8713,2.8496,2.8301,2.832,2.831,2.8301,2.8301,2.8264,2.7672,2.649,2.471,2.3263,2.206,2.0515,1.9395,1.9395,1.9395,1.9395,1.9395,1.9395,1.9395,1.9395,1.9395,1.9395,1.9395,1.9395,1.9395,1.9395,1.9395,1.9395,1.9562,2.0285,2.108,2.1031,2.1764,2.2983,2.3207,2.3347,2.3487,2.3802,2.3523,2.3571,2.3961,2.4128,2.4693,2.4896,2.5135,2.4875,2.3318,2.087,1.9487,1.9072,1.8877,1.8584,1.8598,1.8289,1.8143,1.8083,1.7956,1.7736,1.7669,1.7629,1.7635,1.7615,1.7615,1.7615,1.7615,1.7615,1.7615,1.7615,1.7615,1.7615,1.7615,1.7615,1.7615,1.7615,1.7615,1.7615,1.7615,1.7615,1.7615,1.7615,1.7615,1.7615,1.7615,1.7615,1.7615,4.1302,4.1302,4.1302,4.1302,4.1265,4.1001,4.0888,4.0763,4.0312,3.9657,3.8796,3.8007,3.6232,3.4125,3.3388,3.2283,3.1199,3.0928,3.0928,3.0889,3.0908,3.0918,3.085,3.0449,3.0126,2.9882,2.9461,2.9248,2.9111,2.8828,2.8576,2.8555,2.8408,2.8301,2.8301,2.8264,2.7501,2.6155,2.4563,2.3067,2.1614,2.0206,1.9395,1.9395,1.9395,1.9395,1.9395,1.9395,1.9395,1.9395,1.9395,1.9395,1.9395,1.9395,1.9395,1.9395,1.9395,1.9395,1.9707,2.009,2.0816,2.1607,2.2399,2.3543,2.4405,2.4875,2.5297,2.5553,2.538,2.4875,2.4931,2.5717,2.5755,2.5613,2.564,2.5218,2.3936,2.2123,2.0492,1.9931,1.9503,1.8912,1.853,1.8144,1.7896,1.7862,1.7829,1.7662,1.7662,1.7628,1.7628,1.7615,1.7615,1.7615,1.7615,1.7615,1.7615,1.7615,1.7615,1.7615,1.7615,1.7615,1.7615,1.7615,1.7615,1.7615,1.7615,1.7615,1.7615,1.7615,1.7615,1.7615,1.7615,1.7615,1.7615,4.1566,4.1566,4.1553,4.1566,4.1553,4.1478,4.1428,4.1352,4.0851,4.0497,4.0215,3.8625,3.7152,3.5272,3.408,3.2587,3.1276,3.0928,3.0928,3.0928,3.0928,3.0928,3.0859,3.08,3.0634,3.0273,2.9863,2.9678,2.9551,2.9248,2.9033,2.8945,2.8594,2.8476,2.8418,2.822,2.734,2.5599,2.4369,2.2786,2.1309,1.9953,1.9482,1.9395,1.9395,1.9395,1.9395,1.9395,1.9395,1.9395,1.9395,1.9395,1.9395,1.9395,1.9395,1.9395,1.9395,1.9395,1.962,2.0097,2.1016,2.1898,2.2702,2.3897,2.5827,2.6463,2.6888,2.7078,2.6852,2.5709,2.5882,2.638,2.677,2.6439,2.5592,2.5452,2.4736,2.397,2.2835,2.0643,1.9796,1.9168,1.8565,1.8102,1.7854,1.7661,1.7641,1.7615,1.7615,1.7615,1.7615,1.7615,1.7615,1.7615,1.7615,1.7615,1.7615,1.7615,1.7615,1.7615,1.7615,1.7615,1.7615,1.7615,1.7615,1.7615,1.7615,1.7615,1.7615,1.7615,1.7615,1.7615,1.7615,1.7615,1.745,4.2738,4.2738,4.271,4.2698,4.2622,4.2248,4.2034,4.1946,4.1415,4.0926,4.0484,4.0045,3.7992,3.5868,3.5123,3.3427,3.1363,3.0928,3.0928,3.0928,3.0928,3.0928,3.0928,3.0918,3.0849,3.0713,3.0332,3.0107,3.0028,2.9715,2.9482,2.9393,2.8984,2.8752,2.8672,2.8325,2.6916,2.4848,2.3961,2.2597,2.0429,1.9671,1.9395,1.9395,1.9395,1.9395,1.9395,1.9395,1.9395,1.9395,1.9395,1.9395,1.9395,1.9395,1.9395,1.9395,1.9395,1.9424,1.9786,2.1601,2.2794,2.3941,2.5215,2.6689,2.7636,2.7833,2.7897,2.7736,2.7051,2.5736,2.4341,2.5775,2.4626,2.3834,2.4888,2.5933,2.4966,2.4595,2.3971,2.1317,2.0241,1.939,1.8795,1.8269,1.7984,1.7766,1.7615,1.7615,1.7615,1.7615,1.7615,1.7615,1.7615,1.7615,1.7615,1.7615,1.7615,1.7615,1.7615,1.7615,1.7615,1.7615,1.7615,1.7615,1.7615,1.7615,1.7615,1.7615,1.7615,1.7615,1.7615,1.7589,1.7364,1.712,1.6611,4.3014,4.3014,4.3014,4.3014,4.2964,4.2738,4.26,4.2524,4.2034,4.1618,4.1014,3.9939,3.8061,3.5924,3.448,3.29,3.1383,3.0928,3.0928,3.0928,3.0928,3.0928,3.0928,3.0928,3.0928,3.0859,3.0654,3.0537,3.0518,3.0136,2.9922,2.9726,2.9268,2.8898,2.8801,2.8442,2.6618,2.4488,2.3654,2.2379,1.9707,1.9424,1.9424,1.9395,1.9424,1.9395,1.9395,1.9395,1.9395,1.9395,1.9395,1.9395,1.9395,1.9395,1.9395,1.9395,1.9453,1.9809,2.0393,2.2125,2.3095,2.4931,2.6527,2.7474,2.8067,2.8237,2.8301,2.813,2.7933,2.697,2.6381,2.6364,2.5671,2.4836,2.5692,2.5856,2.5298,2.512,2.3781,2.2067,2.1381,2.0439,1.9075,1.8598,1.8199,1.7917,1.7714,1.7635,1.7661,1.7615,1.7615,1.7615,1.7615,1.7615,1.7615,1.7615,1.7615,1.7615,1.7615,1.7615,1.7615,1.7615,1.7615,1.7615,1.7615,1.7615,1.7615,1.7615,1.7615,1.7589,1.7477,1.7312,1.6929,1.6525,1.5908,4.3014,4.3014,4.3014,4.3014,4.3014,4.3014,4.3002,4.2914,4.2537,4.2288,4.191,4.0095,3.8147,3.5899,3.3785,3.1959,3.0918,3.0928,3.0928,3.0928,3.0928,3.0928,3.0928,3.0928,3.0928,3.0918,3.0888,3.0928,3.0791,3.0508,3.0361,3.0156,2.9541,2.9084,2.9023,2.8701,2.6546,2.4746,2.3738,2.2266,2.0155,1.9678,1.9649,1.954,1.9642,1.9815,1.9453,1.9395,1.9395,1.9395,1.9395,1.9395,1.9395,1.9395,1.9395,1.9453,1.9649,2.0501,2.1309,2.2645,2.4036,2.5672,2.6327,2.7222,2.7843,2.8301,2.8301,2.8301,2.8211,2.7793,2.7105,2.7482,2.6936,2.6231,2.5882,2.6068,2.5531,2.517,2.4801,2.3555,2.2717,2.16,2.029,2.0341,2.0256,1.8786,1.8506,1.7891,1.7865,1.7635,1.7615,1.7615,1.7615,1.7615,1.7615,1.7615,1.7615,1.7615,1.7615,1.7615,1.7615,1.7615,1.7615,1.7615,1.7615,1.7615,1.7615,1.7589,1.7615,1.7529,1.7338,1.6935,1.634,1.553,1.4776,4.3014,4.3014,4.3014,4.3014,4.3014,4.3014,4.3014,4.2989,4.2805,4.2612,4.2043,4.1509,3.9225,3.5921,3.2613,3.1209,3.0947,3.0928,3.0928,3.0928,3.0928,3.0928,3.0928,3.0928,3.0928,3.0928,3.0928,3.0928,3.0898,3.0791,3.0771,3.0654,3.0215,2.9844,2.9375,2.8965,2.7077,2.4464,2.385,2.2428,2.0314,2.0702,2.0479,2.0177,2.0314,2.0479,1.9533,1.9395,1.9395,1.9395,1.9395,1.9395,1.9395,1.9395,1.9395,1.9786,2.0479,2.1415,2.206,2.3758,2.5288,2.6381,2.7087,2.7924,2.7816,2.796,2.804,2.8301,2.8291,2.7706,2.685,2.6747,2.6052,2.5724,2.5588,2.5673,2.5489,2.543,2.503,2.4609,2.3658,2.2742,2.1659,2.2114,2.229,2.0615,1.9195,1.8525,1.7989,1.774,1.7615,1.7615,1.7615,1.7615,1.7615,1.7615,1.7615,1.7615,1.7615,1.7615,1.7615,1.7615,1.7615,1.7615,1.7615,1.7397,1.7127,1.718,1.745,1.7094,1.6366,1.5935,1.5583,1.4695,1.3755,4.3014,4.3014,4.3014,4.3014,4.3014,4.3014,4.3014,4.2793,4.2012,4.1537,4.1043,3.9898,3.7679,3.4676,3.1968,3.0957,3.0928,3.0928,3.0928,3.0928,3.0928,3.0928,3.0928,3.0928,3.0928,3.0928,3.0928,3.0928,3.0928,3.0928,3.0928,3.0849,3.0439,2.9951,2.9608,2.9141,2.749,2.5568,2.4267,2.3207,2.2181,2.1671,2.1309,2.0616,2.0537,2.0061,1.962,1.9395,1.9395,1.9395,1.9395,1.9395,1.9395,1.9482,1.9707,2.0809,2.204,2.2786,2.3151,2.4986,2.6209,2.6888,2.7141,2.6517,2.6218,2.6635,2.7105,2.7024,2.7833,2.7595,2.6823,2.6895,2.6369,2.5861,2.5288,2.5041,2.5177,2.5562,2.5416,2.5045,2.4584,2.3617,2.2466,2.176,2.1634,2.0615,1.9213,1.8349,1.7937,1.7687,1.7615,1.7615,1.7615,1.7615,1.7615,1.7615,1.7615,1.7615,1.7615,1.7615,1.7615,1.7615,1.7615,1.7582,1.7556,1.7232,1.6691,1.6419,1.6419,1.5849,1.5177,1.4502,1.3884,1.3944,1.2918,4.3014,4.3014,4.3014,4.3014,4.3014,4.3014,4.3014,4.2834,4.1842,4.1035,3.9929,3.8,3.5631,3.3801,3.2011,3.0928,3.0928,3.0928,3.0928,3.0928,3.0928,3.0928,3.0928,3.0928,3.0928,3.0928,3.0928,3.0928,3.0928,3.0928,3.0928,3.0908,3.0605,3.0098,2.9647,2.9175,2.8026,2.6027,2.4488,2.3543,2.2898,2.2484,2.1764,2.1038,2.0371,1.9786,1.9453,1.9395,1.9395,1.9395,1.9395,1.9395,1.9395,1.9453,1.9758,2.0895,2.2322,2.3571,2.4175,2.548,2.6825,2.6997,2.6445,2.5132,2.4488,2.5151,2.6118,2.6291,2.7555,2.7716,2.7265,2.6824,2.6298,2.5666,2.5133,2.4708,2.4378,2.4667,2.4849,2.451,2.4196,2.4279,2.3001,2.138,2.0615,2.0205,1.931,1.8316,1.7865,1.7641,1.7615,1.7615,1.7615,1.7615,1.7615,1.7615,1.7615,1.7615,1.7615,1.7615,1.7615,1.7615,1.7615,1.7582,1.7364,1.6711,1.5988,1.5636,1.523,1.4556,1.3804,1.2642,1.2105,1.2267,1.2,4.3014,4.3014,4.3014,4.3014,4.3014,4.3014,4.3014,4.2974,4.2709,4.1488,3.9442,3.6641,3.4572,3.3758,3.2034,3.0928,3.0928,3.0928,3.0928,3.0928,3.0928,3.0928,3.0928,3.0928,3.0928,3.0928,3.0928,3.0928,3.0928,3.0928,3.0928,3.0898,3.0762,3.0302,2.9774,2.9269,2.832,2.6555,2.5105,2.3646,2.3123,2.2702,2.2322,2.0537,2.0673,2.0838,1.9533,1.9395,1.9395,1.9395,1.9395,1.9395,1.9395,1.9395,1.97,2.0623,2.2209,2.3375,2.4183,2.5854,2.6916,2.6218,2.4939,2.3877,2.3515,2.5022,2.5845,2.5845,2.6771,2.6827,2.6297,2.5891,2.5421,2.4892,2.4229,2.3762,2.3484,2.3608,2.3741,2.3716,2.3592,2.3384,2.3151,2.1423,2.1143,2.0837,1.962,1.8596,1.7891,1.7615,1.7615,1.7615,1.7615,1.7615,1.7615,1.7615,1.7615,1.7615,1.7615,1.7615,1.7615,1.7615,1.7615,1.6962,1.6578,1.5929,1.5204,1.4475,1.3804,1.3237,1.2403,1.1269,1.0594,1.0648,1.0296,4.3014,4.3014,4.3014,4.3014,4.3014,4.3014,4.3014,4.2625,4.0921,3.8539,3.619,3.4063,3.3075,3.2665,3.182,3.0928,3.0928,3.0928,3.0928,3.0928,3.0928,3.0928,3.0928,3.0928,3.0928,3.0928,3.0928,3.0928,3.0928,3.0928,3.0928,3.0928,3.0928,3.0361,2.9794,2.9139,2.8234,2.7727,2.6753,2.58,2.4627,2.3654,2.2822,2.1145,1.9946,2.0061,1.9453,1.9424,1.9395,1.9395,1.9395,1.9395,1.9395,1.9395,1.9786,2.0393,2.1947,2.2786,2.3794,2.5434,2.5791,2.3758,2.2758,2.2428,2.2456,2.3123,2.3869,2.4461,2.5288,2.5262,2.5289,2.4576,2.3895,2.3543,2.3101,2.2617,2.2542,2.2592,2.224,2.2038,2.2038,2.2005,2.1777,2.1397,2.1465,2.1491,2.0146,1.8909,1.812,1.7615,1.7615,1.7615,1.7615,1.7615,1.7615,1.7615,1.7615,1.7615,1.7615,1.7615,1.7615,1.7582,1.7424,1.6664,1.5556,1.4609,1.375,1.3021,1.2376,1.1833,1.0945,0.9891,0.943,0.9292,0.913,4.3014,4.3014,4.3014,4.3014,4.3014,4.3014,4.3014,4.2528,4.0204,3.7035,3.3893,3.2807,3.211,3.1787,3.126,3.0928,3.0928,3.0928,3.0928,3.0928,3.0928,3.0928,3.0928,3.0928,3.0928,3.0928,3.0928,3.0928,3.0928,3.0928,3.0928,3.0928,3.0869,3.038,2.9598,2.8797,2.8301,2.8301,2.8184,2.7178,2.5489,2.435,2.2625,2.1095,1.9924,1.9591,1.9424,1.9395,1.9395,1.9395,1.9395,1.9395,1.9395,1.9533,1.9982,2.0666,2.1443,2.2109,2.3123,2.3738,2.3786,2.2279,2.123,2.1038,2.1002,2.1309,2.2476,2.3011,2.3518,2.378,2.3938,2.314,2.2463,2.207,2.1481,2.1075,2.1245,2.1321,2.0717,2.0264,2.0436,2.0769,2.0692,2.0538,2.059,2.071,2.0154,1.8909,1.797,1.7615,1.7615,1.7615,1.7615,1.7615,1.7615,1.7615,1.7615,1.7615,1.7615,1.7615,1.7615,1.745,1.6909,1.5988,1.4776,1.3318,1.2295,1.1542,1.0973,1.0457,0.9726,0.9185,0.913,0.9075,0.902,4.3014,4.3014,4.3014,4.3014,4.3014,4.3014,4.3014,4.2712,4.0889,3.8068,3.4673,3.2943,3.1914,3.1543,3.1103,3.0937,3.0928,3.0928,3.0928,3.0928,3.0928,3.0928,3.0928,3.0928,3.0928,3.0928,3.0928,3.0928,3.0928,3.0928,3.0928,3.084,3.0693,3.037,2.9569,2.8748,2.832,2.8237,2.813,2.6445,2.4405,2.3571,2.2068,2.0378,1.9591,1.9424,1.9395,1.9395,1.9395,1.9395,1.9395,1.9395,1.9395,1.9395,1.9562,1.97,2.0838,2.1443,2.1671,2.1756,2.1586,2.128,2.0371,2.004,1.9982,2.0616,2.1586,2.2117,2.257,2.2387,2.211,2.16,2.1023,2.0711,2.0153,1.9705,1.9878,1.9922,1.9343,1.9065,1.935,1.9627,1.9627,1.9576,1.9576,1.9602,1.9627,1.8968,1.7891,1.7615,1.7615,1.7615,1.7615,1.7615,1.7615,1.7615,1.7615,1.7615,1.7529,1.745,1.7015,1.6499,1.5876,1.5123,1.3723,1.205,1.1,1.0025,0.9809,0.9644,0.9372,0.8964,0.8909,0.8909,0.8909,4.3014,4.3014,4.3014,4.3014,4.3014,4.3014,4.2986,4.2466,3.9874,3.6727,3.3862,3.2182,3.1689,3.1416,3.1123,3.0928,3.0928,3.0928,3.0928,3.0928,3.0928,3.0928,3.0928,3.0928,3.0928,3.0928,3.0928,3.0928,3.0928,3.0928,3.0928,3.0849,3.0371,2.9911,2.9442,2.8698,2.795,2.7024,2.6554,2.5434,2.2786,2.2279,2.1479,1.9504,1.9395,1.9395,1.9395,1.9395,1.9395,1.9395,1.9395,1.9395,1.9395,1.9395,1.9395,1.9395,2.0148,2.0119,2.0148,2.0177,2.0148,1.9982,1.9837,1.9815,2.073,2.0199,2.073,2.1029,2.1018,2.0779,2.0738,1.9711,1.92,1.9628,1.922,1.8558,1.8401,1.8375,1.812,1.8094,1.8271,1.8401,1.8454,1.8689,1.8715,1.8636,1.8636,1.8532,1.7687,1.7615,1.7615,1.7615,1.7615,1.7615,1.7615,1.7615,1.7615,1.7615,1.7364,1.7067,1.6499,1.5604,1.4314,1.3286,1.205,1.0813,1.0053,0.9427,0.9182,0.8937,0.8909,0.8909,0.8909,0.8909,0.8909,4.3014,4.3014,4.3014,4.3014,4.3014,4.3014,4.2413,4.0796,3.7858,3.4919,3.2642,3.1738,3.1396,3.125,3.1045,3.0928,3.0928,3.0928,3.0928,3.0928,3.0928,3.0928,3.0928,3.0928,3.0928,3.0928,3.0928,3.0928,3.0928,3.0928,3.0928,3.0713,3.0029,2.9745,2.9205,2.8298,2.7078,2.6209,2.5654,2.4203,2.2392,2.15,2.0952,1.9837,1.9395,1.9395,1.9395,1.9395,1.9395,1.9395,1.9395,1.9395,1.9395,1.9395,1.9395,1.9395,1.9424,1.9453,1.9511,1.9511,1.9591,1.9504,1.9395,1.9866,2.0558,1.9953,2.0033,2.0057,1.9457,1.9451,1.947,1.8319,1.8311,1.8748,1.848,1.7819,1.774,1.7733,1.7733,1.7661,1.7635,1.7608,1.7615,1.7687,1.7898,1.7793,1.7661,1.7615,1.7615,1.7615,1.7615,1.7615,1.7615,1.7615,1.7615,1.7615,1.7615,1.7615,1.712,1.6525,1.547,1.4443,1.2935,1.1565,1.0672,0.9915,0.9372,0.8909,0.8909,0.8909,0.8909,0.8909,0.8909,0.8909,0.8909,4.3014,4.3014,4.3014,4.2989,4.2964,4.2482,4.0603,3.7585,3.5571,3.3564,3.1543,3.1533,3.1279,3.0976,3.0928,3.0928,3.0928,3.0928,3.0928,3.0928,3.0928,3.0928,3.0928,3.0928,3.0928,3.0928,3.0928,3.0928,3.0928,3.0928,3.0928,3.0635,2.9736,2.9332,2.8575,2.6994,2.5879,2.5232,2.4258,2.287,2.1394,2.1194,2.0508,1.9735,1.9395,1.9395,1.9395,1.9395,1.9395,1.9395,1.9395,1.9395,1.9395,1.9395,1.9395,1.9395,1.9395,1.9395,1.9395,1.9395,1.9395,1.9395,1.9395,1.9453,1.9482,1.9562,1.97,1.9577,1.9152,1.8862,1.8532,1.821,1.7889,1.7947,1.7832,1.7641,1.7641,1.7635,1.7635,1.7615,1.7615,1.7615,1.7615,1.7615,1.7615,1.7615,1.7615,1.7615,1.7615,1.7615,1.7615,1.7615,1.7615,1.7615,1.7615,1.7589,1.7127,1.6962,1.6254,1.5577,1.447,1.3232,1.1887,1.0644,0.9699,0.9103,0.8964,0.8909,0.8909,0.8909,0.8909,0.8909,0.8909,0.8909,0.8909,4.3014,4.3014,4.3014,4.2788,4.2035,3.9344,3.7582,3.6822,3.5929,3.4143,3.1504,3.1191,3.1025,3.0928,3.0928,3.0928,3.0928,3.0928,3.0928,3.0928,3.0928,3.0928,3.0928,3.0928,3.0928,3.0928,3.0928,3.0928,3.0928,3.0928,3.0928,3.0713,2.945,2.8671,2.7231,2.4909,2.4581,2.3983,2.3075,2.1622,2.0594,2.0227,1.9758,1.9562,1.9395,1.9395,1.9395,1.9395,1.9395,1.9395,1.9395,1.9395,1.9395,1.9395,1.9395,1.9395,1.9395,1.9395,1.9395,1.9395,1.9395,1.9395,1.9395,1.9395,1.9424,1.9395,1.9395,1.9261,1.8938,1.8631,1.8384,1.8096,1.7829,1.7669,1.7615,1.7615,1.7615,1.7615,1.7615,1.7615,1.7615,1.7615,1.7615,1.7615,1.7615,1.7615,1.7615,1.7615,1.7615,1.7615,1.7615,1.7615,1.7615,1.7615,1.7556,1.7529,1.6823,1.6227,1.5331,1.4255,1.2881,1.1697,1.0703,0.9943,0.9265,0.902,0.8937,0.8909,0.8909,0.8909,0.8909,0.8909,0.8909,0.8909,0.8909,4.3014,4.2977,4.2776,4.192,4.0361,3.8044,3.6471,3.5354,3.4414,3.2847,3.1358,3.1006,3.0928,3.0928,3.0928,3.0928,3.0928,3.0928,3.0928,3.0928,3.0928,3.0928,3.0928,3.0928,3.0928,3.0928,3.0928,3.0928,3.0928,3.0928,3.0928,3.0781,2.9264,2.8678,2.7654,2.6005,2.4245,2.3243,2.1983,2.045,1.9758,1.9395,1.9395,1.9395,1.9395,1.9395,1.9395,1.9395,1.9395,1.9395,1.9395,1.9395,1.9395,1.9395,1.9395,1.9395,1.9395,1.9395,1.9395,1.9395,1.9395,1.9395,1.9395,1.9395,1.9395,1.9395,1.9395,1.9314,1.8873,1.8457,1.8257,1.8036,1.7822,1.7615,1.7615,1.7615,1.7615,1.7615,1.7615,1.7615,1.7615,1.7615,1.7615,1.7615,1.7615,1.7615,1.7615,1.7615,1.7615,1.7615,1.7615,1.7615,1.7615,1.7615,1.7477,1.7015,1.6148,1.5097,1.3771,1.2642,1.1292,1.0484,0.9809,0.9372,0.902,0.8909,0.8909,0.8909,0.8909,0.8909,0.8909,0.8909,0.8909,0.8909,0.8909,4.2926,4.2864,4.2298,4.0673,3.8484,3.7973,3.6091,3.3098,3.1846,3.0967,3.0947,3.0928,3.0928,3.0928,3.0928,3.0928,3.0928,3.0928,3.0928,3.0928,3.0928,3.0928,3.0928,3.0928,3.0928,3.0928,3.0928,3.0928,3.0928,3.0928,3.0918,3.0859,3.0007,2.9098,2.7795,2.6105,2.4158,2.2299,2.0959,1.9591,1.9533,1.9395,1.9395,1.9395,1.9395,1.9395,1.9395,1.9395,1.9395,1.9395,1.9395,1.9395,1.9395,1.9395,1.9395,1.9395,1.9395,1.9395,1.9395,1.9395,1.9395,1.9395,1.9395,1.9395,1.9395,1.9395,1.9395,1.9287,1.8893,1.8557,1.833,1.7976,1.7689,1.7615,1.7615,1.7615,1.7615,1.7615,1.7615,1.7615,1.7615,1.7615,1.7615,1.7615,1.7615,1.7615,1.7615,1.7615,1.7371,1.7371,1.7312,1.7285,1.7041,1.6849,1.6631,1.6095,1.5204,1.404,1.2615,1.151,1.0484,0.9699,0.8992,0.8909,0.8909,0.8909,0.8909,0.8909,0.8909,0.8909,0.8909,0.8909,0.8909,0.8909,0.8909,4.2374,4.2273,4.1317,3.9878,3.8175,3.6644,3.493,3.2992,3.1517,3.0928,3.0928,3.0928,3.0928,3.0928,3.0928,3.0928,3.0928,3.0928,3.0928,3.0928,3.0928,3.0928,3.0928,3.0928,3.0928,3.0928,3.0928,3.0928,3.0928,3.0928,3.0859,3.0733,2.9743,2.8427,2.6887,2.5127,2.3302,2.1455,2.0486,1.9569,1.9395,1.9395,1.9395,1.9395,1.9395,1.9395,1.9395,1.9395,1.9395,1.9395,1.9395,1.9395,1.9395,1.9395,1.9395,1.9395,1.9395,1.9395,1.9395,1.9395,1.9395,1.9395,1.9395,1.9395,1.9395,1.9395,1.9334,1.9194,1.898,1.8671,1.8364,1.7963,1.7615,1.7615,1.7615,1.7615,1.7615,1.7615,1.7615,1.7615,1.7615,1.7615,1.7615,1.7615,1.7615,1.7615,1.7615,1.7477,1.6909,1.6717,1.6499,1.6393,1.6009,1.5796,1.5604,1.4904,1.3857,1.2913,1.1592,1.0566,0.9699,0.9289,0.8909,0.8909,0.8909,0.8909,0.8909,0.8909,0.8909,0.8909,0.8909,0.8909,0.8909,0.8909,0.8909,4.1794,4.1614,4.016,3.8536,3.6827,3.5069,3.3501,3.2131,3.1257,3.0928,3.0928,3.0928,3.0928,3.0928,3.0928,3.0928,3.0928,3.0928,3.0928,3.0928,3.0928,3.0928,3.0928,3.0928,3.0928,3.0928,3.0928,3.0928,3.0928,3.0928,3.0859,3.0548,2.914,2.7609,2.5988,2.4458,2.2525,2.0771,2.0318,1.9938,1.954,1.9395,1.9395,1.9395,1.9395,1.9395,1.9395,1.9395,1.9395,1.9395,1.9395,1.9395,1.9395,1.9395,1.9395,1.9395,1.9395,1.9395,1.9395,1.9395,1.9395,1.9395,1.9395,1.9395,1.9395,1.9395,1.9395,1.9234,1.8833,1.851,1.833,1.7969,1.7715,1.7615,1.7615,1.7615,1.7615,1.7615,1.7615,1.7615,1.7615,1.7615,1.7615,1.7615,1.7556,1.7338,1.7364,1.6638,1.6174,1.5503,1.5423,1.5177,1.4609,1.4475,1.4341,1.3453,1.2295,1.1351,1.0566,0.9915,0.9265,0.9099,0.8909,0.8909,0.8909,0.8909,0.8909,0.8909,0.8909,0.8909,0.8909,0.8909,0.8909,0.8909,0.8909,4.1152,4.0827,3.9008,3.7084,3.5223,3.3744,3.234,3.1112,3.0928,3.0928,3.0928,3.0928,3.0928,3.0928,3.0928,3.0928,3.0928,3.0928,3.0928,3.0928,3.0928,3.0928,3.0928,3.0928,3.0928,3.0928,3.0928,3.0928,3.0928,3.0889,3.0733,3.0362,2.926,2.7944,2.6923,2.5495,2.3299,2.1562,2.0742,2.0391,1.9923,1.9395,1.9395,1.9395,1.9395,1.9395,1.9395,1.9395,1.9395,1.9395,1.9395,1.9395,1.9395,1.9395,1.9395,1.9395,1.9395,1.9395,1.9395,1.9395,1.9395,1.9395,1.9395,1.9395,1.9395,1.9395,1.9395,1.9201,1.8799,1.8464,1.829,1.8009,1.7769,1.7615,1.7615,1.7615,1.7615,1.7615,1.7615,1.7615,1.7615,1.7615,1.7529,1.7529,1.718,1.6982,1.6387,1.5657,1.4877,1.3965,1.3426,1.3075,1.2566,1.2593,1.2864,1.2028,1.0836,1.0457,0.9809,0.9292,0.8909,0.8909,0.8909,0.8909,0.8909,0.8909,0.8909,0.8909,0.8909,0.8909,0.8909,0.8909,0.8909,0.8909,0.8909,4.0374,3.9856,3.8292,3.6731,3.5178,3.3687,3.2254,3.1064,3.0928,3.0928,3.0928,3.0928,3.0928,3.0928,3.0928,3.0928,3.0928,3.0928,3.0928,3.0928,3.0928,3.0928,3.0928,3.0928,3.0928,3.0928,3.0928,3.0928,3.0772,3.0733,3.0177,2.9039,2.8703,2.691,2.4239,2.3187,2.252,2.1129,2.0441,1.9974,1.9754,1.9415,1.9395,1.9395,1.9395,1.9395,1.9395,1.9395,1.9395,1.9395,1.9395,1.9395,1.9395,1.9395,1.9395,1.9395,1.9395,1.9395,1.9395,1.9395,1.9395,1.9395,1.9395,1.9395,1.9395,1.9395,1.9368,1.9308,1.8946,1.8584,1.833,1.7896,1.7622,1.7615,1.7615,1.7615,1.7615,1.7615,1.7615,1.7615,1.7615,1.7477,1.7259,1.6849,1.5988,1.5524,1.4588,1.3911,1.3561,1.2561,1.1565,1.1187,1.0785,1.0891,1.1214,1.0539,0.9616,0.932,0.921,0.902,0.8909,0.8909,0.8909,0.8909,0.8909,0.8909,0.8909,0.8909,0.8909,0.8909,0.8909,0.8909,0.8909,0.8909,0.8909]},{"header":{"parameterUnit":"m.s-1","parameterCategory":1,"la1":31.0,"la2":29.5877,"lo1":-88.7671,"lo2":-86.6584,"dy":0.0162,"dx":0.0185,"nx":115,"ny":88,"refTime":"2023-11-07T06:00:00:Z","depth":0,"parameterNumber":3,"parameterNumberName":"V-component_of_WINDS"},"data":[0.0,0.0,0.0,0.0,0.0,0.0,0.0,0.0,0.0,0.0,0.0,0.0,0.0,0.0,0.0,0.0,0.0,0.0,0.0,0.0,0.0,0.0,0.0,0.0,0.0,0.0,0.0,0.0,0.0,0.0,0.0,0.0,0.0,0.0,0.0,0.0,0.0,0.0,0.0,0.0,0.0,0.0,0.0,0.0,0.0,0.0,0.0,0.0,0.0,0.0,0.0,0.0,0.0,0.0,0.0,0.0,0.0,0.0,0.0,0.0,0.0,0.0,0.0,0.0,0.0,0.0,0.0,0.0,0.0,0.0,0.0,0.0,0.0,0.0,0.0,0.0,0.0,0.0,0.0,0.0,0.0,0.0,0.0,0.0,0.0,0.0,0.0,0.0,0.0,0.0,0.0,0.0,0.0,0.0,0.0,0.0,0.0,0.0,0.0,0.0,0.0,0.0,0.0,0.0,0.0,0.0,0.0,0.0,0.0,0.0,0.0,0.0,0.0,0.0,0.0,0.0,0.0,0.0,0.0,0.0,0.0,0.0,0.0,0.0,0.0,0.0,0.0,0.0,0.0,0.0,0.0,0.0,0.0,0.0,0.0,0.0,0.0,0.0,0.0,0.0,0.0,0.0,0.0,0.0,0.0,0.0,0.0,0.0,0.0,0.0,0.0,0.0,0.0,0.0,0.0,0.0,0.0,0.0,0.0,0.0,0.0,0.0,0.0,0.0,0.0,0.0,0.0,0.0,0.0,0.0,0.0,0.0,0.0,0.0,0.0,0.0,0.0,0.0,0.0,0.0,0.0,0.0,0.0,0.0,0.0,0.0,0.0,0.0,0.0,0.0,0.0,0.0,0.0,0.0,0.0,0.0,0.0,0.0,0.0,0.0,0.0,0.0,0.0,0.0,0.0,0.0,0.0,0.0,0.0,0.0,0.0,0.0,0.0,0.0,0.0,0.0,0.0,0.0,0.0,0.0,0.0,0.0,0.0,0.0,0.0,0.0,0.0,0.0,0.0,0.0,0.0,0.0,0.0,0.0,0.0,0.0,0.0,0.0,0.0,0.0,0.0,0.0,0.0,0.0,0.0,0.0,0.0,0.0,0.0,0.0,0.0,0.0,0.0,0.0,0.0,0.0,0.0,0.0,0.0,0.0,0.0,0.0,0.0,0.0,0.0,0.0,0.0,0.0,0.0,0.0,0.0,0.0,0.0,0.0,0.0,0.0,0.0,0.0,0.0,0.0,0.0,0.0,0.0,0.0,0.0,0.0,0.0,0.0,0.0,0.0,0.0,0.0,0.0,0.0,0.0,0.0,0.0,0.0,0.0,0.0,0.0,0.0,0.0,0.0,0.0,0.0,0.0,0.0,0.0,0.0,0.0,0.0,0.0,0.0,0.0,0.0,0.0,0.0,0.0,0.0,0.0,0.0,0.0,0.0,0.0,0.0,0.0,0.0,0.0,0.0,0.0,0.0,0.0,0.0,0.0,0.0,0.0,0.0,0.0,0.0,0.0,0.0,0.0,0.0,0.0,0.0,0.0,0.0,0.0,0.0,0.0,0.0,0.0,0.0,0.0,0.0,0.0,0.0,0.0,0.0,0.0,0.0,0.0,0.0,0.0,0.0,0.0,0.0,0.0,0.0,0.0,0.0,0.0,0.0,0.0,0.0,0.0,0.0,0.0,0.0,0.0,0.0,0.0,0.0,0.0,0.0,0.0,0.0,0.0,0.0,0.0,0.0,0.0,0.0,0.0,0.0,0.0,0.0,0.0,0.0,0.0,0.0,0.0,0.0,0.0,0.0,0.0,0.0,0.0,0.0,0.0,0.0,0.0,0.0,0.0,0.0,0.0,0.0,0.0,0.0,0.0,0.0,0.0,0.0,0.0,0.0,0.0,0.0,0.0,0.0,0.0,0.0,0.0,0.0,0.0,0.0,0.0,0.0,0.0,0.0,0.0,0.0,0.0,0.0,0.0,0.0,0.0,0.0,0.0,0.0,0.0,0.0,0.0,0.0,0.0,0.0,0.0,0.0,0.0,0.0,0.0,0.0,0.0,0.0,0.0,0.0,0.0,0.0,0.0,0.0,0.0,0.0,0.0,0.0,0.0,0.0,0.0,0.0,0.0,0.0,0.0,0.0,0.0,0.0,0.0,0.0,0.0,0.0,0.0,0.0,0.0,0.0,0.0,0.0,0.0,0.0,0.0,0.0,0.0,0.0,0.0,0.0,0.0,0.0,0.0,0.0,0.0,0.0,0.0,0.0,0.0,0.0,0.0,0.0,0.0,0.0,0.0,0.0,0.0,0.0,0.0,0.0,0.0,0.0,0.0,0.0,0.0,0.0,0.0,0.0,0.0,0.0,0.0,0.0,0.0,0.0,0.0,0.0,0.0,0.0,0.0,0.0,0.0,0.0,0.0,0.0,0.0,0.0,0.0,0.0,0.0,0.0,0.0,0.0,0.0,0.0,0.0,0.0,0.0,0.0,0.0,0.0,0.0,0.0,0.0,0.0,0.0,0.0,0.0,0.0,0.0,0.0,0.0,0.0,0.0,0.0,0.0,0.0,0.0,0.0,0.0,0.0,0.0,0.0,0.0,0.0,0.0,0.0,0.0,0.0,0.0,0.0,0.0,0.0,0.0,0.0,0.0,0.0,0.0,0.0,0.0,0.0,0.0,0.0,0.0,0.0,0.0,0.0,0.0,0.0,0.0,0.0,0.0,0.0,0.0,0.0,0.0,0.0,0.0,0.0,0.0,0.0,0.0,0.0,0.0,0.0,0.0,0.0,0.0,0.0,0.0,0.0,0.0,0.0,0.0,0.0,0.0,0.0,0.0,0.0,0.0,0.0,0.0,0.0,0.0,0.0,0.0,0.0,0.0,0.0,0.0,0.0,0.0,0.0,0.0,0.0,0.0,0.0,0.0,0.0,0.0,0.0,0.0,0.0,0.0,0.0,0.0,0.0,0.0,0.0,0.0,0.0,0.0,0.0,0.0,0.0,0.0,0.0,0.0,0.0,0.0,0.0,0.0,0.0,0.0,0.0,0.0,0.0,0.0,0.0,0.0,0.0,0.0,0.0,0.0,0.0,0.0,0.0,0.0,0.0,0.0,0.0,0.0,0.0,0.0,0.0,0.0,0.0,0.0,0.0,0.0,0.0,0.0,0.0,0.0,0.0,0.0,0.0,0.0,0.0,0.0,0.0,0.0,0.0,0.0,0.0,0.0,0.0,0.0,0.0,0.0,0.0,0.0,0.0,0.0,0.0,0.0,0.0,0.0,0.0,0.0,0.0,0.0,0.0,0.0,0.0,0.0,0.0,0.0,0.0,0.0,0.0,0.0,0.0,0.0,0.0,0.0,0.0,0.0,0.0,0.0,0.0,0.0,0.0,0.0,0.0,0.0,0.0,0.0,0.0,0.0,0.0,0.0,0.0,0.0,0.0,0.0,0.0,0.0,0.0,0.0,0.0,0.0,0.0,0.0,0.0,0.0,0.0,0.0,0.0,0.0,0.0,0.0,0.0,0.0,0.0,0.0,0.0,0.0,0.0,0.0,0.0,0.0,0.0,0.0,0.0,0.0,0.0,0.0,0.0,0.0,0.0,0.0,0.0,0.0,0.0,0.0,0.0,0.0,0.0,0.0,0.0,0.0,0.0,0.0,0.0,0.0,0.0,0.0,0.0,0.0,0.0,0.0,0.0,0.0,0.0,0.0,0.0,0.0,0.0,0.0,0.0,0.0,0.0,0.0,0.0,0.0,0.0,0.0,0.0,0.0,0.0,0.0,0.0,0.0,0.0,0.0,0.0,0.0,0.0,0.0,0.0,0.0,0.0,0.0,0.0,0.0,0.0,0.0,0.0,0.0,0.0,0.0,0.0,0.0,0.0,0.0,0.0,0.0,0.0,0.0,0.0,0.0,0.0,0.0,0.0,0.0,0.0,0.0,0.0,0.0,0.0,0.0,0.0,0.0,0.0,0.0,0.0,0.0,0.0,0.0,0.0,0.0,0.0,0.0,0.0,0.0,0.0,0.0,0.0,0.0,0.0,0.0,0.0,0.0,0.0,0.0,0.0,0.0,0.0,0.0,0.0,0.0,0.0,0.0,0.0,0.0,0.0,0.0,0.0,0.0,0.0,0.0,0.0,0.0,0.0,0.0,0.0,0.0,0.0,0.0,0.0,0.0,0.0,0.0,0.0,0.0,0.0,0.0,0.0,0.0,0.0,0.0,0.0,0.0,0.0,0.0,0.0,0.0,0.0,0.0,0.0,0.0,0.0,0.0,0.0,2.4118,0.0,0.0,0.0,0.0,0.0,0.0,0.0,0.0,0.0,0.0,0.0,0.0,0.0,0.0,0.0,0.0,0.0,0.0,0.0,0.0,0.0,0.0,0.0,0.0,0.0,0.0,0.0,0.0,0.0,0.0,0.0,0.0,0.0,0.0,0.0,0.0,0.0,0.0,0.0,0.0,0.0,0.0,0.0,0.0,0.0,0.0,0.0,0.0,0.0,0.0,0.0,0.0,0.0,0.0,0.0,0.0,0.0,0.0,0.0,0.0,0.0,0.0,0.0,0.0,0.0,0.0,0.0,0.0,0.0,0.0,0.0,0.0,0.0,0.0,0.0,0.0,0.0,0.0,0.0,0.0,0.0,0.0,0.0,0.0,0.0,0.0,0.0,0.0,0.0,0.0,0.0,0.0,0.0,0.0,0.0,0.0,0.0,0.0,0.0,0.0,0.0,0.0,0.0,0.0,0.0,0.0,0.0,0.0,0.0,0.0,2.3095,2.311,2.3516,2.3941,2.4307,0.0,0.0,0.0,0.0,0.0,0.0,0.0,0.0,0.0,0.0,0.0,0.0,0.0,0.0,0.0,0.0,0.0,0.0,0.0,0.0,0.0,0.0,0.0,0.0,0.0,0.0,0.0,0.0,0.0,0.0,0.0,0.0,0.0,0.0,0.0,0.0,0.0,0.0,0.0,0.0,0.0,0.0,0.0,0.0,0.0,0.0,0.0,0.0,0.0,0.0,0.0,0.0,0.0,0.0,0.0,0.0,0.0,0.0,0.0,0.0,0.0,0.0,0.0,0.0,0.0,0.0,0.0,0.0,0.0,0.0,0.0,0.0,0.0,0.0,0.0,0.0,0.0,0.0,0.0,0.0,0.0,0.0,0.0,0.0,0.0,0.0,0.0,0.0,0.0,0.0,0.0,0.0,0.0,0.0,0.0,0.0,0.0,0.0,0.0,0.0,0.0,0.0,0.0,0.0,0.0,0.0,0.0,0.0,0.0,0.0,0.0,0.0,2.3972,2.4452,2.4809,0.0,0.0,0.0,0.0,0.0,0.0,0.0,0.0,0.0,0.0,0.0,0.0,0.0,0.0,0.0,0.0,0.0,0.0,0.0,0.0,0.0,0.0,0.0,0.0,0.0,0.0,0.0,0.0,0.0,0.0,0.0,0.0,0.0,0.0,0.0,0.0,0.0,0.0,0.0,0.0,0.0,0.0,0.0,0.0,0.0,0.0,0.0,0.0,0.0,0.0,0.0,0.0,0.0,0.0,0.0,0.0,0.0,0.0,0.0,0.0,0.0,0.0,0.0,0.0,0.0,0.0,0.0,0.0,0.0,0.0,0.0,0.0,0.0,0.0,0.0,0.0,0.0,0.0,0.0,0.0,0.0,0.0,0.0,0.0,0.0,0.0,0.0,0.0,0.0,0.0,0.0,0.0,0.0,0.0,0.0,0.0,0.0,0.0,0.0,0.0,0.0,0.0,0.0,0.0,0.0,0.0,0.0,0.0,0.0,0.0,2.3454,2.4176,2.4263,0.0,2.6229,0.0,0.0,0.0,0.0,0.0,0.0,0.0,0.0,0.0,0.0,0.0,0.0,0.0,0.0,0.0,0.0,0.0,0.0,0.0,0.0,0.0,0.0,0.0,0.0,0.0,0.0,0.0,0.0,0.0,0.0,0.0,0.0,0.0,0.0,0.0,0.0,0.0,0.0,0.0,0.0,0.0,0.0,0.0,0.0,0.0,0.0,0.0,0.0,0.0,0.0,0.0,0.0,0.0,0.0,0.0,0.0,0.0,0.0,0.0,0.0,0.0,0.0,0.0,0.0,0.0,0.0,0.0,0.0,0.0,0.0,0.0,0.0,0.0,0.0,0.0,0.0,0.0,0.0,0.0,0.0,0.0,0.0,0.0,0.0,0.0,0.0,0.0,0.0,0.0,0.0,0.0,0.0,0.0,0.0,0.0,0.0,0.0,0.0,0.0,0.0,0.0,0.0,0.0,0.0,0.0,0.0,0.0,0.0,0.0,0.0,2.3484,2.4279,2.5147,2.6094,0.0,0.0,0.0,0.0,0.0,0.0,0.0,0.0,0.0,0.0,0.0,0.0,0.0,0.0,0.0,0.0,0.0,0.0,0.0,0.0,0.0,0.0,0.0,0.0,0.0,0.0,0.0,0.0,0.0,0.0,0.0,0.0,0.0,0.0,0.0,0.0,0.0,0.0,0.0,0.0,0.0,0.0,0.0,0.0,0.0,0.0,0.0,0.0,0.0,0.0,0.0,0.0,0.0,0.0,0.0,0.0,0.0,0.0,0.0,0.0,0.0,0.0,0.0,0.0,0.0,0.0,0.0,0.0,0.0,0.0,0.0,0.0,0.0,0.0,0.0,0.0,0.0,0.0,0.0,0.0,0.0,0.0,0.0,0.0,0.0,0.0,0.0,0.0,0.0,0.0,0.0,0.0,0.0,0.0,0.0,0.0,0.0,0.0,0.0,0.0,0.0,0.0,0.0,0.0,0.0,0.0,0.0,0.0,0.0,0.0,2.3634,2.412,2.4908,2.6121,2.7047,2.7572,0.0,0.0,0.0,0.0,0.0,0.0,0.0,0.0,0.0,0.0,0.0,0.0,0.0,0.0,0.0,0.0,0.0,0.0,0.0,0.0,0.0,0.0,0.0,0.0,0.0,0.0,0.0,0.0,0.0,0.0,0.0,0.0,0.0,0.0,0.0,0.0,0.0,0.0,0.0,0.0,0.0,0.0,0.0,0.0,0.0,0.0,0.0,0.0,0.0,0.0,0.0,0.0,0.0,0.0,0.0,0.0,0.0,0.0,0.0,0.0,0.0,0.0,0.0,0.0,0.0,0.0,0.0,0.0,0.0,0.0,0.0,0.0,0.0,0.0,0.0,0.0,0.0,0.0,0.0,0.0,0.0,0.0,0.0,0.0,0.0,0.0,0.0,0.0,0.0,0.0,0.0,0.0,0.0,0.0,0.0,0.0,0.0,0.0,0.0,0.0,0.0,0.0,0.0,0.0,0.0,0.0,0.0,0.0,2.4249,2.4922,2.5646,2.6336,2.7152,2.7575,0.0,0.0,0.0,0.0,0.0,0.0,0.0,0.0,0.0,0.0,0.0,0.0,0.0,0.0,0.0,0.0,0.0,0.0,0.0,0.0,0.0,0.0,0.0,0.0,0.0,0.0,0.0,0.0,0.0,0.0,0.0,0.0,0.0,0.0,0.0,0.0,0.0,0.0,0.0,0.0,0.0,0.0,0.0,0.0,0.0,0.0,0.0,0.0,0.0,0.0,0.0,0.0,0.0,0.0,0.0,0.0,0.0,0.0,0.0,0.0,0.0,0.0,0.0,0.0,0.0,0.0,0.0,0.0,0.0,0.0,0.0,0.0,0.0,0.0,0.0,0.0,0.0,0.0,0.0,0.0,0.0,0.0,0.0,0.0,0.0,0.0,0.0,0.0,0.0,0.0,0.0,0.0,0.0,0.0,0.0,0.0,0.0,0.0,0.0,0.0,0.0,0.0,0.0,0.0,0.0,0.0,0.0,0.0,0.0,2.4364,2.5495,2.6229,2.6496,2.7216,2.7585,0.0,0.0,0.0,0.0,0.0,0.0,0.0,0.0,0.0,0.0,0.0,0.0,0.0,0.0,0.0,0.0,0.0,0.0,0.0,0.0,0.0,0.0,0.0,0.0,0.0,0.0,0.0,0.0,0.0,0.0,0.0,0.0,0.0,0.0,0.0,0.0,0.0,0.0,0.0,0.0,0.0,0.0,0.0,0.0,0.0,0.0,0.0,0.0,0.0,0.0,0.0,0.0,0.0,0.0,0.0,0.0,0.0,0.0,0.0,0.0,0.0,0.0,0.0,0.0,0.0,0.0,0.0,0.0,0.0,0.0,0.0,0.0,0.0,0.0,0.0,0.0,0.0,0.0,0.0,0.0,0.0,0.0,0.0,0.0,0.0,0.0,0.0,0.0,0.0,0.0,0.0,0.0,0.0,0.0,0.0,0.0,0.0,0.0,0.0,0.0,0.0,0.0,0.0,0.0,0.0,0.0,0.0,0.0,0.0,2.5384,0.0,2.6865,2.6865,2.7344,2.7585,0.0,0.0,0.0,0.0,0.0,0.0,0.0,0.0,0.0,0.0,0.0,0.0,0.0,0.0,0.0,0.0,0.0,0.0,0.0,0.0,0.0,0.0,0.0,0.0,0.0,0.0,0.0,0.0,0.0,0.0,0.0,0.0,0.0,0.0,0.0,0.0,0.0,0.0,0.0,0.0,0.0,0.0,0.0,0.0,0.0,0.0,0.0,0.0,0.0,0.0,0.0,0.0,0.0,0.0,0.0,0.0,0.0,0.0,0.0,0.0,0.0,0.0,0.0,0.0,0.0,0.0,0.0,0.0,0.0,0.0,0.0,0.0,0.0,0.0,0.0,0.0,0.0,0.0,0.0,0.0,0.0,0.0,0.0,0.0,0.0,0.0,0.0,0.0,0.0,0.0,0.0,0.0,0.0,0.0,0.0,0.0,0.0,0.0,0.0,0.0,0.0,0.0,0.0,0.0,0.0,0.0,0.0,0.0,2.6121,2.7484,2.7547,2.7534,2.7585,2.7572,2.7585,0.0,0.0,0.0,0.0,0.0,0.0,0.0,0.0,0.0,0.0,0.0,0.0,0.0,0.0,0.0,0.0,0.0,0.0,0.0,0.0,0.0,0.0,0.0,0.0,0.0,0.0,0.0,0.0,0.0,0.0,0.0,0.0,0.0,0.0,0.0,0.0,0.0,0.0,0.0,0.0,0.0,0.0,0.0,0.0,0.0,0.0,0.0,0.0,0.0,0.0,0.0,0.0,0.0,0.0,0.0,0.0,0.0,0.0,0.0,0.0,0.0,0.0,0.0,0.0,0.0,0.0,0.0,0.0,0.0,0.0,0.0,0.0,0.0,0.0,0.0,0.0,0.0,0.0,0.0,0.0,0.0,0.0,0.0,0.0,0.0,0.0,0.0,0.0,0.0,0.0,0.0,0.0,0.0,0.0,0.0,0.0,0.0,0.0,0.0,0.0,0.0,0.0,0.0,0.0,0.0,0.0,0.0,0.0,0.0,2.7575,2.7585,2.7585,2.7585,2.7585,2.7585,0.0,0.0,0.0,0.0,0.0,0.0,0.0,0.0,0.0,0.0,0.0,0.0,0.0,0.0,0.0,0.0,0.0,0.0,0.0,0.0,0.0,0.0,0.0,0.0,0.0,0.0,0.0,0.0,0.0,0.0,0.0,0.0,0.0,0.0,0.0,0.0,0.0,0.0,0.0,0.0,0.0,0.0,0.0,0.0,0.0,0.0,0.0,0.0,0.0,0.0,0.0,0.0,0.0,0.0,0.0,0.0,0.0,0.0,0.0,0.0,0.0,0.0,0.0,0.0,0.0,0.0,0.0,0.0,0.0,0.0,0.0,0.0,0.0,0.0,0.0,0.0,0.0,0.0,0.0,0.0,0.0,0.0,0.0,0.0,0.0,0.0,0.0,0.0,0.0,0.0,0.0,0.0,0.0,0.0,0.0,0.0,0.0,0.0,0.0,0.0,0.0,0.0,0.0,0.0,0.0,0.0,0.0,0.0,0.0,2.7974,2.7735,2.7585,2.7585,2.7585,2.7585,2.7585,0.0,0.0,0.0,0.0,0.0,0.0,0.0,0.0,0.0,0.0,0.0,0.0,0.0,0.0,0.0,0.0,0.0,0.0,0.0,0.0,0.0,0.0,0.0,0.0,0.0,0.0,0.0,0.0,0.0,0.0,0.0,0.0,0.0,0.0,0.0,0.0,0.0,0.0,0.0,0.0,0.0,0.0,0.0,0.0,0.0,0.0,0.0,0.0,0.0,0.0,0.0,0.0,0.0,0.0,0.0,0.0,0.0,0.0,0.0,0.0,0.0,0.0,0.0,0.0,0.0,0.0,0.0,0.0,0.0,0.0,0.0,0.0,0.0,0.0,0.0,0.0,0.0,0.0,0.0,0.0,0.0,0.0,0.0,0.0,0.0,0.0,0.0,0.0,0.0,0.0,0.0,0.0,0.0,0.0,0.0,0.0,0.0,0.0,0.0,0.0,0.0,0.0,0.0,0.0,0.0,0.0,0.0,0.0,2.8709,2.8096,2.7765,2.7723,2.7685,2.7642,0.0,0.0,0.0,0.0,0.0,0.0,0.0,0.0,0.0,0.0,0.0,0.0,0.0,0.0,0.0,0.0,0.0,0.0,0.0,0.0,0.0,0.0,0.0,0.0,0.0,0.0,0.0,0.0,0.0,0.0,0.0,0.0,0.0,0.0,0.0,0.0,0.0,0.0,0.0,0.0,0.0,0.0,0.0,0.0,0.0,0.0,0.0,0.0,0.0,0.0,0.0,0.0,0.0,0.0,0.0,0.0,0.0,0.0,0.0,0.0,0.0,0.0,0.0,0.0,0.0,0.0,0.0,0.0,0.0,0.0,0.0,0.0,0.0,0.0,0.0,0.0,0.0,0.0,0.0,0.0,0.0,0.0,0.0,0.0,0.0,0.0,0.0,0.0,0.0,0.0,0.0,0.0,0.0,0.0,0.0,0.0,0.0,0.0,0.0,0.0,0.0,0.0,0.0,0.0,0.0,0.0,0.0,0.0,0.0,2.9954,2.9859,2.9553,2.9014,2.8578,2.8311,0.0,0.0,0.0,0.0,0.0,0.0,0.0,0.0,0.0,0.0,0.0,0.0,0.0,0.0,0.0,0.0,0.0,0.0,0.0,0.0,0.0,0.0,0.0,0.0,0.0,0.0,0.0,0.0,0.0,0.0,0.0,0.0,0.0,0.0,0.0,0.0,0.0,0.0,0.0,0.0,0.0,0.0,0.0,0.0,0.0,0.0,0.0,0.0,0.0,0.0,0.0,0.0,0.0,0.0,0.0,0.0,0.0,0.0,0.0,0.0,0.0,0.0,0.0,0.0,0.0,0.0,0.0,0.0,0.0,0.0,0.0,0.0,0.0,0.0,0.0,0.0,0.0,0.0,0.0,0.0,0.0,0.0,0.0,0.0,0.0,0.0,0.0,0.0,0.0,0.0,0.0,0.0,0.0,0.0,0.0,0.0,0.0,0.0,0.0,0.0,0.0,0.0,0.0,0.0,0.0,0.0,0.0,0.0,3.0079,3.1362,3.1705,3.165,3.1174,3.0008,2.9246,0.0,0.0,0.0,0.0,0.0,0.0,0.0,0.0,0.0,0.0,0.0,0.0,0.0,0.0,0.0,0.0,0.0,0.0,0.0,0.0,0.0,0.0,0.0,0.0,0.0,0.0,0.0,0.0,0.0,0.0,0.0,0.0,0.0,0.0,0.0,0.0,0.0,0.0,0.0,0.0,0.0,0.0,0.0,0.0,0.0,0.0,0.0,0.0,0.0,0.0,0.0,0.0,0.0,0.0,0.0,0.0,0.0,0.0,0.0,0.0,0.0,0.0,0.0,0.0,0.0,0.0,0.0,0.0,0.0,0.0,0.0,0.0,0.0,0.0,0.0,0.0,0.0,0.0,0.0,0.0,0.0,0.0,0.0,0.0,0.0,0.0,0.0,0.0,0.0,0.0,0.0,0.0,0.0,0.0,0.0,0.0,0.0,0.0,0.0,0.0,0.0,0.0,0.0,0.0,0.0,0.0,0.0,0.0,3.1445,3.2773,3.3378,3.3708,3.3644,3.169,3.0358,0.0,0.0,0.0,0.0,0.0,0.0,0.0,0.0,0.0,0.0,0.0,0.0,0.0,0.0,0.0,0.0,0.0,0.0,0.0,0.0,0.0,0.0,0.0,0.0,0.0,0.0,0.0,0.0,0.0,0.0,0.0,0.0,0.0,0.0,0.0,0.0,0.0,0.0,0.0,0.0,0.0,0.0,0.0,0.0,0.0,0.0,0.0,0.0,0.0,0.0,0.0,0.0,0.0,0.0,0.0,0.0,0.0,0.0,0.0,0.0,0.0,0.0,0.0,0.0,0.0,0.0,0.0,0.0,0.0,0.0,0.0,0.0,0.0,0.0,0.0,0.0,0.0,0.0,0.0,0.0,0.0,0.0,0.0,0.0,0.0,0.0,0.0,0.0,0.0,0.0,0.0,0.0,0.0,0.0,0.0,0.0,0.0,0.0,0.0,0.0,0.0,0.0,0.0,0.0,0.0,0.0,0.0,0.0,3.2797,3.4046,3.4284,3.4634,3.5143,3.2644,3.119,0.0,0.0,0.0,0.0,0.0,0.0,0.0,0.0,0.0,0.0,0.0,0.0,0.0,0.0,0.0,0.0,0.0,0.0,0.0,0.0,0.0,0.0,0.0,0.0,0.0,0.0,0.0,0.0,0.0,0.0,0.0,0.0,0.0,0.0,0.0,0.0,0.0,0.0,0.0,0.0,0.0,0.0,0.0,0.0,0.0,0.0,0.0,0.0,3.7816,0.0,0.0,0.0,0.0,0.0,0.0,0.0,0.0,0.0,0.0,0.0,0.0,0.0,0.0,0.0,0.0,0.0,0.0,0.0,0.0,0.0,0.0,0.0,0.0,0.0,0.0,0.0,0.0,0.0,0.0,0.0,0.0,0.0,0.0,0.0,0.0,0.0,0.0,0.0,0.0,0.0,0.0,0.0,0.0,0.0,0.0,0.0,0.0,0.0,0.0,0.0,0.0,0.0,0.0,0.0,0.0,0.0,0.0,0.0,3.371,3.4969,3.5052,3.5242,3.5498,3.3838,3.2599,0.0,0.0,0.0,0.0,0.0,0.0,0.0,0.0,0.0,0.0,0.0,0.0,0.0,0.0,0.0,0.0,0.0,0.0,0.0,0.0,0.0,0.0,0.0,0.0,0.0,0.0,0.0,0.0,0.0,0.0,0.0,0.0,0.0,0.0,0.0,0.0,0.0,0.0,0.0,0.0,0.0,0.0,0.0,0.0,0.0,0.0,0.0,0.0,0.0,0.0,0.0,0.0,0.0,0.0,0.0,0.0,0.0,0.0,0.0,0.0,0.0,0.0,0.0,0.0,0.0,0.0,0.0,0.0,0.0,0.0,0.0,0.0,0.0,0.0,0.0,0.0,0.0,0.0,0.0,0.0,0.0,0.0,0.0,0.0,0.0,0.0,0.0,0.0,0.0,0.0,0.0,0.0,0.0,0.0,0.0,0.0,0.0,0.0,0.0,0.0,0.0,0.0,0.0,0.0,0.0,0.0,0.0,3.3611,3.4441,3.5543,3.5628,3.5628,3.5583,3.4996,3.4079,3.2862,0.0,0.0,0.0,0.0,0.0,0.0,0.0,0.0,0.0,0.0,0.0,0.0,0.0,0.0,0.0,0.0,0.0,0.0,0.0,0.0,0.0,0.0,0.0,0.0,0.0,0.0,0.0,0.0,0.0,0.0,0.0,0.0,0.0,0.0,0.0,0.0,0.0,0.0,3.8699,3.8799,0.0,0.0,0.0,0.0,0.0,0.0,0.0,0.0,3.7417,0.0,0.0,0.0,0.0,0.0,0.0,0.0,0.0,0.0,0.0,0.0,0.0,0.0,0.0,0.0,0.0,0.0,0.0,0.0,0.0,0.0,0.0,0.0,0.0,0.0,0.0,0.0,0.0,0.0,0.0,0.0,0.0,0.0,0.0,0.0,0.0,0.0,0.0,0.0,0.0,0.0,0.0,0.0,0.0,0.0,0.0,0.0,0.0,0.0,0.0,0.0,0.0,0.0,0.0,0.0,0.0,3.5092,3.5217,3.5386,3.56,3.5628,3.5628,3.56,3.5481,3.502,3.4183,0.0,0.0,0.0,0.0,0.0,0.0,0.0,0.0,0.0,0.0,0.0,0.0,0.0,0.0,0.0,0.0,0.0,0.0,0.0,0.0,0.0,0.0,0.0,0.0,0.0,0.0,0.0,0.0,0.0,0.0,0.0,0.0,0.0,0.0,0.0,0.0,0.0,0.0,0.0,3.9276,3.9706,0.0,0.0,0.0,0.0,0.0,0.0,0.0,0.0,3.8438,0.0,0.0,0.0,0.0,0.0,0.0,0.0,0.0,0.0,0.0,0.0,0.0,0.0,0.0,0.0,0.0,0.0,0.0,0.0,0.0,0.0,0.0,0.0,0.0,0.0,0.0,0.0,0.0,0.0,0.0,0.0,0.0,0.0,0.0,0.0,0.0,0.0,0.0,0.0,0.0,0.0,0.0,0.0,0.0,0.0,0.0,0.0,0.0,0.0,0.0,0.0,0.0,0.0,0.0,0.0,3.507,3.5436,3.5797,3.6197,3.6081,3.6199,3.6559,3.6481,3.6122,0.0,0.0,0.0,0.0,0.0,0.0,0.0,0.0,0.0,0.0,0.0,0.0,0.0,0.0,0.0,0.0,0.0,0.0,0.0,0.0,0.0,0.0,0.0,0.0,0.0,0.0,0.0,0.0,0.0,0.0,0.0,0.0,0.0,0.0,0.0,0.0,0.0,0.0,0.0,0.0,3.9662,4.0055,4.0469,0.0,0.0,0.0,0.0,0.0,0.0,4.0076,3.9551,0.0,0.0,0.0,0.0,0.0,0.0,0.0,0.0,0.0,0.0,0.0,0.0,0.0,0.0,0.0,0.0,0.0,0.0,0.0,0.0,0.0,0.0,0.0,0.0,0.0,0.0,0.0,0.0,0.0,0.0,0.0,0.0,0.0,0.0,0.0,0.0,0.0,0.0,0.0,0.0,0.0,0.0,0.0,0.0,0.0,0.0,0.0,0.0,0.0,0.0,0.0,0.0,0.0,0.0,0.0,3.4807,3.5311,3.6034,3.6916,3.6588,3.6811,3.7631,3.7367,3.7009,0.0,0.0,0.0,0.0,0.0,0.0,0.0,0.0,0.0,0.0,0.0,0.0,0.0,0.0,0.0,0.0,0.0,0.0,0.0,0.0,0.0,0.0,0.0,0.0,0.0,0.0,0.0,0.0,0.0,0.0,0.0,0.0,0.0,0.0,0.0,0.0,0.0,0.0,0.0,0.0,0.0,4.0616,4.125,4.2029,0.0,0.0,0.0,0.0,4.147,4.0982,0.0,0.0,0.0,0.0,0.0,0.0,0.0,0.0,0.0,0.0,0.0,0.0,0.0,0.0,0.0,0.0,0.0,0.0,0.0,0.0,0.0,0.0,0.0,0.0,0.0,0.0,0.0,0.0,0.0,0.0,0.0,0.0,0.0,0.0,0.0,0.0,0.0,0.0,0.0,0.0,0.0,0.0,0.0,0.0,0.0,0.0,0.0,0.0,0.0,0.0,0.0,0.0,0.0,0.0,0.0,0.0,3.5492,3.5577,3.6212,3.7391,3.6776,3.7,3.8255,3.7588,3.7181,0.0,0.0,0.0,0.0,0.0,0.0,0.0,0.0,0.0,0.0,0.0,0.0,0.0,0.0,0.0,0.0,0.0,0.0,0.0,0.0,0.0,0.0,0.0,0.0,0.0,0.0,0.0,0.0,0.0,0.0,0.0,0.0,0.0,0.0,0.0,0.0,0.0,0.0,0.0,0.0,0.0,4.2047,4.2158,4.2864,4.3322,0.0,0.0,4.3084,4.2286,4.2116,0.0,0.0,0.0,0.0,0.0,0.0,0.0,0.0,0.0,0.0,0.0,0.0,0.0,0.0,0.0,0.0,0.0,0.0,0.0,0.0,0.0,0.0,0.0,0.0,0.0,0.0,0.0,0.0,0.0,0.0,0.0,0.0,0.0,0.0,0.0,0.0,0.0,0.0,0.0,0.0,0.0,0.0,0.0,0.0,0.0,0.0,0.0,0.0,0.0,0.0,0.0,0.0,0.0,0.0,0.0,3.575,3.6032,3.6043,3.6914,3.8567,3.7744,3.7965,3.9367,3.8535,3.7904,0.0,0.0,0.0,0.0,0.0,0.0,0.0,0.0,0.0,0.0,0.0,0.0,0.0,0.0,0.0,0.0,0.0,0.0,0.0,0.0,0.0,0.0,0.0,0.0,0.0,0.0,0.0,0.0,0.0,0.0,0.0,0.0,0.0,0.0,0.0,0.0,0.0,0.0,0.0,0.0,0.0,0.0,4.3452,4.3975,0.0,0.0,0.0,4.4066,4.3709,0.0,0.0,0.0,0.0,0.0,0.0,0.0,0.0,0.0,0.0,0.0,0.0,0.0,0.0,0.0,0.0,0.0,0.0,0.0,0.0,0.0,0.0,0.0,0.0,0.0,0.0,0.0,0.0,0.0,0.0,0.0,0.0,0.0,0.0,0.0,0.0,0.0,0.0,0.0,0.0,0.0,0.0,0.0,0.0,0.0,0.0,0.0,0.0,0.0,0.0,0.0,0.0,0.0,0.0,0.0,0.0,0.0,3.6385,3.6741,3.7812,3.9583,3.8896,3.911,4.0365,3.9506,0.0,0.0,0.0,0.0,0.0,0.0,0.0,0.0,0.0,0.0,0.0,0.0,0.0,0.0,0.0,0.0,0.0,0.0,0.0,0.0,0.0,0.0,0.0,0.0,0.0,0.0,0.0,3.9305,0.0,0.0,0.0,0.0,0.0,0.0,0.0,0.0,0.0,0.0,0.0,0.0,0.0,0.0,4.2443,4.4425,4.47,4.4975,0.0,0.0,4.4938,4.4745,4.4213,4.3524,0.0,0.0,0.0,0.0,0.0,0.0,0.0,0.0,0.0,0.0,0.0,0.0,0.0,0.0,0.0,0.0,0.0,0.0,0.0,0.0,0.0,0.0,0.0,0.0,0.0,0.0,0.0,0.0,0.0,0.0,0.0,0.0,0.0,0.0,0.0,0.0,0.0,0.0,0.0,0.0,0.0,0.0,0.0,0.0,0.0,0.0,0.0,0.0,0.0,0.0,0.0,0.0,0.0,0.0,0.0,3.644,3.7614,3.8902,4.0203,4.0158,4.0417,4.1001,4.0251,3.9452,0.0,0.0,0.0,0.0,0.0,0.0,0.0,0.0,0.0,0.0,0.0,0.0,0.0,0.0,0.0,0.0,0.0,0.0,0.0,0.0,0.0,0.0,0.0,0.0,0.0,0.0,0.0,0.0,0.0,0.0,0.0,0.0,0.0,0.0,0.0,0.0,0.0,0.0,0.0,0.0,0.0,4.3644,4.458,4.47,4.4993,0.0,0.0,4.5553,4.4828,4.4663,4.4351,4.3561,0.0,0.0,0.0,0.0,0.0,0.0,0.0,0.0,0.0,0.0,0.0,0.0,0.0,0.0,0.0,0.0,0.0,0.0,0.0,0.0,0.0,0.0,0.0,0.0,0.0,0.0,0.0,0.0,0.0,0.0,0.0,0.0,0.0,0.0,0.0,0.0,0.0,0.0,0.0,0.0,0.0,0.0,0.0,0.0,0.0,0.0,0.0,0.0,0.0,0.0,0.0,0.0,0.0,3.657,3.6919,3.8181,3.9472,4.0726,4.0806,4.0901,4.1095,4.0322,3.9533,0.0,0.0,0.0,0.0,0.0,0.0,0.0,0.0,0.0,0.0,0.0,0.0,0.0,0.0,0.0,0.0,0.0,0.0,0.0,0.0,0.0,0.0,0.0,0.0,0.0,0.0,0.0,0.0,4.1113,4.1113,4.1113,0.0,0.0,0.0,0.0,0.0,0.0,0.0,0.0,0.0,0.0,4.3983,4.5259,4.5856,0.0,0.0,4.6938,4.6535,4.6214,4.5764,4.5333,4.503,4.4562,0.0,0.0,0.0,0.0,0.0,0.0,0.0,0.0,0.0,0.0,0.0,0.0,0.0,0.0,0.0,0.0,0.0,0.0,0.0,0.0,0.0,0.0,0.0,0.0,0.0,0.0,0.0,0.0,0.0,0.0,0.0,0.0,0.0,0.0,0.0,0.0,0.0,0.0,0.0,0.0,0.0,0.0,0.0,0.0,0.0,0.0,0.0,0.0,0.0,0.0,0.0,0.0,3.6902,3.7406,3.8913,4.0154,4.1069,4.1562,4.169,4.147,4.0689,3.9882,0.0,0.0,0.0,0.0,0.0,0.0,0.0,0.0,0.0,0.0,0.0,0.0,0.0,0.0,0.0,0.0,0.0,0.0,0.0,0.0,0.0,0.0,0.0,0.0,0.0,0.0,0.0,0.0,4.1827,4.1819,4.1819,0.0,0.0,0.0,0.0,0.0,0.0,0.0,0.0,0.0,0.0,4.4718,4.6058,4.6727,4.7388,4.8186,4.7819,4.7369,4.7131,4.6645,4.6195,4.5938,0.0,0.0,0.0,0.0,0.0,0.0,0.0,0.0,0.0,0.0,0.0,0.0,0.0,0.0,0.0,0.0,0.0,0.0,0.0,0.0,0.0,0.0,0.0,0.0,0.0,0.0,0.0,0.0,0.0,0.0,3.7906,0.0,0.0,0.0,0.0,0.0,0.0,0.0,0.0,0.0,0.0,0.0,0.0,0.0,0.0,0.0,0.0,0.0,0.0,0.0,0.0,0.0,0.0,3.7406,3.7904,3.9949,4.1042,4.115,4.2616,4.3047,4.2268,4.1489,4.0708,3.99,0.0,0.0,0.0,0.0,0.0,0.0,0.0,0.0,0.0,0.0,0.0,0.0,0.0,0.0,0.0,0.0,0.0,0.0,0.0,0.0,0.0,0.0,0.0,0.0,0.0,0.0,4.3378,4.3433,4.3396,0.0,0.0,0.0,0.0,0.0,0.0,0.0,0.0,0.0,0.0,4.5369,4.614,4.6947,4.7104,4.7424,4.8186,4.8288,4.8003,4.7241,4.7094,4.681,0.0,0.0,0.0,0.0,0.0,0.0,0.0,0.0,0.0,0.0,0.0,0.0,0.0,0.0,0.0,0.0,0.0,0.0,0.0,0.0,0.0,0.0,0.0,0.0,0.0,0.0,0.0,3.9335,3.9319,0.0,0.0,0.0,0.0,0.0,0.0,0.0,0.0,0.0,0.0,0.0,4.0083,3.9859,0.0,0.0,0.0,0.0,0.0,0.0,0.0,0.0,0.0,0.0,0.0,0.0,3.7692,3.8723,4.0266,4.136,4.1892,4.2928,4.3121,4.2314,4.2039,4.1525,4.0736,0.0,0.0,0.0,0.0,0.0,0.0,0.0,0.0,0.0,0.0,0.0,0.0,0.0,0.0,0.0,0.0,0.0,0.0,0.0,0.0,0.0,0.0,0.0,0.0,0.0,4.3488,0.0,0.0,0.0,0.0,0.0,0.0,0.0,0.0,0.0,0.0,0.0,4.4599,4.5406,4.6186,4.6792,4.7076,4.7562,4.8003,0.0,0.0,0.0,0.0,0.0,0.0,0.0,0.0,0.0,0.0,0.0,0.0,0.0,0.0,4.4754,4.369,4.3488,4.3488,4.3488,0.0,0.0,0.0,0.0,0.0,0.0,0.0,0.0,0.0,0.0,0.0,0.0,0.0,0.0,4.0489,0.0,4.0202,0.0,0.0,0.0,0.0,0.0,0.0,0.0,0.0,4.0113,4.0113,4.0113,4.0113,3.9846,0.0,3.9119,3.851,0.0,0.0,0.0,0.0,0.0,0.0,0.0,0.0,3.8492,3.9771,4.0926,4.1764,4.2304,4.3084,4.3249,4.2735,4.2433,4.1937,4.1113,4.1113,4.1113,0.0,0.0,0.0,0.0,0.0,0.0,0.0,0.0,0.0,0.0,0.0,0.0,0.0,0.0,0.0,0.0,0.0,0.0,0.0,0.0,0.0,0.0,0.0,4.3488,0.0,0.0,0.0,0.0,0.0,0.0,0.0,0.0,0.0,4.4737,4.5186,4.5727,4.6241,4.7012,4.7526,4.7526,0.0,0.0,0.0,0.0,0.0,0.0,0.0,4.8315,4.8315,4.7874,4.7526,4.7526,4.7085,4.6654,4.6361,0.0,0.0,4.4571,4.4332,4.4332,4.4332,4.3901,4.3644,4.3864,4.3516,4.3185,0.0,0.0,0.0,0.0,0.0,0.0,0.0,0.0,4.1542,4.1238,0.0,4.0523,0.0,0.0,0.0,0.0,0.0,4.0214,0.0,0.0,4.0214,4.0163,4.0197,4.0168,4.0146,4.0096,3.9389,3.9022,3.8971,3.8311,0.0,0.0,0.0,0.0,0.0,0.0,3.9772,4.1089,4.1874,4.2323,4.2378,4.3094,4.3488,4.3478,4.2745,4.2011,4.1242,4.1224,4.1205,4.1187,4.1205,0.0,0.0,0.0,0.0,0.0,0.0,0.0,0.0,0.0,0.0,0.0,0.0,0.0,0.0,0.0,0.0,0.0,0.0,0.0,0.0,4.3524,0.0,0.0,0.0,0.0,0.0,0.0,0.0,0.0,0.0,0.0,4.4938,4.6104,4.7094,4.7131,0.0,0.0,0.0,0.0,4.8315,4.8315,4.8315,4.8315,4.8315,4.8315,4.8315,4.8315,0.0,0.0,4.8296,4.8296,4.7984,4.7278,4.7131,4.6902,4.614,4.5874,4.581,4.5837,4.5755,4.559,4.4938,4.47,4.448,4.3619,0.0,0.0,0.0,0.0,4.2303,4.2303,4.23,4.2083,4.1995,4.1965,4.1758,0.0,0.0,0.0,0.0,0.0,0.0,4.1674,4.1674,4.1674,4.1674,4.164,4.1119,4.0895,4.0849,4.0134,3.9795,3.9774,3.9559,3.9022,3.8153,0.0,0.0,0.0,0.0,4.0238,4.186,4.2194,4.2561,4.3139,4.3378,4.3488,4.3488,4.3286,4.3047,4.2808,4.28,4.28,4.2827,4.2818,0.0,0.0,0.0,0.0,0.0,0.0,0.0,0.0,0.0,0.0,0.0,0.0,0.0,0.0,0.0,0.0,0.0,0.0,0.0,4.3506,4.4011,4.4351,0.0,0.0,0.0,0.0,0.0,0.0,0.0,0.0,0.0,4.6452,4.681,4.7324,0.0,0.0,4.8315,4.8315,4.8315,4.8315,4.8315,4.8315,0.0,4.8315,4.8315,4.8315,4.8315,4.8315,4.8315,4.8315,4.8315,4.8233,4.7984,4.7948,4.7874,4.7617,4.6654,4.5975,4.5902,4.5902,4.5828,4.5626,4.5553,4.548,4.5041,4.4251,4.3504,4.3213,4.3213,4.3196,4.3196,4.3179,4.2878,4.2743,4.2709,4.2435,4.2303,4.2303,4.2303,0.0,0.0,0.0,4.2303,4.2303,4.2303,4.2303,4.2252,4.1847,4.1644,4.1593,4.0895,4.0523,4.054,4.0447,4.0267,3.9905,0.0,0.0,4.0745,4.0652,4.1334,4.2691,4.279,4.301,4.3488,4.3488,4.3488,4.3488,4.3488,4.3488,4.3488,4.3488,4.3488,4.3488,4.3488,4.3488,0.0,0.0,0.0,0.0,0.0,0.0,0.0,0.0,0.0,0.0,0.0,4.3488,4.3488,0.0,0.0,0.0,4.4277,4.4461,4.4461,4.4892,0.0,0.0,0.0,0.0,0.0,0.0,0.0,4.637,4.7085,4.7581,4.7581,4.7581,4.7764,4.8241,4.8315,4.8315,4.8315,0.0,4.8315,4.8315,4.8315,4.8315,4.8315,4.8315,4.8315,4.8315,4.8315,4.8315,4.8315,4.8315,4.8315,4.8315,4.8315,4.8315,4.8315,4.7498,4.6856,4.6856,4.6856,4.6764,4.6461,4.637,4.6305,4.6411,4.572,4.5058,4.4716,4.4598,4.4584,4.4584,4.4533,4.3795,4.349,4.3453,4.2777,4.2486,4.2486,4.2486,0.0,4.2486,4.2469,4.2503,4.2469,4.2486,4.2486,4.2469,4.2435,4.2401,4.2384,4.1644,4.1288,4.128,4.1023,4.1254,4.1842,4.1096,4.1006,4.165,4.211,4.2711,4.3488,4.3488,4.3488,4.3488,4.3488,4.3488,4.3488,4.3488,4.3488,4.3488,4.3488,4.3488,4.3488,4.3488,4.3488,4.3488,0.0,0.0,0.0,0.0,0.0,0.0,0.0,0.0,0.0,0.0,0.0,0.0,0.0,0.0,0.0,4.5452,0.0,4.5902,4.5957,0.0,0.0,0.0,4.6094,4.6094,4.6737,4.7186,4.7186,0.0,0.0,4.8315,4.8315,4.8315,4.8315,4.8315,4.8315,4.8315,4.8315,4.8315,4.8315,4.8315,4.8315,4.8315,4.8315,4.8315,4.8315,4.8315,4.8315,4.8315,4.8315,4.8315,4.8315,4.8315,4.8315,4.8315,4.8241,4.8315,4.8223,4.8241,4.8039,4.7379,4.7195,4.6984,4.6699,4.6515,4.636,4.5633,4.4584,4.4584,4.4584,4.4584,4.4398,4.4313,4.4313,4.4127,4.4042,4.4073,4.4056,4.4042,4.4059,4.4056,4.4056,4.4056,4.4042,4.4042,4.4025,4.342,4.3135,4.3085,4.2388,4.2046,4.2012,4.1426,4.1654,4.2548,4.1878,4.2028,4.2966,4.275,4.2896,4.3488,4.3488,4.3488,4.3488,4.3488,4.3488,4.3488,4.3488,4.3488,4.3488,4.3488,4.3488,4.3488,4.3488,4.3488,4.3488,4.3488,0.0,0.0,0.0,0.0,0.0,0.0,0.0,0.0,0.0,4.3745,4.436,0.0,4.4764,0.0,4.5792,4.5902,4.5902,4.6443,0.0,0.0,4.7342,4.7737,4.7746,4.7893,4.8003,4.8021,4.8186,4.8315,4.8315,4.8315,4.8315,4.8315,4.8315,4.8315,4.8315,4.8315,4.8315,4.8315,4.8315,4.8315,4.837,4.8315,4.8351,4.8315,4.8315,4.8315,4.8315,4.8315,4.8315,4.8315,4.8315,4.8315,4.8315,4.8315,4.8315,4.8315,4.8315,4.826,4.8039,4.8003,4.7948,4.7581,4.7293,4.7293,4.6648,4.5582,4.5565,4.5582,4.5582,4.5582,4.5396,4.506,4.4736,4.4584,4.4584,4.4584,4.4584,4.4584,4.4584,4.4584,4.4584,4.4584,4.4584,4.4567,4.4144,4.3927,4.391,4.3166,4.278,4.2783,4.2585,4.2817,4.3435,4.356,4.3946,4.448,4.357,4.3187,4.3479,4.3488,4.3488,4.3506,4.3855,4.4048,4.4048,4.4387,4.4571,4.4562,4.4571,4.4571,4.4571,4.4232,4.4195,4.4534,4.424,4.4195,0.0,0.0,0.0,0.0,0.0,0.0,0.0,0.0,0.0,0.0,0.0,4.5562,4.637,4.6755,4.6966,4.6966,4.7379,4.7636,4.7626,4.8021,4.8315,4.8315,4.8315,4.8315,4.8315,4.8315,4.8315,4.8315,4.8315,4.8315,4.8315,4.8636,4.8728,4.837,4.8315,4.8315,4.8315,4.8618,4.9022,4.9342,4.9416,4.9416,4.937,4.9114,4.8875,4.8857,4.8545,4.8315,4.8315,4.8315,4.8315,4.8315,4.8315,4.8315,4.8315,4.8315,4.8315,4.8315,4.8315,4.8315,4.8629,4.8056,4.8039,4.765,4.7073,4.7088,4.6972,4.6786,4.6786,4.643,4.579,4.5159,4.4821,4.4753,4.4736,4.4685,4.4598,4.4584,4.4584,4.4584,4.4584,4.4584,4.4584,4.4584,4.4584,4.455,4.3893,4.3558,4.3565,4.3875,4.4089,4.4293,4.5206,4.5736,4.5847,4.4516,4.38,4.38,4.38,4.38,4.3818,4.4488,4.4847,4.4883,4.5535,4.5902,4.5902,4.5902,4.5902,4.5865,4.5241,4.5177,4.5828,4.5241,4.5186,0.0,4.5902,0.0,0.0,0.0,0.0,0.0,0.0,0.0,0.0,4.614,4.6507,4.7186,4.7893,4.8315,4.8315,4.8315,4.8361,4.8453,4.8462,4.8498,4.8608,4.8608,4.8608,4.8608,4.8618,4.8627,4.8682,4.8608,4.8627,4.8765,4.9315,4.9481,4.8838,4.8718,4.8755,4.8627,4.9252,4.9968,5.0508,5.0729,5.07,5.0674,5.0206,4.9776,4.9747,4.9068,4.848,4.848,4.8406,4.8315,4.8315,4.8315,4.8315,4.8315,4.8315,4.8315,4.8315,4.8315,4.8315,4.8917,4.88,4.8781,4.8714,4.8578,4.8595,4.7902,4.6786,4.6786,4.6718,4.6597,4.643,4.6058,4.5517,4.5483,4.5162,4.4584,4.4584,4.4584,4.4584,4.4584,4.4584,4.4584,4.4584,4.4584,4.4584,4.4462,4.4381,4.4364,4.3813,4.4025,4.4957,4.4625,4.4931,4.5847,0.0,0.0,0.0,4.5452,4.5443,4.5443,4.559,4.5663,4.5681,4.5828,0.0,4.5902,4.5902,4.5902,4.5883,4.5755,0.0,0.0,0.0,0.0,0.0,0.0,0.0,0.0,0.0,0.0,0.0,4.6727,4.6709,4.6856,4.7471,4.7911,4.8058,4.8205,4.8315,4.8315,4.8315,4.8581,4.927,4.9362,4.9619,5.0233,5.0325,5.0333,5.0325,5.0325,5.0325,5.0251,5.0343,5.0306,5.0241,5.0472,5.0508,5.0343,5.0241,5.0306,5.0343,5.0472,5.0637,5.0765,5.0875,5.0967,5.0765,5.0729,5.0582,5.0508,4.9913,4.9362,4.9307,4.8783,4.8333,4.8315,4.8315,4.8315,4.8315,4.8315,4.8315,4.8315,4.8315,4.8315,4.9018,0.0,4.9018,4.9018,0.0,4.9018,4.8578,4.79,4.7885,4.7682,4.7327,4.6955,4.6599,4.621,4.5872,4.5517,4.5142,4.4767,4.4584,4.4584,4.4584,4.4584,4.4584,4.4584,4.4584,4.4584,4.4584,4.4584,4.4595,4.45,4.4892,4.5776,4.5753,4.6186,4.7048,4.7076,4.6709,4.5902,4.5902,4.5902,4.592,4.6287,4.6498,4.6516,4.6874,0.0,0.0,0.0,0.0,0.0,0.0,0.0,0.0,4.6728,0.0,4.7058,4.7076,4.7076,4.7076,4.7095,4.726,4.7654,4.7709,4.7691,4.7691,4.8058,4.8315,4.8315,4.8691,4.894,4.8948,4.9297,4.9691,5.0123,5.0188,5.039,5.0729,5.082,5.082,5.082,5.082,5.082,5.082,5.082,5.082,5.0839,5.1169,5.14,5.1334,5.1041,5.0912,5.1316,5.1389,5.1555,5.1893,5.1985,5.1966,5.1958,5.1646,5.1408,5.1389,5.0729,5.0078,4.9702,4.9233,4.8838,4.8388,4.8315,4.8315,4.8315,4.8315,4.8315,4.8315,4.8315,4.8315,4.9018,4.9018,4.9018,4.9018,4.9018,4.9018,4.9018,4.9018,0.0,0.0,0.0,4.7445,4.7107,4.6969,4.6363,4.601,4.5855,4.5125,4.4787,4.4787,4.4651,4.4584,4.4584,4.4584,4.4584,4.4584,4.4584,4.4584,4.4612,4.5205,4.5808,4.6419,4.7073,4.7687,4.8267,4.8315,4.7654,4.6397,4.6305,4.6324,4.6342,4.6975,4.7314,4.7296,4.7948,4.8315,4.8315,4.8315,4.8315,4.8278,4.7663,4.7599,4.8223,4.7663,4.759,4.8223,4.8315,4.8315,4.8315,4.8315,4.8315,4.8315,4.8434,4.8471,4.8333,4.8453,4.8526,4.8517,4.9307,4.9802,4.9812,5.0398,5.0857,5.0986,5.1022,5.1059,5.1206,5.1224,5.1316,5.1232,5.1306,5.1242,5.1316,5.1306,5.1224,5.1316,5.1848,5.2197,5.2142,5.172,5.1573,5.2087,5.2215,5.2435,5.2986,5.3104,5.3196,5.3031,5.2582,5.2234,5.2087,5.1536,5.0802,5.028,4.9886,4.9325,4.8691,4.8434,4.8315,4.8315,4.8315,4.8315,4.8315,4.8315,4.8315,4.9018,4.9018,4.9018,4.9018,4.9018,4.9018,4.9018,4.9018,4.9018,4.8951,4.8849,4.8748,4.8342,4.7752,4.7618,4.7242,4.6631,4.5889,4.5534,4.5517,4.4888,4.4584,4.4584,4.4584,4.4584,4.4584,4.4584,4.4584,4.4668,4.5188,4.5808,4.6407,4.7084,4.7687,4.8258,4.8315,4.8186,4.7948,4.7976,4.7957,4.7966,4.8076,4.8131,4.8131,4.8223,4.8315,4.8315,4.8315,4.8315,4.8296,4.8186,4.8186,4.8296,4.8168,4.8168,4.8296,4.8315,4.8315,4.8315,4.8315,4.8315,4.8351,4.8995,4.9105,4.8398,4.8995,4.9427,4.9445,5.016,5.0618,5.0637,5.0765,5.1169,5.173,5.184,5.2097,5.2682,5.2774,5.2755,5.2737,5.2847,5.2792,5.2719,5.2737,5.2719,5.2829,5.2792,5.2994,5.2939,5.2939,5.2902,5.3012,5.3031,5.3086,5.3159,5.3196,5.3196,5.3196,5.3086,5.2939,5.292,5.2325,5.1767,5.1638,5.0537,4.9684,4.9362,4.8783,4.8406,4.8315,4.8315,4.8315,4.8315,4.8315,4.8315,4.983,5.0119,4.9763,4.9593,4.956,4.9171,4.9018,4.9018,4.9018,4.9018,4.9018,4.9018,4.8815,4.8462,4.8073,4.7735,4.7361,4.6633,4.6075,4.5689,4.5365,4.499,4.4601,4.4584,4.4584,4.4584,4.4584,4.4584,4.4626,4.491,4.532,4.594,4.6916,4.7541,4.7808,4.8142,4.8315,4.8315,4.8315,4.8315,4.8315,4.8315,4.8315,4.8315,4.8315,4.8315,4.8315,4.8315,4.8315,4.8315,4.8315,4.8315,4.8315,4.8315,4.8315,4.8315,4.8315,4.8315,4.8315,4.8746,4.9013,4.9031,4.9784,5.0086,4.9701,5.0013,5.0233,5.027,5.0967,5.1444,5.1463,5.1848,5.2242,5.2619,5.2656,5.2803,5.3104,5.3196,5.3196,5.3196,5.3196,5.3196,5.3196,5.3196,5.3196,5.3196,5.3196,5.3196,5.3196,5.3196,5.3196,5.3196,5.3196,5.3196,5.3196,5.3196,5.3196,5.3196,5.3196,5.3196,5.3196,5.2821,5.2509,5.2042,5.1014,5.017,4.9729,4.8893,4.8425,4.8315,4.8315,4.8315,4.8315,4.8315,4.8315,5.0693,5.115,5.0591,5.0353,5.0287,4.9746,4.9407,4.9255,4.9255,4.9154,4.9018,4.9018,4.9018,4.8951,4.8394,4.814,4.8039,4.7394,4.672,4.6213,4.6024,4.5565,4.4905,4.4855,4.477,4.4601,4.4584,4.4584,4.4612,4.4734,4.5102,4.5757,4.6842,4.7396,4.7435,4.7987,4.8315,4.8315,4.8315,4.8315,4.8315,4.8315,4.8315,4.8315,4.8315,4.8315,4.8315,4.8315,4.8315,4.8315,4.8315,4.8315,4.8315,4.8315,4.8315,4.8315,4.8315,4.8398,4.8636,4.9399,4.9858,4.9886,5.0618,5.1077,5.1077,5.1232,5.1232,5.1206,5.1793,5.2281,5.2325,5.2774,5.3196,5.3196,5.3196,5.3177,5.3196,5.3196,5.3196,5.3196,5.3196,5.3196,5.3196,5.3196,5.3196,5.3196,5.3196,5.3196,5.3196,5.3196,5.3196,5.3196,5.3196,5.3196,5.3196,5.3196,5.3196,5.3196,5.3196,5.3196,5.3177,5.3196,5.2994,5.2344,5.1444,5.0637,4.9931,4.9003,4.8425,4.8315,4.8315,4.8315,4.8315,4.8315,4.8315,5.115,5.1184,5.1133,5.11,5.1066,5.0981,5.0591,5.0033,4.9998,4.961,4.9069,4.9018,4.9018,4.9001,4.8917,4.8883,4.88,4.8124,4.7752,4.7566,4.7005,4.6312,4.5635,4.5587,4.5246,4.4685,4.4632,4.4635,4.4626,4.5115,4.5699,4.6324,4.7044,4.7345,4.7449,4.7985,4.8287,4.8315,4.8315,4.8315,4.8315,4.8315,4.8315,4.8315,4.8315,4.8315,4.8315,4.8315,4.8315,4.8315,4.8315,4.8315,4.8315,4.8315,4.8315,4.8333,4.8333,4.8636,4.9435,5.0233,5.0692,5.0747,5.1436,5.1895,5.1914,5.2546,5.2656,5.2197,5.2609,5.3012,5.3086,5.3159,5.3196,5.3196,5.3196,5.3196,5.3196,5.3196,5.3196,5.3196,5.3196,5.3196,5.3196,5.3196,5.3196,5.3196,5.3196,5.3196,5.3196,5.3196,5.3196,5.3196,5.3196,5.3196,5.3196,5.3196,5.3196,5.3196,5.3196,5.3196,5.3196,5.3196,5.3122,5.2829,5.1738,5.0784,5.0362,4.9471,4.8351,4.8315,4.8315,4.8315,4.8315,4.8315,4.8315,5.2131,5.252,5.2046,5.1573,5.1235,5.1218,5.1048,5.076,5.0728,5.0338,4.9695,4.9644,4.9407,4.9018,4.9018,4.9018,4.8984,4.8682,4.8293,4.7904,4.7566,4.7056,4.6413,4.6346,4.5957,4.5294,4.5229,4.5024,4.4708,4.4855,4.5089,4.5385,4.5952,4.646,4.6813,4.7449,4.7955,4.8305,4.8315,4.8315,4.8315,4.8315,4.8315,4.8315,4.8315,4.8315,4.8315,4.8315,4.8315,4.8315,4.8315,4.8315,4.8315,4.8783,4.9058,4.9105,4.9517,4.9921,5.0288,5.1069,5.151,5.1518,5.2252,5.2711,5.2729,5.3023,5.3031,5.2829,5.3012,5.3196,5.3196,5.3196,5.3196,5.3196,5.3196,5.3196,5.3196,5.3196,5.3196,5.3196,5.3196,5.3196,5.3196,5.3196,5.3196,5.3196,5.3196,5.3196,5.3196,5.3196,5.3196,5.3196,5.3196,5.3196,5.3196,5.3196,5.3196,5.3196,5.3196,5.3196,5.3196,5.3196,5.3196,5.3196,5.182,5.0894,5.0784,4.9489,4.8315,4.8315,4.8315,4.8315,4.8315,4.8315,4.8315,5.2959,5.3349,5.2875,5.2334,5.1844,5.1827,5.1691,5.1505,5.1505,5.1082,5.0405,5.0185,4.9812,4.9323,4.9103,4.9018,4.9018,4.9018,4.8731,4.8225,4.8208,4.7819,4.7158,4.709,4.6701,4.6109,4.6007,4.5618,4.4939,4.4666,4.4584,4.4679,4.5205,4.5808,4.6389,4.7066,4.7824,4.8588,4.8655,4.8746,4.8957,4.8985,4.8783,4.837,4.8526,4.8673,4.8655,4.8857,4.8975,4.8975,4.8975,4.8975,4.9022,4.9601,4.9941,5.0004,5.0692,5.1132,5.1132,5.1867,5.2344,5.238,5.2913,5.3196,5.3196,5.3196,5.3196,5.3177,5.3196,5.3196,5.3196,5.3196,5.3196,5.3196,5.3196,5.3196,5.3196,5.3196,5.3196,5.3196,5.3196,5.3196,5.3196,5.3196,5.3196,5.3196,5.3196,5.3196,5.3196,5.3196,5.3196,5.3196,5.3196,5.3196,5.3196,5.3196,5.3196,5.3196,5.3196,5.3196,5.3196,5.3196,5.3196,5.3049,5.172,5.0875,5.0674,4.9536,4.8315,4.8315,4.8315,4.8315,4.8315,4.8315,4.8315,5.3467,5.3501,5.345,5.3382,5.3365,5.3348,5.2942,5.2266,5.2266,5.186,5.11,5.0473,5.0084,5.0015,4.9373,4.9018,4.9018,4.9018,4.8968,4.8883,4.8917,4.8562,4.787,4.7836,4.7464,4.6786,4.6752,4.638,4.5652,4.4976,4.4584,4.4674,4.5306,4.584,4.6489,4.7104,4.8112,4.9317,4.945,4.9866,5.0508,5.0618,4.9848,4.8673,4.9105,4.9527,4.9619,5.0251,5.0637,5.0655,5.0582,5.0618,5.0655,5.07,5.0747,5.0875,5.1499,5.195,5.2042,5.2656,5.3086,5.3122,5.3122,5.3196,5.3196,5.3196,5.3196,5.3196,5.3196,5.3196,5.3196,5.3196,5.3196,5.3196,5.3196,5.3196,5.3196,5.3196,5.3196,5.3196,5.3196,5.3196,5.3196,5.3196,5.3196,5.3196,5.3196,5.3196,5.3196,5.3196,5.3196,5.3196,5.3196,5.3196,5.3196,5.3196,5.3196,5.3196,5.3196,5.3196,5.3196,5.3196,5.3196,5.2865,5.1654,5.0875,5.0527,4.9774,4.8663,4.8315,4.8315,4.8315,4.8315,4.8315,4.8315,5.3501,5.3501,5.3501,5.3501,5.3501,5.3501,5.3315,5.3078,5.3078,5.2621,5.1961,5.1623,5.1251,5.076,5.0033,4.9441,4.9035,4.9018,4.9018,4.9018,4.9018,4.8866,4.8631,4.8597,4.8208,4.7614,4.7513,4.7124,4.6464,4.6109,4.6005,4.6034,4.6215,4.6632,4.7182,4.7474,4.827,4.9514,4.9665,5.0047,5.0772,5.082,5.049,4.9966,5.0196,5.0372,5.0362,5.0655,5.082,5.082,5.082,5.082,5.0857,5.1298,5.1811,5.2297,5.2609,5.2755,5.2792,5.3031,5.3196,5.3196,5.3196,5.3196,5.3196,5.3196,5.3196,5.3196,5.3196,5.3196,5.3196,5.3196,5.3196,5.3196,5.3196,5.3196,5.3196,5.3196,5.3196,5.3196,5.3196,5.3196,5.3196,5.3196,5.3196,5.3196,5.3196,5.3196,5.3196,5.3196,5.3196,5.3196,5.3196,5.3196,5.3196,5.3196,5.3196,5.3196,5.3196,5.3196,5.3196,5.3122,5.3086,5.2472,5.1426,5.0508,5.005,4.9334,4.8388,4.8315,4.8315,4.8315,4.8315,4.8315,4.8315,5.3501,5.3501,5.3501,5.3501,5.3501,5.3501,5.3501,5.3501,5.3484,5.3179,5.2723,5.2418,5.2012,5.1472,5.0794,5.0219,4.9662,4.9255,4.9018,4.9018,4.9018,4.9018,4.9018,4.9018,4.8748,4.8259,4.7988,4.7616,4.7175,4.6904,4.6786,4.6769,4.6786,4.7098,4.7631,4.7938,4.8731,4.9855,5.0303,5.0812,5.1477,5.1563,5.1573,5.1563,5.1591,5.1426,5.1206,5.1426,5.1573,5.1563,5.1563,5.1581,5.1646,5.2105,5.2619,5.3122,5.3196,5.3196,5.3196,5.3196,5.3196,5.3196,5.3196,5.3196,5.3196,5.3196,5.3196,5.3196,5.3196,5.3196,5.3196,5.3196,5.3196,5.3196,5.3196,5.3196,5.3196,5.3196,5.3196,5.3196,5.3196,5.3196,5.3196,5.3196,5.3196,5.3196,5.3196,5.3196,5.3196,5.3196,5.3196,5.3196,5.3196,5.3196,5.3196,5.3177,5.3141,5.3141,5.3086,5.3122,5.2957,5.2902,5.2601,5.1958,5.1161,5.0225,4.9407,4.8728,4.8453,4.8333,4.8315,4.8315,4.8315,4.8315,4.8315,5.3501,5.3501,5.3501,5.345,5.3365,5.3467,5.3501,5.3365,5.3467,5.3433,5.3264,5.2689,5.2385,5.2164,5.1522,5.1184,5.0897,4.983,4.9204,4.912,4.9035,4.9018,4.9018,4.9018,4.9001,4.8866,4.8259,4.7954,4.7887,4.7344,4.7022,4.6904,4.702,4.7347,4.7758,4.8448,4.9424,5.0544,5.131,5.216,5.3057,5.2973,5.2957,5.3031,5.3031,5.2692,5.2042,5.2692,5.2994,5.3031,5.3067,5.3159,5.2994,5.3067,5.3159,5.3177,5.3196,5.3196,5.3196,5.3196,5.3196,5.3196,5.3196,5.3196,5.3196,5.3196,5.3196,5.3196,5.3196,5.3196,5.3196,5.3196,5.3196,5.3196,5.3196,5.3196,5.3196,5.3196,5.3196,5.3196,5.3196,5.3196,5.3196,5.3196,5.3196,5.3196,5.3196,5.3196,5.3196,5.3196,5.3196,5.3122,5.2976,5.2847,5.3012,5.3159,5.3104,5.3049,5.2976,5.2913,5.248,5.2289,5.1848,5.1253,5.028,4.9352,4.8985,4.8406,4.8388,4.8315,4.8315,4.8315,4.8315,4.8315,4.8315,5.3501,5.3501,5.3501,5.3042,5.2557,5.3179,5.311,5.254,5.3144,5.3501,5.345,5.3247,5.3145,5.2942,5.2317,5.1961,5.186,5.093,5.0254,4.9763,4.9272,4.9018,4.9018,4.9018,4.9018,4.8984,4.8781,4.8663,4.858,4.8392,4.8308,4.8325,4.8291,4.8397,4.855,4.8866,4.9425,5.0228,5.1012,5.1712,5.2445,5.2948,5.3185,5.3196,5.3196,5.3067,5.2847,5.3086,5.3196,5.3196,5.3196,5.3196,5.3196,5.3196,5.3196,5.3196,5.3196,5.3196,5.3196,5.3196,5.3196,5.3196,5.3196,5.3196,5.3196,5.3196,5.3196,5.3196,5.3196,5.3196,5.3196,5.3196,5.3164,5.3185,5.3196,5.3164,5.3124,5.3185,5.3196,5.3196,5.3196,5.3196,5.3196,5.3196,5.3196,5.3177,5.3177,5.3141,5.3148,5.3049,5.2902,5.2527,5.2435,5.2234,5.2105,5.2003,5.193,5.204,5.216,5.227,5.1922,5.1463,5.1041,5.0398,4.9426,4.8857,4.8462,4.8315,4.8315,4.8315,4.8315,4.8315,4.8315,4.8315,4.8315,5.2904,5.2853,5.2521,5.1974,5.1431,5.2098,5.2205,5.1993,5.2592,5.311,5.3433,5.3484,5.3501,5.3399,5.2959,5.2756,5.2672,5.1945,5.1369,5.0777,4.9813,4.9289,4.9052,4.9018,4.9018,4.9018,4.9001,4.9018,4.9018,4.9018,4.9001,4.9001,4.9018,4.9,4.9048,4.9288,4.9622,5.0104,5.099,5.1685,5.2148,5.2813,5.3196,5.3196,5.3196,5.3196,5.3196,5.3196,5.3196,5.3196,5.3196,5.3196,5.3196,5.3196,5.3196,5.3196,5.3196,5.3196,5.3196,5.3196,5.3196,5.3196,5.3196,5.3196,5.3196,5.3196,5.3196,5.3196,5.3196,5.3196,5.3175,5.2915,5.282,5.278,5.2758,5.2791,5.282,5.3042,5.3185,5.3196,5.3196,5.3196,5.3196,5.3196,5.3196,5.3177,5.2939,5.2755,5.2682,5.2454,5.2032,5.1701,5.161,5.1334,5.0986,5.0839,5.0729,5.0894,5.1114,5.1261,5.1206,5.0637,5.0151,4.9536,4.8673,4.8636,4.8315,4.8315,4.8315,4.8315,4.8315,4.8315,4.8315,4.8315,4.8315,5.1831,5.1704,5.0833,5.0455,5.0339,5.0512,5.0949,5.1559,5.1795,5.2382,5.3178,5.3247,5.3382,5.3467,5.3399,5.3365,5.3332,5.2739,5.2266,5.1826,5.0912,4.9965,4.9272,4.9086,4.9018,4.9018,4.9018,4.9018,4.9018,4.9018,4.9018,4.9018,4.9018,4.9018,4.9092,4.9605,4.9806,4.999,5.1223,5.1916,5.2042,5.282,5.3196,5.3196,5.3196,5.3196,5.3196,5.3196,5.3196,5.3196,5.3196,5.3196,5.3196,5.3196,5.3196,5.3196,5.3196,5.3196,5.3196,5.3196,5.3196,5.3196,5.3196,5.3196,5.3196,5.3196,5.3196,5.3196,5.3196,5.3196,5.3082,5.2617,5.2201,5.1976,5.2101,5.2213,5.2259,5.2842,5.3135,5.3196,5.3196,5.3196,5.3177,5.3141,5.3031,5.2902,5.2417,5.2013,5.1848,5.1555,5.0957,5.0784,5.0747,5.0398,5.005,4.9884,4.9774,4.9774,4.9976,5.0123,5.0251,4.9774,4.9389,4.8765,4.8416,4.8333,4.8315,4.8315,4.8315,4.8315,4.8315,4.8315,4.8315,4.8315,4.8315,5.0798,5.076,5.0509,4.995,4.9396,5.0029,5.0048,4.9793,5.0496,5.1375,5.217,5.2312,5.2749,5.345,5.3467,5.3501,5.3416,5.3264,5.2807,5.2317,5.1961,5.0963,4.9881,4.9238,4.9035,4.9052,4.9035,4.9018,4.9018,4.9018,4.9018,4.9018,4.9018,4.9018,4.9061,4.9212,4.9273,4.9464,5.0649,5.1381,5.1586,5.2606,5.3175,5.3196,5.3196,5.3196,5.3196,5.3196,5.3196,5.3196,5.3196,5.3196,5.3196,5.3196,5.3196,5.3196,5.3196,5.3196,5.3196,5.3196,5.3196,5.3196,5.3196,5.3196,5.3196,5.3196,5.3196,5.3196,5.3196,5.3146,5.3042,5.2468,5.1704,5.0889,5.1438,5.2224,5.2691,5.3042,5.3196,5.3196,5.3196,5.3141,5.3031,5.2674,5.2344,5.2197,5.1683,5.1096,5.1022,5.082,5.0343,5.0004,4.9839,4.9462,4.915,4.8967,4.8838,4.8718,4.8792,4.8884,4.8975,4.8829,4.8627,4.8333,4.8351,4.8315,4.8315,4.8315,4.8315,4.8315,4.8315,4.8315,4.8315,4.8315,4.8315,4.9714,4.9694,4.9287,4.8733,4.8267,4.8856,4.8963,4.8948,4.9436,5.032,5.1099,5.1283,5.1849,5.2766,5.2835,5.311,5.345,5.3501,5.3247,5.2841,5.2418,5.1623,5.0608,4.9813,4.9458,4.9407,4.9154,4.9018,4.9018,4.9018,4.9018,4.9018,4.9018,4.9018,4.9018,4.9018,4.9001,4.9273,5.0338,5.1099,5.1202,5.2463,5.3092,5.3196,5.3196,5.3196,5.3196,5.3196,5.3196,5.3196,5.3196,5.3196,5.3196,5.3196,5.3196,5.3196,5.3196,5.3196,5.3196,5.3196,5.3196,5.3196,5.3196,5.302,5.2809,5.2736,5.2684,5.2307,5.2572,5.2554,5.226,5.1643,5.0898,5.0366,5.1003,5.185,5.2277,5.2809,5.3124,5.3141,5.292,5.2692,5.2682,5.1977,5.161,5.1353,5.0794,5.0463,5.0261,5.0013,4.9756,4.9399,4.916,4.8893,4.8755,4.8627,4.8572,4.8406,4.837,4.8315,4.8315,4.8315,4.8315,4.8315,4.8315,4.8315,4.8315,4.8315,4.8315,4.8315,4.8315,4.8315,4.8315,4.8315,4.8315,4.8852,4.8789,4.789,4.7519,4.7592,4.7487,4.8065,4.8635,4.8661,4.9235,5.0068,5.0223,5.0949,5.1885,5.2117,5.2505,5.3484,5.3501,5.3484,5.3196,5.2824,5.2114,5.1573,5.0625,5.0253,5.0101,4.9475,4.9238,4.9187,4.912,4.9018,4.9018,4.9018,4.9018,4.9018,4.9001,4.9048,4.9389,5.0435,5.1159,5.1469,5.2527,5.3153,5.3196,5.3196,5.3196,5.3196,5.3196,5.3196,5.3196,5.3196,5.3196,5.3196,5.3196,5.3196,5.3196,5.3196,5.3196,5.3164,5.3092,5.3031,5.2988,5.2926,5.2736,5.2154,5.2006,5.182,5.1411,5.1685,5.1722,5.1343,5.0581,5.0376,5.031,5.0765,5.0924,5.1223,5.2233,5.3086,5.3012,5.2344,5.194,5.1675,5.1224,5.0655,5.06,5.0023,4.9582,4.938,4.9169,4.893,4.8673,4.8508,4.8406,4.837,4.8351,4.837,4.8315,4.8333,4.8315,4.8315,4.8315,4.8315,4.8315,4.8315,4.8315,4.8315,4.8315,4.8315,4.8315,4.8315,4.8315,4.8315,4.8315,4.8315,4.9205,4.9198,4.8954,4.8873,4.8783,4.8334,4.8211,4.839,4.7878,4.8313,4.8988,4.917,5.0227,5.1867,5.1903,5.2488,5.3399,5.3501,5.3501,5.3484,5.3365,5.3196,5.2689,5.1674,5.1015,5.0795,5.0219,4.9881,4.9795,4.9357,4.9018,4.9052,4.9035,4.9018,4.9018,4.9017,4.9286,4.9821,5.0662,5.1343,5.1892,5.2669,5.3196,5.3196,5.3196,5.3196,5.3196,5.3196,5.3196,5.3196,5.3196,5.3196,5.3196,5.3196,5.3196,5.3196,5.3196,5.3196,5.3114,5.2758,5.234,5.2381,5.206,5.1469,5.1368,5.1305,5.1241,5.1117,5.1246,5.1202,5.1021,5.0942,5.0627,5.0484,5.0344,5.0233,5.0437,5.1414,5.2121,5.2045,5.1513,5.1059,5.1012,5.0335,4.9931,4.9766,4.9334,4.8728,4.8545,4.8434,4.837,4.8315,4.8315,4.8315,4.8315,4.8315,4.8315,4.8315,4.8315,4.8315,4.8315,4.8315,4.8315,4.8315,4.8315,4.8315,4.8315,4.8315,4.8315,4.8315,4.8315,4.8315,4.8315,4.8315,4.8315,4.9277,4.9277,4.9277,4.9277,4.9232,4.8917,4.8783,4.8633,4.8042,4.8054,4.8502,4.8702,4.9698,5.1192,5.1722,5.2488,5.3297,5.3501,5.3501,5.3501,5.3467,5.3484,5.3433,5.2739,5.2114,5.1691,5.0964,5.0659,5.0422,4.9932,4.9558,4.9458,4.9204,4.9018,4.9018,4.9017,4.9359,4.9976,5.0712,5.1431,5.2101,5.2809,5.3196,5.3196,5.3196,5.3196,5.3196,5.3196,5.3196,5.3196,5.3196,5.3196,5.3196,5.3196,5.3196,5.3196,5.3196,5.3196,5.306,5.2853,5.2509,5.2083,5.1747,5.1215,5.081,5.0581,5.0393,5.0286,5.0352,5.0581,5.0554,5.0202,5.0073,4.9663,4.9583,4.9361,4.928,5.0205,5.104,5.0842,5.0233,5.0083,4.9809,4.9431,4.9169,4.8994,4.8985,4.8443,4.8443,4.8351,4.8351,4.8315,4.8315,4.8315,4.8315,4.8315,4.8315,4.8315,4.8315,4.8315,4.8315,4.8315,4.8315,4.8315,4.8315,4.8315,4.8315,4.8315,4.8315,4.8315,4.8315,4.8315,4.8315,4.8315,4.8315,4.9591,4.9591,4.9576,4.9591,4.9576,4.9486,4.9426,4.9337,4.8738,4.8423,4.8353,4.8613,4.9358,5.0432,5.1245,5.2277,5.323,5.3501,5.3501,5.3501,5.3501,5.3501,5.345,5.3281,5.2993,5.2435,5.1725,5.1403,5.1183,5.0659,5.0287,5.0135,4.9526,4.9323,4.9221,4.9065,4.9449,5.0241,5.0805,5.1556,5.2247,5.2926,5.3164,5.3196,5.3196,5.3196,5.3196,5.3196,5.3196,5.3196,5.3196,5.3196,5.3196,5.3196,5.3196,5.3196,5.3196,5.3196,5.3092,5.2872,5.2429,5.1982,5.1593,5.1029,5.0146,4.9835,4.9652,4.9548,4.9649,5.0185,5.0118,4.9614,4.9049,4.8695,4.8771,4.8249,4.8028,4.8741,4.9111,4.9607,4.9151,4.8896,4.892,4.8739,4.8477,4.8277,4.8305,4.8315,4.8315,4.8315,4.8315,4.8315,4.8315,4.8315,4.8315,4.8315,4.8315,4.8315,4.8315,4.8315,4.8315,4.8315,4.8315,4.8315,4.8315,4.8315,4.8315,4.8315,4.8315,4.8315,4.8315,4.8315,4.8315,4.8315,4.8354,5.0877,5.0877,5.09,5.0885,5.0795,5.0293,5.0039,4.9934,4.9411,4.8828,4.8408,4.8417,4.9233,5.0227,5.0512,5.172,5.3178,5.3501,5.3501,5.3501,5.3501,5.3501,5.3501,5.3484,5.3365,5.3129,5.2536,5.2147,5.1945,5.1404,5.1065,5.0846,5.0202,4.9863,4.9661,4.9433,4.9637,5.0595,5.1021,5.1661,5.2702,5.3053,5.3196,5.3196,5.3196,5.3196,5.3196,5.3196,5.3196,5.3196,5.3196,5.3196,5.3196,5.3196,5.3196,5.3196,5.3196,5.3185,5.3009,5.2149,5.1574,5.1051,5.0435,4.9737,4.9284,4.9195,4.9182,4.9273,4.9563,5.0171,5.0819,4.9579,4.9528,4.9481,4.8389,4.7147,4.6893,4.6934,4.7365,4.8233,4.7975,4.7841,4.8099,4.8301,4.8262,4.8238,4.8315,4.8315,4.8315,4.8315,4.8315,4.8315,4.8315,4.8315,4.8315,4.8315,4.8315,4.8315,4.8315,4.8315,4.8315,4.8315,4.8315,4.8315,4.8315,4.8315,4.8315,4.8315,4.8315,4.8315,4.8315,4.8324,4.8364,4.843,4.8586,5.1206,5.1206,5.1206,5.1206,5.1146,5.0877,5.0712,5.0622,5.0039,4.9598,4.9314,4.9211,4.9771,5.0714,5.1118,5.208,5.3144,5.3501,5.3501,5.3501,5.3501,5.3501,5.3501,5.3501,5.3501,5.3382,5.3095,5.2892,5.2858,5.2131,5.1826,5.1488,5.0693,5.0117,4.9947,4.9388,4.9864,5.077,5.1164,5.1777,5.306,5.3185,5.3185,5.3196,5.3185,5.3196,5.3196,5.3196,5.3196,5.3196,5.3196,5.3196,5.3196,5.3196,5.3196,5.3196,5.3175,5.298,5.2695,5.1886,5.1419,5.0554,4.9824,4.9374,4.9107,4.9032,4.9018,4.9094,4.9184,4.9607,4.9879,4.9002,4.8664,4.8416,4.7257,4.6229,4.5757,4.561,4.6235,4.7055,4.6985,4.7147,4.7736,4.7903,4.8035,4.8162,4.8258,4.8287,4.8277,4.8315,4.8315,4.8315,4.8315,4.8315,4.8315,4.8315,4.8315,4.8315,4.8315,4.8315,4.8315,4.8315,4.8315,4.8315,4.8315,4.8315,4.8315,4.8315,4.8315,4.8324,4.8344,4.8383,4.8477,4.8595,4.878,5.1206,5.1206,5.1206,5.1206,5.1206,5.1206,5.1191,5.1086,5.0637,5.0285,5.0169,5.0014,5.0393,5.1328,5.2024,5.2731,5.3484,5.3501,5.3501,5.3501,5.3501,5.3501,5.3501,5.3501,5.3501,5.3484,5.3433,5.3501,5.3331,5.2841,5.2587,5.2232,5.1166,5.0438,5.027,4.9712,5.0189,5.0666,5.1125,5.1825,5.285,5.3071,5.3082,5.3143,5.3063,5.2999,5.3175,5.3196,5.3196,5.3196,5.3196,5.3196,5.3196,5.3196,5.3196,5.3175,5.3082,5.2633,5.2247,5.1618,5.0964,5.0181,4.9907,4.9492,4.9212,4.9018,4.9018,4.9018,4.9048,4.9061,4.9088,4.8205,4.7549,4.6959,4.6215,4.5323,4.5068,4.5002,4.5206,4.5736,4.594,4.6454,4.7084,4.7062,4.7077,4.7767,4.7897,4.8172,4.8181,4.8287,4.8315,4.8315,4.8315,4.8315,4.8315,4.8315,4.8315,4.8315,4.8315,4.8315,4.8315,4.8315,4.8315,4.8315,4.8315,4.8315,4.8315,4.8324,4.8315,4.8325,4.8373,4.8495,4.8658,4.8881,4.9094,5.1206,5.1206,5.1206,5.1206,5.1206,5.1206,5.1206,5.1176,5.1126,5.0727,5.0439,5.0299,5.0773,5.1599,5.2766,5.3314,5.3467,5.3501,5.3501,5.3501,5.3501,5.3501,5.3501,5.3501,5.3501,5.3501,5.3501,5.3501,5.345,5.3331,5.3298,5.3027,5.2334,5.1691,5.0879,5.0168,5.0393,5.0933,5.1073,5.1734,5.2747,5.2554,5.2662,5.282,5.2747,5.2662,5.3124,5.3196,5.3196,5.3196,5.3196,5.3196,5.3196,5.3196,5.3196,5.3009,5.2662,5.2183,5.1892,5.1094,5.0376,4.9879,4.9566,4.9167,4.9228,4.9168,4.9123,4.9018,4.9001,4.8908,4.8626,4.77,4.7059,4.6348,4.5574,4.5032,4.4709,4.472,4.4923,4.5089,4.5507,4.5927,4.6448,4.6233,4.6149,4.6921,4.7583,4.7868,4.8114,4.8248,4.8315,4.8315,4.8315,4.8315,4.8315,4.8315,4.8315,4.8315,4.8315,4.8315,4.8315,4.8315,4.8315,4.8315,4.8315,4.8373,4.8448,4.843,4.8354,4.8439,4.8649,4.8771,4.8864,4.9118,4.939,5.1206,5.1206,5.1206,5.1206,5.1206,5.1206,5.1206,5.1339,5.188,5.1986,5.183,5.2054,5.222,5.2514,5.3205,5.3484,5.3501,5.3501,5.3501,5.3501,5.3501,5.3501,5.3501,5.3501,5.3501,5.3501,5.3501,5.3501,5.3501,5.3501,5.3501,5.3365,5.2723,5.1877,5.1218,5.0473,5.0303,5.052,5.0876,5.1368,5.1862,5.2077,5.2247,5.2588,5.264,5.2864,5.3092,5.3196,5.3196,5.3196,5.3196,5.3196,5.3196,5.3164,5.306,5.249,5.1922,5.1556,5.1393,5.0527,4.9947,4.9652,4.9536,4.9806,4.9965,4.9766,4.9534,4.9578,4.9195,4.8836,4.8329,4.7415,4.6725,4.6002,4.5271,4.5118,4.4841,4.4668,4.4751,4.4893,4.5102,4.555,4.6063,4.6401,4.646,4.6921,4.7554,4.7957,4.8134,4.8267,4.8315,4.8315,4.8315,4.8315,4.8315,4.8315,4.8315,4.8315,4.8315,4.8315,4.8315,4.8315,4.8315,4.8306,4.8316,4.8411,4.8559,4.8631,4.8631,4.8779,4.8972,4.9155,4.9333,4.9337,4.9615,5.1206,5.1206,5.1206,5.1206,5.1206,5.1206,5.1206,5.1331,5.2018,5.2582,5.2987,5.3336,5.3451,5.3313,5.3407,5.3501,5.3501,5.3501,5.3501,5.3501,5.3501,5.3501,5.3501,5.3501,5.3501,5.3501,5.3501,5.3501,5.3501,5.3501,5.3501,5.3467,5.301,5.2131,5.1286,5.0724,5.0431,5.0131,5.077,5.1215,5.1506,5.171,5.206,5.2399,5.2725,5.3009,5.3175,5.3196,5.3196,5.3196,5.3196,5.3196,5.3196,5.3175,5.302,5.2456,5.1801,5.1202,5.0898,5.0279,4.9664,4.9593,4.9867,5.0476,5.077,5.0445,4.9973,4.9904,4.9329,4.8678,4.7946,4.7231,4.6541,4.5888,4.5224,4.5212,4.5192,4.5079,4.5002,4.5142,4.5267,4.5245,4.582,4.6577,4.6921,4.7099,4.7494,4.7949,4.8181,4.8305,4.8315,4.8315,4.8315,4.8315,4.8315,4.8315,4.8315,4.8315,4.8315,4.8315,4.8315,4.8315,4.8315,4.8306,4.8364,4.8532,4.8754,4.8847,4.8955,4.9139,4.9356,4.9666,4.982,4.978,4.9865,5.1206,5.1206,5.1206,5.1206,5.1206,5.1206,5.1206,5.1214,5.1409,5.2275,5.3424,5.3688,5.4072,5.3894,5.3644,5.3501,5.3501,5.3501,5.3501,5.3501,5.3501,5.3501,5.3501,5.3501,5.3501,5.3501,5.3501,5.3501,5.3501,5.3501,5.3501,5.345,5.3281,5.2418,5.1505,5.076,5.0311,5.0074,5.049,5.1146,5.1406,5.1593,5.1801,5.264,5.2565,5.2479,5.3124,5.3196,5.3196,5.3196,5.3196,5.3196,5.3196,5.3196,5.3042,5.2606,5.185,5.1292,5.0916,5.0132,4.9637,4.9965,5.0572,5.106,5.1228,5.0531,5.0115,5.0115,4.9693,4.8773,4.7994,4.7192,4.6759,4.5846,4.5449,4.5585,4.5597,4.5533,4.5485,4.5498,4.5563,4.5648,4.5745,4.6536,4.6664,4.6801,4.7367,4.782,4.8172,4.8315,4.8315,4.8315,4.8315,4.8315,4.8315,4.8315,4.8315,4.8315,4.8315,4.8315,4.8315,4.8315,4.8315,4.8486,4.8577,4.8753,4.8963,4.9163,4.9356,4.9511,4.9746,5.0056,5.0243,5.0231,5.0325,5.1206,5.1206,5.1206,5.1206,5.1206,5.1206,5.1206,5.1479,5.2671,5.4342,5.5794,5.5382,5.5046,5.4768,5.3884,5.3501,5.3501,5.3501,5.3501,5.3501,5.3501,5.3501,5.3501,5.3501,5.3501,5.3501,5.3501,5.3501,5.3501,5.3501,5.3501,5.3501,5.3501,5.252,5.1539,5.0406,4.9777,4.9636,4.9725,5.016,5.0703,5.1164,5.1562,5.2335,5.2908,5.2864,5.3175,5.3185,5.3196,5.3196,5.3196,5.3196,5.3196,5.3196,5.3009,5.2695,5.194,5.1556,5.1099,5.0324,5.0143,5.1094,5.1569,5.1734,5.1722,5.1406,5.1042,5.0783,5.0376,4.958,4.8004,4.7846,4.7601,4.6269,4.577,4.5989,4.6026,4.6002,4.6173,4.6269,4.6269,4.6264,4.6371,4.6548,4.6495,4.6483,4.7103,4.7697,4.8065,4.8315,4.8315,4.8315,4.8315,4.8315,4.8315,4.8315,4.8315,4.8315,4.8315,4.8315,4.8315,4.8306,4.8363,4.8568,4.8873,4.9123,4.9371,4.9568,4.9753,4.9885,5.0147,5.0446,5.0573,5.0599,5.0648,5.1206,5.1206,5.1206,5.1206,5.1206,5.1206,5.1206,5.1534,5.3171,5.5166,5.6969,5.6045,5.5547,5.5057,5.4143,5.3501,5.3501,5.3501,5.3501,5.3501,5.3501,5.3501,5.3501,5.3501,5.3501,5.3501,5.3501,5.3501,5.3501,5.3501,5.3501,5.3501,5.3399,5.2554,5.1201,4.9814,4.9018,4.9018,4.9063,4.9538,5.0297,5.0836,5.1648,5.2376,5.2937,5.3103,5.3185,5.3196,5.3196,5.3196,5.3196,5.3196,5.3196,5.3124,5.2915,5.2547,5.2171,5.185,5.1406,5.1125,5.1081,5.1777,5.23,5.2399,5.2393,5.2247,5.1692,5.1456,5.1162,5.035,4.8474,4.8514,4.8035,4.6795,4.6595,4.6716,4.6618,4.6583,4.6876,4.7095,4.6999,4.6853,4.6887,4.6955,4.6932,4.6858,4.7121,4.7697,4.8142,4.8315,4.8315,4.8315,4.8315,4.8315,4.8315,4.8315,4.8315,4.8315,4.8315,4.8315,4.8315,4.8354,4.8504,4.8754,4.9094,4.9489,4.9773,4.9993,5.0141,5.0272,5.0478,5.0638,5.0648,5.0658,5.0668,5.1206,5.1206,5.1206,5.1206,5.1206,5.1206,5.1206,5.1356,5.2572,5.4053,5.5556,5.558,5.5277,5.4634,5.3873,5.3518,5.3501,5.3501,5.3501,5.3501,5.3501,5.3501,5.3501,5.3501,5.3501,5.3501,5.3501,5.3501,5.3501,5.3501,5.3501,5.3349,5.3162,5.2537,5.115,4.973,4.9052,4.9032,4.9094,4.9867,5.081,5.1202,5.191,5.2743,5.3103,5.3185,5.3196,5.3196,5.3196,5.3196,5.3196,5.3196,5.3196,5.3196,5.3114,5.3042,5.2479,5.2171,5.2077,5.2042,5.2112,5.2259,5.2725,5.2893,5.2915,5.2588,5.2112,5.1868,5.1523,5.0729,4.9805,4.9091,4.8277,4.7561,4.7334,4.7353,4.7259,4.7219,4.7502,4.7635,4.752,4.7385,4.7385,4.7406,4.7406,4.7396,4.7385,4.7695,4.8172,4.8315,4.8315,4.8315,4.8315,4.8315,4.8315,4.8315,4.8315,4.8315,4.8325,4.8354,4.8467,4.8604,4.877,4.8988,4.9378,4.9833,5.0135,5.0399,5.0462,5.0493,5.0565,5.0678,5.0688,5.0688,5.0688,5.1206,5.1206,5.1206,5.1206,5.1206,5.1206,5.1229,5.1459,5.2735,5.4385,5.5734,5.546,5.4888,5.4414,5.3907,5.3501,5.3501,5.3501,5.3501,5.3501,5.3501,5.3501,5.3501,5.3501,5.3501,5.3501,5.3501,5.3501,5.3501,5.3501,5.3501,5.3365,5.2604,5.1742,5.093,4.9894,4.9152,4.9578,4.9809,5.0324,5.1556,5.1777,5.2177,5.3135,5.3196,5.3196,5.3196,5.3196,5.3196,5.3196,5.3196,5.3196,5.3196,5.3196,5.3196,5.3196,5.2831,5.2842,5.2831,5.282,5.2831,5.2915,5.297,5.2999,5.2543,5.2791,5.2543,5.2213,5.1859,5.1029,4.999,4.9564,4.8821,4.7828,4.7572,4.7877,4.7937,4.7947,4.8065,4.8075,4.7987,4.7937,4.7917,4.7826,4.7816,4.7846,4.7846,4.7887,4.8267,4.8315,4.8315,4.8315,4.8315,4.8315,4.8315,4.8315,4.8315,4.8315,4.8364,4.8449,4.8604,4.8837,4.921,4.9477,4.9833,5.0196,5.0394,5.0554,5.0619,5.0683,5.0688,5.0688,5.0688,5.0688,5.0688,5.1206,5.1206,5.1206,5.1206,5.1206,5.1206,5.1452,5.21,5.3197,5.4615,5.5553,5.4972,5.4448,5.4126,5.3771,5.3501,5.3501,5.3501,5.3501,5.3501,5.3501,5.3501,5.3501,5.3501,5.3501,5.3501,5.3501,5.3501,5.3501,5.3501,5.3501,5.3129,5.2012,5.1455,5.0841,5.0144,4.9548,4.9947,5.0213,5.0885,5.1729,5.2148,5.2434,5.297,5.3196,5.3196,5.3196,5.3196,5.3196,5.3196,5.3196,5.3196,5.3196,5.3196,5.3196,5.3196,5.3185,5.3175,5.3153,5.3153,5.3103,5.3135,5.3196,5.2959,5.261,5.2926,5.2875,5.2594,5.2215,5.1341,5.0393,4.9991,4.9057,4.8054,4.7907,4.8219,4.8248,4.823,4.823,4.8277,4.8287,4.8296,4.8315,4.8267,4.819,4.8229,4.8277,4.8315,4.8315,4.8315,4.8315,4.8315,4.8315,4.8315,4.8315,4.8315,4.8315,4.8315,4.843,4.8595,4.888,4.9152,4.957,4.9968,5.0206,5.0421,5.0565,5.0688,5.0688,5.0688,5.0688,5.0688,5.0688,5.0688,5.0688,5.1206,5.1206,5.1206,5.1176,5.1146,5.1192,5.2028,5.3366,5.3678,5.4107,5.4634,5.4617,5.4177,5.3653,5.3501,5.3501,5.3501,5.3501,5.3501,5.3501,5.3501,5.3501,5.3501,5.3501,5.3501,5.3501,5.3501,5.3501,5.3501,5.3501,5.3501,5.3263,5.2292,5.1713,5.1221,5.0902,5.0383,5.047,5.0858,5.1519,5.2213,5.2294,5.2651,5.3049,5.3196,5.3196,5.3196,5.3196,5.3196,5.3196,5.3196,5.3196,5.3196,5.3196,5.3196,5.3196,5.3196,5.3196,5.3196,5.3196,5.3196,5.3196,5.3196,5.3175,5.3164,5.3114,5.3042,5.2712,5.2265,5.156,5.0829,4.9948,4.9067,4.8567,4.8256,4.8305,4.8305,4.8287,4.8287,4.8315,4.8315,4.8315,4.8315,4.8315,4.8315,4.8315,4.8315,4.8315,4.8315,4.8315,4.8315,4.8315,4.8315,4.8315,4.8315,4.8324,4.8448,4.8486,4.8666,4.8846,4.9144,4.9492,4.9872,5.0212,5.0483,5.0653,5.0678,5.0688,5.0688,5.0688,5.0688,5.0688,5.0688,5.0688,5.0688,5.1206,5.1206,5.1206,5.0936,5.0598,5.1101,5.1905,5.2709,5.24,5.2955,5.4566,5.4025,5.3737,5.3501,5.3501,5.3501,5.3501,5.3501,5.3501,5.3501,5.3501,5.3501,5.3501,5.3501,5.3501,5.3501,5.3501,5.3501,5.3501,5.3501,5.3501,5.3331,5.279,5.2395,5.2102,5.2149,5.1462,5.114,5.1449,5.2119,5.2617,5.278,5.302,5.3114,5.3196,5.3196,5.3196,5.3196,5.3196,5.3196,5.3196,5.3196,5.3196,5.3196,5.3196,5.3196,5.3196,5.3196,5.3196,5.3196,5.3196,5.3196,5.3196,5.3196,5.3185,5.3196,5.3196,5.2829,5.2032,5.1187,5.0508,4.9719,4.8985,4.8545,4.8315,4.8315,4.8315,4.8315,4.8315,4.8315,4.8315,4.8315,4.8315,4.8315,4.8315,4.8315,4.8315,4.8315,4.8315,4.8315,4.8315,4.8315,4.8315,4.8315,4.8316,4.8325,4.8513,4.8675,4.8903,4.9207,4.9585,4.9917,5.022,5.0416,5.0604,5.0668,5.0683,5.0688,5.0688,5.0688,5.0688,5.0688,5.0688,5.0688,5.0688,5.1206,5.1161,5.0922,5.0516,5.0176,5.0544,5.1308,5.2107,5.2242,5.308,5.4041,5.3704,5.3501,5.3501,5.3501,5.3501,5.3501,5.3501,5.3501,5.3501,5.3501,5.3501,5.3501,5.3501,5.3501,5.3501,5.3501,5.3501,5.3501,5.3501,5.3501,5.345,5.3272,5.2613,5.2078,5.1874,5.1772,5.1673,5.1946,5.2673,5.302,5.3196,5.3196,5.3196,5.3196,5.3196,5.3196,5.3196,5.3196,5.3196,5.3196,5.3196,5.3196,5.3196,5.3196,5.3196,5.3196,5.3196,5.3196,5.3196,5.3196,5.3196,5.3196,5.3196,5.3196,5.3196,5.3196,5.2976,5.1764,5.071,5.0076,4.9471,4.8884,4.8315,4.8315,4.8315,4.8315,4.8315,4.8315,4.8315,4.8315,4.8315,4.8315,4.8315,4.8315,4.8315,4.8315,4.8315,4.8315,4.8315,4.8315,4.8315,4.8315,4.8315,4.8344,4.8467,4.8701,4.8996,4.9345,4.9666,5.003,5.0266,5.0462,5.0565,5.0668,5.0688,5.0688,5.0688,5.0688,5.0688,5.0688,5.0688,5.0688,5.0688,5.0688,5.1101,5.1026,5.0353,4.9948,4.9815,4.9937,5.0715,5.1954,5.2936,5.3501,5.3534,5.3501,5.3501,5.3501,5.3501,5.3501,5.3501,5.3501,5.3501,5.3501,5.3501,5.3501,5.3501,5.3501,5.3501,5.3501,5.3501,5.3501,5.3501,5.3501,5.3484,5.345,5.3105,5.2561,5.2069,5.2217,5.2179,5.1981,5.2452,5.3103,5.3124,5.3196,5.3196,5.3196,5.3196,5.3196,5.3196,5.3196,5.3196,5.3196,5.3196,5.3196,5.3196,5.3196,5.3196,5.3196,5.3196,5.3196,5.3196,5.3196,5.3196,5.3196,5.3196,5.3196,5.3196,5.3196,5.3196,5.2902,5.182,5.0986,5.0362,4.9306,4.8517,4.8315,4.8315,4.8315,4.8315,4.8315,4.8315,4.8315,4.8315,4.8315,4.8315,4.8315,4.8315,4.8315,4.8315,4.8315,4.8382,4.8382,4.8383,4.8392,4.8458,4.8504,4.8559,4.8719,4.8963,4.9269,4.9673,4.9981,5.0266,5.0483,5.0673,5.0688,5.0688,5.0688,5.0688,5.0688,5.0688,5.0688,5.0688,5.0688,5.0688,5.0688,5.0688,5.0443,5.0323,4.9239,4.9135,4.9807,5.0148,5.0883,5.1975,5.3042,5.3501,5.3501,5.3501,5.3501,5.3501,5.3501,5.3501,5.3501,5.3501,5.3501,5.3501,5.3501,5.3501,5.3501,5.3501,5.3501,5.3501,5.3501,5.3501,5.3501,5.3501,5.3517,5.3568,5.3521,5.3392,5.2697,5.2976,5.3036,5.2525,5.268,5.3132,5.3196,5.3196,5.3196,5.3196,5.3196,5.3196,5.3196,5.3196,5.3196,5.3196,5.3196,5.3196,5.3196,5.3196,5.3196,5.3196,5.3196,5.3196,5.3196,5.3196,5.3196,5.3196,5.3196,5.3196,5.3196,5.3196,5.3031,5.2645,5.2058,5.1298,5.0453,4.9269,4.8315,4.8315,4.8315,4.8315,4.8315,4.8315,4.8315,4.8315,4.8315,4.8315,4.8315,4.8315,4.8315,4.8315,4.8315,4.8344,4.8504,4.855,4.8604,4.864,4.8727,4.8796,4.8837,4.9035,4.9341,4.9596,4.9962,5.0249,5.0483,5.058,5.0688,5.0688,5.0688,5.0688,5.0688,5.0688,5.0688,5.0688,5.0688,5.0688,5.0688,5.0688,5.0688,4.9808,4.9704,4.9208,4.9379,5.0111,5.0788,5.1649,5.2626,5.3263,5.3501,5.3501,5.3501,5.3501,5.3501,5.3501,5.3501,5.3501,5.3501,5.3501,5.3501,5.3501,5.3501,5.3501,5.3501,5.3501,5.3501,5.3501,5.3501,5.3501,5.3501,5.3517,5.3651,5.4162,5.4258,5.3581,5.3824,5.388,5.324,5.3017,5.2974,5.3143,5.3196,5.3196,5.3196,5.3196,5.3196,5.3196,5.3196,5.3196,5.3196,5.3196,5.3196,5.3196,5.3196,5.3196,5.3196,5.3196,5.3196,5.3196,5.3196,5.3196,5.3196,5.3196,5.3196,5.3196,5.3196,5.3196,5.2755,5.1654,5.0857,5.0362,4.937,4.859,4.8315,4.8315,4.8315,4.8315,4.8315,4.8315,4.8315,4.8315,4.8315,4.8315,4.8315,4.8316,4.8373,4.8364,4.8577,4.8692,4.889,4.8915,4.8972,4.9123,4.9163,4.9202,4.9453,4.9773,5.0037,5.0249,5.0421,5.0604,5.0634,5.0688,5.0688,5.0688,5.0688,5.0688,5.0688,5.0688,5.0688,5.0688,5.0688,5.0688,5.0688,5.0688,4.9097,4.9089,4.9481,4.9945,5.0538,5.1467,5.2453,5.3348,5.3501,5.3501,5.3501,5.3501,5.3501,5.3501,5.3501,5.3501,5.3501,5.3501,5.3501,5.3501,5.3501,5.3501,5.3501,5.3501,5.3501,5.3501,5.3501,5.3501,5.3501,5.3501,5.3568,5.3734,5.4031,5.4329,5.3926,5.3752,5.3826,5.3536,5.3251,5.2947,5.3021,5.3196,5.3196,5.3196,5.3196,5.3196,5.3196,5.3196,5.3196,5.3196,5.3196,5.3196,5.3196,5.3196,5.3196,5.3196,5.3196,5.3196,5.3196,5.3196,5.3196,5.3196,5.3196,5.3196,5.3196,5.3196,5.3196,5.2664,5.1563,5.0729,5.0251,4.9481,4.8737,4.8315,4.8315,4.8315,4.8315,4.8315,4.8315,4.8315,4.8315,4.8315,4.8325,4.8325,4.843,4.8458,4.8621,4.882,4.9043,4.9311,4.946,4.9554,4.9706,4.9699,4.9629,4.9859,5.0171,5.0272,5.0462,5.0599,5.0688,5.0688,5.0688,5.0688,5.0688,5.0688,5.0688,5.0688,5.0688,5.0688,5.0688,5.0688,5.0688,5.0688,5.0688,4.8169,4.7762,4.8628,4.9526,5.0474,5.1504,5.2505,5.3399,5.3501,5.3501,5.3501,5.3501,5.3501,5.3501,5.3501,5.3501,5.3501,5.3501,5.3501,5.3501,5.3501,5.3501,5.3501,5.3501,5.3501,5.3501,5.3501,5.3501,5.3568,5.3568,5.3816,5.4328,5.4484,5.487,5.5334,5.5127,5.4875,5.4421,5.3953,5.369,5.3188,5.3251,5.3196,5.3196,5.3196,5.3196,5.3196,5.3196,5.3196,5.3196,5.3196,5.3196,5.3196,5.3196,5.3196,5.3196,5.3196,5.3196,5.3196,5.3196,5.3196,5.3196,5.3196,5.3196,5.3196,5.3196,5.3122,5.2957,5.1966,5.1059,5.0362,4.9169,4.8333,4.8315,4.8315,4.8315,4.8315,4.8315,4.8315,4.8315,4.8315,4.8344,4.8402,4.8504,4.8754,4.8863,4.915,4.9326,4.9423,4.9687,4.9968,5.0074,5.0202,5.0159,5.0068,5.0254,5.0499,5.0594,5.0614,5.0668,5.0688,5.0688,5.0688,5.0688,5.0688,5.0688,5.0688,5.0688,5.0688,5.0688,5.0688,5.0688,5.0688,5.0688,5.0688]}]]